[[{"header":{"parameterUnit":"m.s-1","parameterCategory":1,"la1":31.0,"la2":29.5877,"lo1":-88.7671,"lo2":-86.6584,"dy":0.0162,"dx":0.0185,"nx":115,"ny":88,"refTime":"2026-05-16T00:00:00:Z","depth":0,"parameterNumber":2,"parameterNumberName":"U-component_of_WINDS"},"data":[0.0,0.0,0.0,0.0,0.0,0.0,0.0,0.0,0.0,0.0,0.0,0.0,0.0,0.0,0.0,0.0,0.0,0.0,0.0,0.0,0.0,0.0,0.0,0.0,0.0,0.0,0.0,0.0,0.0,0.0,0.0,0.0,0.0,0.0,0.0,0.0,0.0,0.0,0.0,0.0,0.0,0.0,0.0,0.0,0.0,0.0,0.0,0.0,0.0,0.0,0.0,0.0,0.0,0.0,0.0,0.0,0.0,0.0,0.0,0.0,0.0,0.0,0.0,0.0,0.0,0.0,0.0,0.0,0.0,0.0,0.0,0.0,0.0,0.0,0.0,0.0,0.0,0.0,0.0,0.0,0.0,0.0,0.0,0.0,0.0,0.0,0.0,0.0,0.0,0.0,0.0,0.0,0.0,0.0,0.0,0.0,0.0,0.0,0.0,0.0,0.0,0.0,0.0,0.0,0.0,0.0,0.0,0.0,0.0,0.0,0.0,0.0,0.0,0.0,0.0,0.0,0.0,0.0,0.0,0.0,0.0,0.0,0.0,0.0,0.0,0.0,0.0,0.0,0.0,0.0,0.0,0.0,0.0,0.0,0.0,0.0,0.0,0.0,0.0,0.0,0.0,0.0,0.0,0.0,0.0,0.0,0.0,0.0,0.0,0.0,0.0,0.0,0.0,0.0,0.0,0.0,0.0,0.0,0.0,0.0,0.0,0.0,0.0,0.0,0.0,0.0,0.0,0.0,0.0,0.0,0.0,0.0,0.0,0.0,0.0,0.0,0.0,0.0,0.0,0.0,0.0,0.0,0.0,0.0,0.0,0.0,0.0,0.0,0.0,0.0,0.0,0.0,0.0,0.0,0.0,0.0,0.0,0.0,0.0,0.0,0.0,0.0,0.0,0.0,0.0,0.0,0.0,0.0,0.0,0.0,0.0,0.0,0.0,0.0,0.0,0.0,0.0,0.0,0.0,0.0,0.0,0.0,0.0,0.0,0.0,0.0,0.0,0.0,0.0,0.0,0.0,0.0,0.0,0.0,0.0,0.0,0.0,0.0,0.0,0.0,0.0,0.0,0.0,0.0,0.0,0.0,0.0,0.0,0.0,0.0,0.0,0.0,0.0,0.0,0.0,0.0,0.0,0.0,0.0,0.0,0.0,0.0,0.0,0.0,0.0,0.0,0.0,0.0,0.0,0.0,0.0,0.0,0.0,0.0,0.0,0.0,0.0,0.0,0.0,0.0,0.0,0.0,0.0,0.0,0.0,0.0,0.0,0.0,0.0,0.0,0.0,0.0,0.0,0.0,0.0,0.0,0.0,0.0,0.0,0.0,0.0,0.0,0.0,0.0,0.0,0.0,0.0,0.0,0.0,0.0,0.0,0.0,0.0,0.0,0.0,0.0,0.0,0.0,0.0,0.0,0.0,0.0,0.0,0.0,0.0,0.0,0.0,0.0,0.0,0.0,0.0,0.0,0.0,0.0,0.0,0.0,0.0,0.0,0.0,0.0,0.0,0.0,0.0,0.0,0.0,0.0,0.0,0.0,0.0,0.0,0.0,0.0,0.0,0.0,0.0,0.0,0.0,0.0,0.0,0.0,0.0,0.0,0.0,0.0,0.0,0.0,0.0,0.0,0.0,0.0,0.0,0.0,0.0,0.0,0.0,0.0,0.0,0.0,0.0,0.0,0.0,0.0,0.0,0.0,0.0,0.0,0.0,0.0,0.0,0.0,0.0,0.0,0.0,0.0,0.0,0.0,0.0,0.0,0.0,0.0,0.0,0.0,0.0,0.0,0.0,0.0,0.0,0.0,0.0,0.0,0.0,0.0,0.0,0.0,0.0,0.0,0.0,0.0,0.0,0.0,0.0,0.0,0.0,0.0,0.0,0.0,0.0,0.0,0.0,0.0,0.0,0.0,0.0,0.0,0.0,0.0,0.0,0.0,0.0,0.0,0.0,0.0,0.0,0.0,0.0,0.0,0.0,0.0,0.0,0.0,0.0,0.0,0.0,0.0,0.0,0.0,0.0,0.0,0.0,0.0,0.0,0.0,0.0,0.0,0.0,0.0,0.0,0.0,0.0,0.0,0.0,0.0,0.0,0.0,0.0,0.0,0.0,0.0,0.0,0.0,0.0,0.0,0.0,0.0,0.0,0.0,0.0,0.0,0.0,0.0,0.0,0.0,0.0,0.0,0.0,0.0,0.0,0.0,0.0,0.0,0.0,0.0,0.0,0.0,0.0,0.0,0.0,0.0,0.0,0.0,0.0,0.0,0.0,0.0,0.0,0.0,0.0,0.0,0.0,0.0,0.0,0.0,0.0,0.0,0.0,0.0,0.0,0.0,0.0,0.0,0.0,0.0,0.0,0.0,0.0,0.0,0.0,0.0,0.0,0.0,0.0,0.0,0.0,0.0,0.0,0.0,0.0,0.0,0.0,0.0,0.0,0.0,0.0,0.0,0.0,0.0,0.0,0.0,0.0,0.0,0.0,0.0,0.0,0.0,0.0,0.0,0.0,0.0,0.0,0.0,0.0,0.0,0.0,0.0,0.0,0.0,0.0,0.0,0.0,0.0,0.0,0.0,0.0,0.0,0.0,0.0,0.0,0.0,0.0,0.0,0.0,0.0,0.0,0.0,0.0,0.0,0.0,0.0,0.0,0.0,0.0,0.0,0.0,0.0,0.0,0.0,0.0,0.0,0.0,0.0,0.0,0.0,0.0,0.0,0.0,0.0,0.0,0.0,0.0,0.0,0.0,0.0,0.0,0.0,0.0,0.0,0.0,0.0,0.0,0.0,0.0,0.0,0.0,0.0,0.0,0.0,0.0,0.0,0.0,0.0,0.0,0.0,0.0,0.0,0.0,0.0,0.0,0.0,0.0,0.0,0.0,0.0,0.0,0.0,0.0,0.0,0.0,0.0,0.0,0.0,0.0,0.0,0.0,0.0,0.0,0.0,0.0,0.0,0.0,0.0,0.0,0.0,0.0,0.0,0.0,0.0,0.0,0.0,0.0,0.0,0.0,0.0,0.0,0.0,0.0,0.0,0.0,0.0,0.0,0.0,0.0,0.0,0.0,0.0,0.0,0.0,0.0,0.0,0.0,0.0,0.0,0.0,0.0,0.0,0.0,0.0,0.0,0.0,0.0,0.0,0.0,0.0,0.0,0.0,0.0,0.0,0.0,0.0,0.0,0.0,0.0,0.0,0.0,0.0,0.0,0.0,0.0,0.0,0.0,0.0,0.0,0.0,0.0,0.0,0.0,0.0,0.0,0.0,0.0,0.0,0.0,0.0,0.0,0.0,0.0,0.0,0.0,0.0,0.0,0.0,0.0,0.0,0.0,0.0,0.0,0.0,0.0,0.0,0.0,0.0,0.0,0.0,0.0,0.0,0.0,0.0,0.0,0.0,0.0,0.0,0.0,0.0,0.0,0.0,0.0,0.0,0.0,0.0,0.0,0.0,0.0,0.0,0.0,0.0,0.0,0.0,0.0,0.0,0.0,0.0,0.0,0.0,0.0,0.0,0.0,0.0,0.0,0.0,0.0,0.0,0.0,0.0,0.0,0.0,0.0,0.0,0.0,0.0,0.0,0.0,0.0,0.0,0.0,0.0,0.0,0.0,0.0,0.0,0.0,0.0,0.0,0.0,0.0,0.0,0.0,0.0,0.0,0.0,0.0,0.0,0.0,0.0,0.0,0.0,0.0,0.0,0.0,0.0,0.0,0.0,0.0,0.0,0.0,0.0,0.0,0.0,0.0,0.0,0.0,0.0,0.0,0.0,0.0,0.0,0.0,0.0,0.0,0.0,0.0,0.0,0.0,0.0,0.0,0.0,0.0,0.0,0.0,0.0,0.0,0.0,0.0,0.0,0.0,0.0,0.0,0.0,0.0,0.0,0.0,0.0,0.0,0.0,0.0,0.0,0.0,0.0,0.0,0.0,0.0,0.0,0.0,0.0,0.0,0.0,0.0,0.0,0.0,0.0,0.0,0.0,0.0,0.0,0.0,0.0,0.0,0.0,0.0,0.0,0.0,0.0,0.0,0.0,0.0,0.0,0.0,0.0,0.0,0.0,0.0,0.0,0.0,0.0,0.0,0.0,0.0,0.0,0.0,0.0,0.0,0.0,0.0,0.0,0.0,0.0,0.0,0.0,0.0,0.0,0.0,0.0,0.0,0.0,0.0,0.0,0.0,0.0,0.0,0.0,0.0,0.0,0.0,0.0,0.0,0.0,0.0,0.0,0.0,0.0,0.0,0.0,0.0,0.0,0.0,0.0,0.0,0.0,-0.3289,0.0,0.0,0.0,0.0,0.0,0.0,0.0,0.0,0.0,0.0,0.0,0.0,0.0,0.0,0.0,0.0,0.0,0.0,0.0,0.0,0.0,0.0,0.0,0.0,0.0,0.0,0.0,0.0,0.0,0.0,0.0,0.0,0.0,0.0,0.0,0.0,0.0,0.0,0.0,0.0,0.0,0.0,0.0,0.0,0.0,0.0,0.0,0.0,0.0,0.0,0.0,0.0,0.0,0.0,0.0,0.0,0.0,0.0,0.0,0.0,0.0,0.0,0.0,0.0,0.0,0.0,0.0,0.0,0.0,0.0,0.0,0.0,0.0,0.0,0.0,0.0,0.0,0.0,0.0,0.0,0.0,0.0,0.0,0.0,0.0,0.0,0.0,0.0,0.0,0.0,0.0,0.0,0.0,0.0,0.0,0.0,0.0,0.0,0.0,0.0,0.0,0.0,0.0,0.0,0.0,0.0,0.0,0.0,0.0,0.0,-0.0078,-0.07,-0.2045,-0.3033,-0.3585,0.0,0.0,0.0,0.0,0.0,0.0,0.0,0.0,0.0,0.0,0.0,0.0,0.0,0.0,0.0,0.0,0.0,0.0,0.0,0.0,0.0,0.0,0.0,0.0,0.0,0.0,0.0,0.0,0.0,0.0,0.0,0.0,0.0,0.0,0.0,0.0,0.0,0.0,0.0,0.0,0.0,0.0,0.0,0.0,0.0,0.0,0.0,0.0,0.0,0.0,0.0,0.0,0.0,0.0,0.0,0.0,0.0,0.0,0.0,0.0,0.0,0.0,0.0,0.0,0.0,0.0,0.0,0.0,0.0,0.0,0.0,0.0,0.0,0.0,0.0,0.0,0.0,0.0,0.0,0.0,0.0,0.0,0.0,0.0,0.0,0.0,0.0,0.0,0.0,0.0,0.0,0.0,0.0,0.0,0.0,0.0,0.0,0.0,0.0,0.0,0.0,0.0,0.0,0.0,0.0,0.0,0.0,0.0,0.0,0.0,0.0,0.0,-0.2165,-0.3298,-0.4065,0.0,0.0,0.0,0.0,0.0,0.0,0.0,0.0,0.0,0.0,0.0,0.0,0.0,0.0,0.0,0.0,0.0,0.0,0.0,0.0,0.0,0.0,0.0,0.0,0.0,0.0,0.0,0.0,0.0,0.0,0.0,0.0,0.0,0.0,0.0,0.0,0.0,0.0,0.0,0.0,0.0,0.0,0.0,0.0,0.0,0.0,0.0,0.0,0.0,0.0,0.0,0.0,0.0,0.0,0.0,0.0,0.0,0.0,0.0,0.0,0.0,0.0,0.0,0.0,0.0,0.0,0.0,0.0,0.0,0.0,0.0,0.0,0.0,0.0,0.0,0.0,0.0,0.0,0.0,0.0,0.0,0.0,0.0,0.0,0.0,0.0,0.0,0.0,0.0,0.0,0.0,0.0,0.0,0.0,0.0,0.0,0.0,0.0,0.0,0.0,0.0,0.0,0.0,0.0,0.0,0.0,0.0,0.0,0.0,0.0,-0.0146,-0.0878,-0.2665,0.0,-0.4877,0.0,0.0,0.0,0.0,0.0,0.0,0.0,0.0,0.0,0.0,0.0,0.0,0.0,0.0,0.0,0.0,0.0,0.0,0.0,0.0,0.0,0.0,0.0,0.0,0.0,0.0,0.0,0.0,0.0,0.0,0.0,0.0,0.0,0.0,0.0,0.0,0.0,0.0,0.0,0.0,0.0,0.0,0.0,0.0,0.0,0.0,0.0,0.0,0.0,0.0,0.0,0.0,0.0,0.0,0.0,0.0,0.0,0.0,0.0,0.0,0.0,0.0,0.0,0.0,0.0,0.0,0.0,0.0,0.0,0.0,0.0,0.0,0.0,0.0,0.0,0.0,0.0,0.0,0.0,0.0,0.0,0.0,0.0,0.0,0.0,0.0,0.0,0.0,0.0,0.0,0.0,0.0,0.0,0.0,0.0,0.0,0.0,0.0,0.0,0.0,0.0,0.0,0.0,0.0,0.0,0.0,0.0,0.0,0.0,0.0,0.0,-0.1286,-0.2826,-0.3973,0.0,0.0,0.0,0.0,0.0,0.0,0.0,0.0,0.0,0.0,0.0,0.0,0.0,0.0,0.0,0.0,0.0,0.0,0.0,0.0,0.0,0.0,0.0,0.0,0.0,0.0,0.0,0.0,0.0,0.0,0.0,0.0,0.0,0.0,0.0,0.0,0.0,0.0,0.0,0.0,0.0,0.0,0.0,0.0,0.0,0.0,0.0,0.0,0.0,0.0,0.0,0.0,0.0,0.0,0.0,0.0,0.0,0.0,0.0,0.0,0.0,0.0,0.0,0.0,0.0,0.0,0.0,0.0,0.0,0.0,0.0,0.0,0.0,0.0,0.0,0.0,0.0,0.0,0.0,0.0,0.0,0.0,0.0,0.0,0.0,0.0,0.0,0.0,0.0,0.0,0.0,0.0,0.0,0.0,0.0,0.0,0.0,0.0,0.0,0.0,0.0,0.0,0.0,0.0,0.0,0.0,0.0,0.0,0.0,0.0,0.0811,-0.011,-0.1938,-0.3119,-0.3935,-0.437,0.0,0.0,0.0,0.0,0.0,0.0,0.0,0.0,0.0,0.0,0.0,0.0,0.0,0.0,0.0,0.0,0.0,0.0,0.0,0.0,0.0,0.0,0.0,0.0,0.0,0.0,0.0,0.0,0.0,0.0,0.0,0.0,0.0,0.0,0.0,0.0,0.0,0.0,0.0,0.0,0.0,0.0,0.0,0.0,0.0,0.0,0.0,0.0,0.0,0.0,0.0,0.0,0.0,0.0,0.0,0.0,0.0,0.0,0.0,0.0,0.0,0.0,0.0,0.0,0.0,0.0,0.0,0.0,0.0,0.0,0.0,0.0,0.0,0.0,0.0,0.0,0.0,0.0,0.0,0.0,0.0,0.0,0.0,0.0,0.0,0.0,0.0,0.0,0.0,0.0,0.0,0.0,0.0,0.0,0.0,0.0,0.0,0.0,0.0,0.0,0.0,0.0,0.0,0.0,0.0,0.0,0.0,0.0,0.0,0.0582,-0.0678,-0.2923,-0.3657,-0.4108,0.0,0.0,0.0,0.0,0.0,0.0,0.0,0.0,0.0,0.0,0.0,0.0,0.0,0.0,0.0,0.0,0.0,0.0,0.0,0.0,0.0,0.0,0.0,0.0,0.0,0.0,0.0,0.0,0.0,0.0,0.0,0.0,0.0,0.0,0.0,0.0,0.0,0.0,0.0,0.0,0.0,0.0,0.0,0.0,0.0,0.0,0.0,0.0,0.0,0.0,0.0,0.0,0.0,0.0,0.0,0.0,0.0,0.0,0.0,0.0,0.0,0.0,0.0,0.0,0.0,0.0,0.0,0.0,0.0,0.0,0.0,0.0,0.0,0.0,0.0,0.0,0.0,0.0,0.0,0.0,0.0,0.0,0.0,0.0,0.0,0.0,0.0,0.0,0.0,0.0,0.0,0.0,0.0,0.0,0.0,0.0,0.0,0.0,0.0,0.0,0.0,0.0,0.0,0.0,0.0,0.0,0.0,0.0,0.0,0.0895,-0.0262,-0.1503,-0.2802,-0.3426,-0.3822,0.0,0.0,0.0,0.0,0.0,0.0,0.0,0.0,0.0,0.0,0.0,0.0,0.0,0.0,0.0,0.0,0.0,0.0,0.0,0.0,0.0,0.0,0.0,0.0,0.0,0.0,0.0,0.0,0.0,0.0,0.0,0.0,0.0,0.0,0.0,0.0,0.0,0.0,0.0,0.0,0.0,0.0,0.0,0.0,0.0,0.0,0.0,0.0,0.0,0.0,0.0,0.0,0.0,0.0,0.0,0.0,0.0,0.0,0.0,0.0,0.0,0.0,0.0,0.0,0.0,0.0,0.0,0.0,0.0,0.0,0.0,0.0,0.0,0.0,0.0,0.0,0.0,0.0,0.0,0.0,0.0,0.0,0.0,0.0,0.0,0.0,0.0,0.0,0.0,0.0,0.0,0.0,0.0,0.0,0.0,0.0,0.0,0.0,0.0,0.0,0.0,0.0,0.0,0.0,0.0,0.0,0.0,0.0,0.0,0.0337,0.0,-0.2182,0.0,-0.3512,-0.3858,0.0,0.0,0.0,0.0,0.0,0.0,0.0,0.0,0.0,0.0,0.0,0.0,0.0,0.0,0.0,0.0,0.0,0.0,0.0,0.0,0.0,0.0,0.0,0.0,0.0,0.0,0.0,0.0,0.0,0.0,0.0,0.0,0.0,0.0,0.0,0.0,0.0,0.0,0.0,0.0,0.0,0.0,0.0,0.0,0.0,0.0,0.0,0.0,0.0,0.0,0.0,0.0,0.0,0.0,0.0,0.0,0.0,0.0,0.0,0.0,0.0,0.0,0.0,0.0,0.0,0.0,0.0,0.0,0.0,0.0,0.0,0.0,0.0,0.0,0.0,0.0,0.0,0.0,0.0,0.0,0.0,0.0,0.0,0.0,0.0,0.0,0.0,0.0,0.0,0.0,0.0,0.0,0.0,0.0,0.0,0.0,0.0,0.0,0.0,0.0,0.0,0.0,0.0,0.0,0.0,0.0,0.0,0.0,0.0531,-0.0883,-0.1971,-0.2694,-0.2937,-0.4016,-0.4247,0.0,0.0,0.0,0.0,0.0,0.0,0.0,0.0,0.0,0.0,0.0,0.0,0.0,0.0,0.0,0.0,0.0,0.0,0.0,0.0,0.0,0.0,0.0,0.0,0.0,0.0,0.0,0.0,0.0,0.0,0.0,0.0,0.0,0.0,0.0,0.0,0.0,0.0,0.0,0.0,0.0,0.0,0.0,0.0,0.0,0.0,0.0,0.0,0.0,0.0,0.0,0.0,0.0,0.0,0.0,0.0,0.0,0.0,0.0,0.0,0.0,0.0,0.0,0.0,0.0,0.0,0.0,0.0,0.0,0.0,0.0,0.0,0.0,0.0,0.0,0.0,0.0,0.0,0.0,0.0,0.0,0.0,0.0,0.0,0.0,0.0,0.0,0.0,0.0,0.0,0.0,0.0,0.0,0.0,0.0,0.0,0.0,0.0,0.0,0.0,0.0,0.0,0.0,0.0,0.0,0.0,0.0,0.0,0.0,-0.1946,-0.3068,-0.3853,-0.4273,-0.4716,-0.4803,0.0,0.0,0.0,0.0,0.0,0.0,0.0,0.0,0.0,0.0,0.0,0.0,0.0,0.0,0.0,0.0,0.0,0.0,0.0,0.0,0.0,0.0,0.0,0.0,0.0,0.0,0.0,0.0,0.0,0.0,0.0,0.0,0.0,0.0,0.0,0.0,0.0,0.0,0.0,0.0,0.0,0.0,0.0,0.0,0.0,0.0,0.0,0.0,0.0,0.0,0.0,0.0,0.0,0.0,0.0,0.0,0.0,0.0,0.0,0.0,0.0,0.0,0.0,0.0,0.0,0.0,0.0,0.0,0.0,0.0,0.0,0.0,0.0,0.0,0.0,0.0,0.0,0.0,0.0,0.0,0.0,0.0,0.0,0.0,0.0,0.0,0.0,0.0,0.0,0.0,0.0,0.0,0.0,0.0,0.0,0.0,0.0,0.0,0.0,0.0,0.0,0.0,0.0,0.0,0.0,0.0,0.0,0.0,0.0,-0.4557,-0.491,-0.5229,-0.5476,-0.5378,-0.5081,-0.4582,0.0,0.0,0.0,0.0,0.0,0.0,0.0,0.0,0.0,0.0,0.0,0.0,0.0,0.0,0.0,0.0,0.0,0.0,0.0,0.0,0.0,0.0,0.0,0.0,0.0,0.0,0.0,0.0,0.0,0.0,0.0,0.0,0.0,0.0,0.0,0.0,0.0,0.0,0.0,0.0,0.0,0.0,0.0,0.0,0.0,0.0,0.0,0.0,0.0,0.0,0.0,0.0,0.0,0.0,0.0,0.0,0.0,0.0,0.0,0.0,0.0,0.0,0.0,0.0,0.0,0.0,0.0,0.0,0.0,0.0,0.0,0.0,0.0,0.0,0.0,0.0,0.0,0.0,0.0,0.0,0.0,0.0,0.0,0.0,0.0,0.0,0.0,0.0,0.0,0.0,0.0,0.0,0.0,0.0,0.0,0.0,0.0,0.0,0.0,0.0,0.0,0.0,0.0,0.0,0.0,0.0,0.0,0.0,-0.8277,-0.7332,-0.6752,-0.6626,-0.6063,-0.5224,0.0,0.0,0.0,0.0,0.0,0.0,0.0,0.0,0.0,0.0,0.0,0.0,0.0,0.0,0.0,0.0,0.0,0.0,0.0,0.0,0.0,0.0,0.0,0.0,0.0,0.0,0.0,0.0,0.0,0.0,0.0,0.0,0.0,0.0,0.0,0.0,0.0,0.0,0.0,0.0,0.0,0.0,0.0,0.0,0.0,0.0,0.0,0.0,0.0,0.0,0.0,0.0,0.0,0.0,0.0,0.0,0.0,0.0,0.0,0.0,0.0,0.0,0.0,0.0,0.0,0.0,0.0,0.0,0.0,0.0,0.0,0.0,0.0,0.0,0.0,0.0,0.0,0.0,0.0,0.0,0.0,0.0,0.0,0.0,0.0,0.0,0.0,0.0,0.0,0.0,0.0,0.0,0.0,0.0,0.0,0.0,0.0,0.0,0.0,0.0,0.0,0.0,0.0,0.0,0.0,0.0,0.0,0.0,0.0,-0.9621,-0.9423,-0.895,-0.8264,-0.7023,-0.6064,0.0,0.0,0.0,0.0,0.0,0.0,0.0,0.0,0.0,0.0,0.0,0.0,0.0,0.0,0.0,0.0,0.0,0.0,0.0,0.0,0.0,0.0,0.0,0.0,0.0,0.0,0.0,0.0,0.0,0.0,0.0,0.0,0.0,0.0,0.0,0.0,0.0,0.0,0.0,0.0,0.0,0.0,0.0,0.0,0.0,0.0,0.0,0.0,0.0,0.0,0.0,0.0,0.0,0.0,0.0,0.0,0.0,0.0,0.0,0.0,0.0,0.0,0.0,0.0,0.0,0.0,0.0,0.0,0.0,0.0,0.0,0.0,0.0,0.0,0.0,0.0,0.0,0.0,0.0,0.0,0.0,0.0,0.0,0.0,0.0,0.0,0.0,0.0,0.0,0.0,0.0,0.0,0.0,0.0,0.0,0.0,0.0,0.0,0.0,0.0,0.0,0.0,0.0,0.0,0.0,0.0,0.0,0.0,-0.8692,-1.0792,-1.0585,-1.0141,-0.9557,-0.7988,-0.6653,0.0,0.0,0.0,0.0,0.0,0.0,0.0,0.0,0.0,0.0,0.0,0.0,0.0,0.0,0.0,0.0,0.0,0.0,0.0,0.0,0.0,0.0,0.0,0.0,0.0,0.0,0.0,0.0,0.0,0.0,0.0,0.0,0.0,0.0,0.0,0.0,0.0,0.0,0.0,0.0,0.0,0.0,0.0,0.0,0.0,0.0,0.0,0.0,0.0,0.0,0.0,0.0,0.0,0.0,0.0,0.0,0.0,0.0,0.0,0.0,0.0,0.0,0.0,0.0,0.0,0.0,0.0,0.0,0.0,0.0,0.0,0.0,0.0,0.0,0.0,0.0,0.0,0.0,0.0,0.0,0.0,0.0,0.0,0.0,0.0,0.0,0.0,0.0,0.0,0.0,0.0,0.0,0.0,0.0,0.0,0.0,0.0,0.0,0.0,0.0,0.0,0.0,0.0,0.0,0.0,0.0,0.0,0.0,-0.9593,-1.1621,-1.1099,-1.0681,-1.0391,-0.8761,-0.7054,0.0,0.0,0.0,0.0,0.0,0.0,0.0,0.0,0.0,0.0,0.0,0.0,0.0,0.0,0.0,0.0,0.0,0.0,0.0,0.0,0.0,0.0,0.0,0.0,0.0,0.0,0.0,0.0,0.0,0.0,0.0,0.0,0.0,0.0,0.0,0.0,0.0,0.0,0.0,0.0,0.0,0.0,0.0,0.0,0.0,0.0,0.0,0.0,0.0,0.0,0.0,0.0,0.0,0.0,0.0,0.0,0.0,0.0,0.0,0.0,0.0,0.0,0.0,0.0,0.0,0.0,0.0,0.0,0.0,0.0,0.0,0.0,0.0,0.0,0.0,0.0,0.0,0.0,0.0,0.0,0.0,0.0,0.0,0.0,0.0,0.0,0.0,0.0,0.0,0.0,0.0,0.0,0.0,0.0,0.0,0.0,0.0,0.0,0.0,0.0,0.0,0.0,0.0,0.0,0.0,0.0,0.0,0.0,-1.0597,-1.1992,-1.1239,-1.078,-1.0698,-0.8699,-0.6912,0.0,0.0,0.0,0.0,0.0,0.0,0.0,0.0,0.0,0.0,0.0,0.0,0.0,0.0,0.0,0.0,0.0,0.0,0.0,0.0,0.0,0.0,0.0,0.0,0.0,0.0,0.0,0.0,0.0,0.0,0.0,0.0,0.0,0.0,0.0,0.0,0.0,0.0,0.0,0.0,0.0,0.0,0.0,0.0,0.0,0.0,0.0,0.0,0.3905,0.0,0.0,0.0,0.0,0.0,0.0,0.0,0.0,0.0,0.0,0.0,0.0,0.0,0.0,0.0,0.0,0.0,0.0,0.0,0.0,0.0,0.0,0.0,0.0,0.0,0.0,0.0,0.0,0.0,0.0,0.0,0.0,0.0,0.0,0.0,0.0,0.0,0.0,0.0,0.0,0.0,0.0,0.0,0.0,0.0,0.0,0.0,0.0,0.0,0.0,0.0,0.0,0.0,0.0,0.0,0.0,0.0,0.0,0.0,-1.091,-1.2128,-1.1282,-1.0813,-1.0738,-0.8946,-0.7237,0.0,0.0,0.0,0.0,0.0,0.0,0.0,0.0,0.0,0.0,0.0,0.0,0.0,0.0,0.0,0.0,0.0,0.0,0.0,0.0,0.0,0.0,0.0,0.0,0.0,0.0,0.0,0.0,0.0,0.0,0.0,0.0,0.0,0.0,0.0,0.0,0.0,0.0,0.0,0.0,0.0,0.0,0.0,0.0,0.0,0.0,0.0,0.0,0.0,0.0,0.0,0.0,0.0,0.0,0.0,0.0,0.0,0.0,0.0,0.0,0.0,0.0,0.0,0.0,0.0,0.0,0.0,0.0,0.0,0.0,0.0,0.0,0.0,0.0,0.0,0.0,0.0,0.0,0.0,0.0,0.0,0.0,0.0,0.0,0.0,0.0,0.0,0.0,0.0,0.0,0.0,0.0,0.0,0.0,0.0,0.0,0.0,0.0,0.0,0.0,0.0,0.0,0.0,0.0,0.0,0.0,0.0,-0.9386,-1.1012,-1.2215,-1.1317,-1.0813,-1.078,-0.9282,-0.7715,-0.6112,0.0,0.0,0.0,0.0,0.0,0.0,0.0,0.0,0.0,0.0,0.0,0.0,0.0,0.0,0.0,0.0,0.0,0.0,0.0,0.0,0.0,0.0,0.0,0.0,0.0,0.0,0.0,0.0,0.0,0.0,0.0,0.0,0.0,0.0,0.0,0.0,0.0,0.0,0.2863,0.3178,0.0,0.0,0.0,0.0,0.0,0.0,0.0,0.0,0.3544,0.0,0.0,0.0,0.0,0.0,0.0,0.0,0.0,0.0,0.0,0.0,0.0,0.0,0.0,0.0,0.0,0.0,0.0,0.0,0.0,0.0,0.0,0.0,0.0,0.0,0.0,0.0,0.0,0.0,0.0,0.0,0.0,0.0,0.0,0.0,0.0,0.0,0.0,0.0,0.0,0.0,0.0,0.0,0.0,0.0,0.0,0.0,0.0,0.0,0.0,0.0,0.0,0.0,0.0,0.0,0.0,-0.8906,-1.0187,-1.1448,-1.2734,-1.1474,-1.0813,-1.0762,-0.9467,-0.791,-0.6261,0.0,0.0,0.0,0.0,0.0,0.0,0.0,0.0,0.0,0.0,0.0,0.0,0.0,0.0,0.0,0.0,0.0,0.0,0.0,0.0,0.0,0.0,0.0,0.0,0.0,0.0,0.0,0.0,0.0,0.0,0.0,0.0,0.0,0.0,0.0,0.0,0.0,0.0,0.0,0.3364,0.3632,0.0,0.0,0.0,0.0,0.0,0.0,0.0,0.0,0.2799,0.0,0.0,0.0,0.0,0.0,0.0,0.0,0.0,0.0,0.0,0.0,0.0,0.0,0.0,0.0,0.0,0.0,0.0,0.0,0.0,0.0,0.0,0.0,0.0,0.0,0.0,0.0,0.0,0.0,0.0,0.0,0.0,0.0,0.0,0.0,0.0,0.0,0.0,0.0,0.0,0.0,0.0,0.0,0.0,0.0,0.0,0.0,0.0,0.0,0.0,0.0,0.0,0.0,0.0,0.0,-0.9432,-1.0653,-1.1612,-1.2267,-1.1334,-1.0644,-1.0287,-0.903,-0.7647,0.0,0.0,0.0,0.0,0.0,0.0,0.0,0.0,0.0,0.0,0.0,0.0,0.0,0.0,0.0,0.0,0.0,0.0,0.0,0.0,0.0,0.0,0.0,0.0,0.0,0.0,0.0,0.0,0.0,0.0,0.0,0.0,0.0,0.0,0.0,0.0,0.0,0.0,0.0,0.0,0.2947,0.3316,0.3208,0.0,0.0,0.0,0.0,0.0,0.0,0.2525,0.1948,0.0,0.0,0.0,0.0,0.0,0.0,0.0,0.0,0.0,0.0,0.0,0.0,0.0,0.0,0.0,0.0,0.0,0.0,0.0,0.0,0.0,0.0,0.0,0.0,0.0,0.0,0.0,0.0,0.0,0.0,0.0,0.0,0.0,0.0,0.0,0.0,0.0,0.0,0.0,0.0,0.0,0.0,0.0,0.0,0.0,0.0,0.0,0.0,0.0,0.0,0.0,0.0,0.0,0.0,0.0,-0.9885,-1.1046,-1.1682,-1.1771,-1.1149,-1.0491,-0.9825,-0.863,-0.737,0.0,0.0,0.0,0.0,0.0,0.0,0.0,0.0,0.0,0.0,0.0,0.0,0.0,0.0,0.0,0.0,0.0,0.0,0.0,0.0,0.0,0.0,0.0,0.0,0.0,0.0,0.0,0.0,0.0,0.0,0.0,0.0,0.0,0.0,0.0,0.0,0.0,0.0,0.0,0.0,0.0,0.2857,0.2886,0.2769,0.0,0.0,0.0,0.0,0.245,0.1751,0.0,0.0,0.0,0.0,0.0,0.0,0.0,0.0,0.0,0.0,0.0,0.0,0.0,0.0,0.0,0.0,0.0,0.0,0.0,0.0,0.0,0.0,0.0,0.0,0.0,0.0,0.0,0.0,0.0,0.0,0.0,0.0,0.0,0.0,0.0,0.0,0.0,0.0,0.0,0.0,0.0,0.0,0.0,0.0,0.0,0.0,0.0,0.0,0.0,0.0,0.0,0.0,0.0,0.0,0.0,0.0,-1.0605,-1.1355,-1.1727,-1.1751,-1.1141,-1.0491,-0.9814,-0.8857,-0.7589,0.0,0.0,0.0,0.0,0.0,0.0,0.0,0.0,0.0,0.0,0.0,0.0,0.0,0.0,0.0,0.0,0.0,0.0,0.0,0.0,0.0,0.0,0.0,0.0,0.0,0.0,0.0,0.0,0.0,0.0,0.0,0.0,0.0,0.0,0.0,0.0,0.0,0.0,0.0,0.0,0.0,0.2576,0.2191,0.2209,0.2268,0.0,0.0,0.2057,0.223,0.1689,0.0,0.0,0.0,0.0,0.0,0.0,0.0,0.0,0.0,0.0,0.0,0.0,0.0,0.0,0.0,0.0,0.0,0.0,0.0,0.0,0.0,0.0,0.0,0.0,0.0,0.0,0.0,0.0,0.0,0.0,0.0,0.0,0.0,0.0,0.0,0.0,0.0,0.0,0.0,0.0,0.0,0.0,0.0,0.0,0.0,0.0,0.0,0.0,0.0,0.0,0.0,0.0,0.0,0.0,0.0,-0.936,-1.0778,-1.1923,-1.2073,-1.1248,-1.0939,-1.0312,-0.9263,-0.8029,-0.6893,0.0,0.0,0.0,0.0,0.0,0.0,0.0,0.0,0.0,0.0,0.0,0.0,0.0,0.0,0.0,0.0,0.0,0.0,0.0,0.0,0.0,0.0,0.0,0.0,0.0,0.0,0.0,0.0,0.0,0.0,0.0,0.0,0.0,0.0,0.0,0.0,0.0,0.0,0.0,0.0,0.0,0.0,0.2394,0.1873,0.0,0.0,0.0,0.0969,0.1302,0.0,0.0,0.0,0.0,0.0,0.0,0.0,0.0,0.0,0.0,0.0,0.0,0.0,0.0,0.0,0.0,0.0,0.0,0.0,0.0,0.0,0.0,0.0,0.0,0.0,0.0,0.0,0.0,0.0,0.0,0.0,0.0,0.0,0.0,0.0,0.0,0.0,0.0,0.0,0.0,0.0,0.0,0.0,0.0,0.0,0.0,0.0,0.0,0.0,0.0,0.0,0.0,0.0,0.0,0.0,0.0,0.0,-1.1175,-1.2584,-1.2646,-1.134,-1.099,-1.0236,-0.9066,-0.7545,0.0,0.0,0.0,0.0,0.0,0.0,0.0,0.0,0.0,0.0,0.0,0.0,0.0,0.0,0.0,0.0,0.0,0.0,0.0,0.0,0.0,0.0,0.0,0.0,0.0,0.0,0.0,0.0575,0.0,0.0,0.0,0.0,0.0,0.0,0.0,0.0,0.0,0.0,0.0,0.0,0.0,0.0,0.179,0.2154,0.1196,0.0631,0.0,0.0,0.0125,0.0468,0.023,0.0125,0.0,0.0,0.0,0.0,0.0,0.0,0.0,0.0,0.0,0.0,0.0,0.0,0.0,0.0,0.0,0.0,0.0,0.0,0.0,0.0,0.0,0.0,0.0,0.0,0.0,0.0,0.0,0.0,0.0,0.0,0.0,0.0,0.0,0.0,0.0,0.0,0.0,0.0,0.0,0.0,0.0,0.0,0.0,0.0,0.0,0.0,0.0,0.0,0.0,0.0,0.0,0.0,0.0,0.0,-1.0954,-1.2175,-1.3301,-1.3467,-1.2657,-1.1449,-1.0466,-0.9729,-0.8011,-0.6637,0.0,0.0,0.0,0.0,0.0,0.0,0.0,0.0,0.0,0.0,0.0,0.0,0.0,0.0,0.0,0.0,0.0,0.0,0.0,0.0,0.0,0.0,0.0,0.0,0.0,0.0,0.0,0.0,0.0,0.0,0.0,0.0,0.0,0.0,0.0,0.0,0.0,0.0,0.0,0.0,0.0,0.0312,0.0778,-0.0105,-0.0575,0.0,0.0043,0.0021,0.0,0.0,0.0,0.0,0.0,0.0,0.0,0.0,0.0,0.0,0.0,0.0,0.0,0.0,0.0,0.0,0.0,0.0,0.0,0.0,0.0,0.0,0.0,0.0,0.0,0.0,0.0,0.0,0.0,0.0,0.0,0.0,0.0,0.0,0.0,0.0,0.0,0.0,0.0,0.0,0.0,0.0,0.0,0.0,0.0,0.0,0.0,0.0,0.0,0.0,0.0,0.0,0.0,0.0,0.0,0.0,0.0,-1.1612,-1.2607,-1.4143,-1.4259,-1.286,-1.2303,-1.1324,-0.984,-0.8459,-0.7076,0.0,0.0,0.0,0.0,0.0,0.0,0.0,0.0,0.0,0.0,0.0,0.0,0.0,0.0,0.0,0.0,0.0,0.0,0.0,0.0,0.0,0.0,0.0,0.0,0.0,0.0,0.0,0.0,0.0373,0.0551,0.0627,0.0,0.0,0.0,0.0,0.0,0.0,0.0,0.0,0.0,0.0,-0.0699,-0.045,-0.077,0.0,0.0,-0.0293,0.0,0.0,0.0,0.0,0.0,0.0382,0.0,0.0,0.0,0.0,0.0,0.0,0.0,0.0,0.0,0.0,0.0,0.0,0.0,0.0,0.0,0.0,0.0,0.0,0.0,0.0,0.0,0.0,0.0,0.0,0.0,0.0,0.0,0.0,0.0,0.0,0.0,0.0,0.0,0.0,0.0,0.0,0.0,0.0,0.0,0.0,0.0,0.0,0.0,0.0,0.0,0.0,0.0,0.0,0.0,0.0,0.0,0.0,-1.2357,-1.3366,-1.4836,-1.4948,-1.3658,-1.31,-1.2033,-1.0408,-0.8963,-0.7467,0.0,0.0,0.0,0.0,0.0,0.0,0.0,0.0,0.0,0.0,0.0,0.0,0.0,0.0,0.0,0.0,0.0,0.0,0.0,0.0,0.0,0.0,0.0,0.0,0.0,0.0,0.0,0.0,-0.0117,0.0091,0.048,0.0,0.0,0.0,0.0,0.0,0.0,0.0,0.0,0.0,0.0,-0.199,-0.1784,-0.1694,-0.1569,-0.1403,-0.0897,-0.0471,-0.0292,-0.0265,-0.0193,-0.002,0.0,0.0,0.0,0.0,0.0,0.0,0.0,0.0,0.0,0.0,0.0,0.0,0.0,0.0,0.0,0.0,0.0,0.0,0.0,0.0,0.0,0.0,0.0,0.0,0.0,0.0,0.0,-0.6493,0.0,0.0,-0.6963,0.0,0.0,0.0,0.0,0.0,0.0,0.0,0.0,0.0,0.0,0.0,0.0,0.0,0.0,0.0,0.0,0.0,0.0,0.0,0.0,0.0,0.0,-1.3139,-1.4629,-1.5299,-1.5588,-1.5465,-1.3752,-1.2439,-1.1644,-0.9608,-0.7721,-0.6048,0.0,0.0,0.0,0.0,0.0,0.0,0.0,0.0,0.0,0.0,0.0,0.0,0.0,0.0,0.0,0.0,0.0,0.0,0.0,0.0,0.0,0.0,0.0,0.0,0.0,0.0,-0.0672,-0.0928,-0.0899,0.0,0.0,0.0,0.0,0.0,0.0,0.0,0.0,0.0,-0.3101,-0.3542,-0.3633,-0.3327,-0.3029,-0.2664,-0.2095,-0.1861,-0.1542,-0.0963,-0.0901,-0.0693,0.0,0.0,0.0,0.0,0.0,0.0,0.0,0.0,0.0,0.0,0.0,0.0,0.0,0.0,0.0,0.0,0.0,0.0,0.0,0.0,0.0,0.0,0.0,0.0,0.0,0.0,0.0,-1.017,-1.0131,0.0,0.0,0.0,0.0,0.0,0.0,0.0,0.0,0.0,0.0,0.0,-1.5808,-1.5241,0.0,0.0,0.0,0.0,0.0,0.0,0.0,0.0,0.0,0.0,0.0,0.0,-1.348,-1.4983,-1.5825,-1.6008,-1.561,-1.4573,-1.3538,-1.243,-1.1136,-0.9273,-0.6846,0.0,0.0,0.0,0.0,0.0,0.0,0.0,0.0,0.0,0.0,0.0,0.0,0.0,0.0,0.0,0.0,0.0,0.0,0.0,0.0,0.0,0.0,0.0,0.0,0.0,-0.0659,0.0,0.0,0.0,0.0,0.0,0.0,0.0,0.0,0.0,0.0,0.0,-0.4152,-0.4977,-0.5363,-0.5495,-0.5372,-0.4531,-0.3821,0.0,0.0,0.0,0.0,0.0,0.0,0.0,0.0,0.0,0.0,0.0,0.0,0.0,0.0,0.323,0.3655,0.3942,0.4101,0.3975,0.0,0.0,0.0,0.0,0.0,0.0,0.0,0.0,0.0,0.0,0.0,0.0,0.0,0.0,-1.3799,-1.3927,-1.2889,0.0,0.0,0.0,0.0,0.0,0.0,0.0,0.0,-1.8241,-1.8907,-1.9202,-1.8539,-1.7928,0.0,-1.6541,-1.4885,0.0,0.0,0.0,0.0,0.0,0.0,0.0,0.0,-1.4306,-1.5805,-1.6292,-1.6315,-1.592,-1.5332,-1.4412,-1.3137,-1.1557,-0.9682,-0.7489,-0.5487,-0.4172,0.0,0.0,0.0,0.0,0.0,0.0,0.0,0.0,0.0,0.0,0.0,0.0,0.0,0.0,0.0,0.0,0.0,0.0,0.0,0.0,0.0,0.0,0.0,-0.1514,0.0,0.0,0.0,0.0,0.0,0.0,0.0,0.0,0.0,-0.6304,-0.5827,-0.5765,-0.6737,-0.6773,-0.6751,-0.6826,0.0,0.0,0.0,0.0,0.0,0.0,0.0,-0.2689,-0.2491,-0.1842,-0.1198,-0.0777,0.0174,0.0876,0.1005,0.0,0.0,0.2787,0.319,0.3353,0.3313,0.3728,0.4042,0.3905,0.4066,0.407,0.0,0.0,0.0,0.0,0.0,0.0,0.0,0.0,-1.7544,-1.7646,0.0,-1.7091,0.0,0.0,0.0,0.0,-1.6572,-1.873,0.0,0.0,-2.1982,-2.2678,-2.2161,-2.1498,-2.1209,-2.1195,-2.0931,-1.971,-1.7469,-1.3679,0.0,0.0,0.0,0.0,0.0,0.0,-1.5528,-1.7033,-1.6765,-1.6563,-1.6495,-1.5923,-1.5016,-1.3742,-1.1074,-0.9135,-0.8004,-0.7055,-0.5742,-0.4006,-0.3466,0.0,0.0,0.0,0.0,0.0,0.0,0.0,0.0,0.0,0.0,0.0,0.0,0.0,0.0,0.0,0.0,0.0,0.0,0.0,0.0,-0.2546,0.0,0.0,0.0,0.0,0.0,0.0,0.0,0.0,0.0,0.0,-0.8028,-0.7138,-0.6966,-0.822,0.0,0.0,0.0,0.0,-0.6447,-0.6417,-0.6301,-0.598,-0.5386,-0.4719,-0.4078,-0.3512,0.0,0.0,-0.1685,-0.1447,-0.1082,-0.055,-0.0336,0.024,0.1738,0.1891,0.1888,0.2048,0.2039,0.1919,0.2032,0.2322,0.2349,-2.4228,0.0,0.0,0.0,0.0,-2.1489,-2.2242,-2.3236,-2.2377,-2.1791,-2.1416,-2.0367,0.0,0.0,0.0,0.0,0.0,0.0,-2.2077,-2.2577,-2.3615,-2.4272,-2.4561,-2.3956,-2.3665,-2.3626,-2.2283,-2.1273,-2.057,-1.8112,-1.5446,-1.2638,0.0,0.0,0.0,0.0,-1.6428,-1.7647,-1.7705,-1.7526,-1.7137,-1.6513,-1.5614,-1.4457,-1.2533,-1.1334,-1.1012,-0.8852,-0.7251,-0.6408,-0.5278,0.0,0.0,0.0,0.0,0.0,0.0,0.0,0.0,0.0,0.0,0.0,0.0,0.0,0.0,0.0,0.0,0.0,0.0,0.0,-0.3513,-0.4245,-0.4807,0.0,0.0,0.0,0.0,0.0,0.0,0.0,0.0,0.0,-0.9774,-0.9074,-0.8574,0.0,0.0,-0.839,-0.8468,-0.7817,-0.7342,-0.7348,-0.686,0.0,-0.6116,-0.5917,-0.5705,-0.5544,-0.453,-0.339,-0.2245,-0.1962,-0.1894,-0.1729,-0.1661,-0.1458,-0.0997,0.0301,0.141,0.2001,0.2099,0.2092,0.2143,0.2163,0.2176,-2.925,-2.6187,-2.5228,-2.4828,-2.4856,-2.5091,-2.5856,-2.6798,-2.6075,-2.5723,-2.5561,-2.4558,-2.3267,-2.1726,-2.0784,0.0,0.0,0.0,-2.4335,-2.5204,-2.56,-2.6004,-2.6363,-2.5756,-2.5438,-2.537,-2.4028,-2.3255,-2.2989,-2.1616,-1.9372,-1.6413,0.0,0.0,-1.6099,-1.663,-1.7397,-1.8327,-1.8272,-1.8041,-1.7702,-1.6853,-1.6079,-1.5372,-1.3997,-1.296,-1.2312,-1.0678,-0.9146,-0.7843,-0.6729,-0.546,0.0,0.0,0.0,0.0,0.0,0.0,0.0,0.0,0.0,0.0,0.0,-0.1274,-0.1598,0.0,0.0,0.0,-0.3728,-0.459,-0.559,-0.6143,0.0,0.0,0.0,0.0,0.0,0.0,0.0,-1.04,-1.0562,-1.0709,-1.1019,-1.0809,-1.0257,-0.9328,-0.8962,-0.8778,-0.8778,0.0,-0.8273,-0.8148,-0.7838,-0.7566,-0.7373,-0.7119,-0.6833,-0.6519,-0.5833,-0.4894,-0.3746,-0.35,-0.3417,-0.3204,-0.3121,-0.301,-0.2702,-0.1527,-0.0416,0.0306,0.0445,0.0445,0.0473,0.0445,0.0473,-3.3215,-3.2392,-2.9325,-2.8049,-2.8049,-2.8652,-2.8921,-2.8906,-2.8861,-2.9146,-2.9621,-2.8966,-2.7964,-2.6647,-2.4822,0.0,-2.5839,-2.5884,-2.6572,-2.775,-2.7764,-2.7735,-2.7645,-2.7061,-2.6722,-2.6647,-2.5989,-2.5399,-2.482,-2.41,-2.2964,-2.1358,-1.9405,-1.8407,-1.8267,-1.8131,-1.8399,-1.9051,-1.8578,-1.8293,-1.8267,-1.7094,-1.65,-1.6465,-1.5372,-1.4043,-1.2587,-1.2344,-1.1138,-0.8735,-0.7928,-0.689,-0.5459,0.0,0.0,0.0,0.0,0.0,0.0,0.0,0.0,0.0,0.0,0.0,0.0,0.0,0.0,0.0,-0.599,0.0,-0.7903,-0.8096,0.0,0.0,0.0,-0.9422,-0.9768,-1.0478,-1.0966,-1.1055,0.0,0.0,-1.199,-1.2289,-1.1939,-1.0291,-0.9432,-0.8977,-0.8951,-0.9112,-0.9118,-0.8838,-0.9011,-0.905,-0.8659,-0.8157,-0.754,-0.6891,-0.6696,-0.6362,-0.5678,-0.5511,-0.5296,-0.4622,-0.457,-0.4319,-0.3539,-0.3312,-0.3178,-0.2425,-0.2174,-0.212,-0.198,-0.1952,-0.1924,-3.4189,-3.3888,-3.2632,-3.1809,-3.136,-3.1509,-3.1584,-3.1554,-3.1017,-3.0614,-3.0238,-2.9609,-2.8891,-2.8098,-2.7619,-2.759,-2.7904,-2.8412,-2.8801,-2.9127,-2.9127,-2.8846,-2.8368,-2.8203,-2.7844,-2.7345,-2.6662,-2.6299,-2.6109,-2.5,-2.4255,-2.3808,-2.2843,-2.1189,-1.8967,-1.8806,-1.9029,-1.9598,-1.9472,-1.9221,-1.8795,-1.7725,-1.7146,-1.7146,-1.602,-1.4982,-1.4144,-1.2848,-1.1559,-1.0286,-0.9253,-0.8193,-0.7101,-0.6304,0.0,0.0,0.0,0.0,0.0,0.0,0.0,0.0,0.0,-0.4627,-0.4141,0.0,-0.5815,0.0,-0.8138,-0.9104,-0.9649,-0.9744,0.0,0.0,-1.0195,-1.0448,-1.1482,-1.1484,-1.1692,-1.2344,-1.2881,-1.3206,-1.3221,-1.3061,-1.2806,-1.235,-1.1217,-1.0401,-1.0401,-0.9674,-0.9163,-0.9118,-0.8991,-0.8858,-0.8798,-0.8672,-0.8262,-0.7557,-0.7429,-0.7182,-0.6448,-0.634,-0.6091,-0.5437,-0.5246,-0.4972,-0.4374,-0.4211,-0.4181,-0.3901,-0.3037,-0.2204,-0.2204,-0.2204,-0.2204,-3.4936,-3.4906,-3.4532,-3.4173,-3.3799,-3.3215,-3.2946,-3.2916,-3.2557,-3.2183,-3.1794,-3.1165,-3.0342,-2.9475,-2.9445,-2.9445,-2.9475,-2.9834,-2.9998,-2.9998,-2.9998,-2.9654,-2.9026,-2.8742,-2.8412,-2.8049,-2.7375,-2.7046,-2.6991,-2.6041,-2.5546,-2.5521,-2.4611,-2.3305,-2.1633,-2.0981,-2.0519,-2.0245,-1.994,-1.9673,-1.9346,-1.8543,-1.799,-1.7739,-1.6882,-1.5996,-1.513,-1.3938,-1.2846,-1.1892,-1.0811,-0.9802,-0.894,-0.8233,-0.7601,0.0,0.0,0.0,0.0,0.0,0.0,0.0,0.0,0.0,0.0,0.0,-0.8531,-0.9281,-1.0123,-1.0825,-1.1247,-1.1192,-1.1396,-1.1969,-1.1699,-1.1865,-1.2934,-1.2695,-1.2686,-1.3359,-1.3643,-1.387,-1.416,-1.4,-1.3932,-1.4073,-1.3109,-1.2007,-1.1058,-1.0355,-0.9841,-0.9482,-0.9164,-0.8918,-0.8805,-0.8778,-0.8666,-0.8289,-0.8182,-0.7937,-0.7235,-0.7101,-0.6853,-0.6172,-0.5982,-0.59,-0.5523,-0.5418,-0.5418,-0.5277,-0.4498,-0.3641,-0.3287,-0.3234,-0.3234,-3.5489,-3.5489,-3.5489,-3.5489,-3.5415,-3.4247,-3.3709,-3.3619,-3.3619,-3.3574,-3.3455,-3.2901,-3.1928,-3.0776,-3.0761,-3.0702,-3.0642,-3.0627,-3.0642,-3.0642,-3.0642,-3.0313,-2.9711,-2.9116,-2.8801,-2.8697,-2.8064,-2.7735,-2.7705,-2.7036,-2.6731,-2.6692,-2.5624,-2.5043,-2.4892,-2.3783,-2.2454,-2.0952,-2.0258,-1.9901,-1.9798,-1.9271,-1.8732,-1.8216,-1.7664,-1.6819,-1.5644,-1.5112,-1.4364,-1.3352,-1.2342,-1.1531,-1.0895,-1.0171,-0.9787,0.0,-0.9886,0.0,0.0,0.0,0.0,0.0,0.0,0.0,0.0,-1.1201,-1.1425,-1.1705,-1.2064,-1.2444,-1.284,-1.2691,-1.2884,-1.3619,-1.3337,-1.334,-1.3997,-1.3773,-1.374,-1.4104,-1.4172,-1.4375,-1.4785,-1.4863,-1.5019,-1.5196,-1.4681,-1.3556,-1.1828,-1.1262,-1.0896,-1.0133,-0.9791,-0.9693,-0.9399,-0.9235,-0.9169,-0.9002,-0.8929,-0.8666,-0.7963,-0.7836,-0.7616,-0.6939,-0.675,-0.6696,-0.6615,-0.6561,-0.6561,-0.648,-0.5842,-0.5187,-0.4701,-0.4405,-0.4491,-3.5489,-3.5489,-3.5489,-3.5489,-3.5489,-3.5235,-3.4801,-3.4324,-3.4309,-3.4024,-3.3484,-3.335,-3.2886,-3.2153,-3.2108,-3.1839,-3.1316,-3.1316,-3.1316,-3.1301,-3.1316,-3.0943,-3.0342,-3.0193,-2.9879,-2.937,-2.8727,-2.8412,-2.8397,-2.7735,-2.7405,-2.7405,-2.7185,-2.6768,-2.6262,0.0,0.0,0.0,-2.0958,-2.0359,-1.9811,-1.9296,-1.8732,-1.8216,-1.7677,0.0,-1.5666,-1.5186,-1.4643,-1.3964,-1.3374,0.0,0.0,0.0,0.0,0.0,0.0,0.0,0.0,0.0,0.0,0.0,-1.413,-1.3619,-1.2074,-1.2862,-1.3376,-1.3106,-1.4114,-1.4841,-1.4918,-1.4743,-1.4691,-1.4821,-1.4292,-1.3938,-1.4094,-1.4062,-1.4114,-1.4471,-1.4608,-1.4814,-1.5195,-1.5293,-1.5312,-1.5391,-1.5284,-1.4749,-1.3703,-1.2785,-1.222,-1.2051,-1.1595,-1.1359,-1.1051,-1.0907,-1.0483,-0.9929,-0.9614,-0.9328,-0.8738,-0.8586,-0.8342,-0.7637,-0.7477,-0.7295,-0.6777,-0.6588,-0.6696,-0.6615,-0.6036,-0.5456,-0.5328,-0.4866,-0.4491,-3.5804,-3.5504,-3.5489,-3.5489,0.0,-3.5489,-3.531,-3.4966,-3.4981,-3.4607,-3.3993,-3.3978,-3.3619,-3.3006,-3.3006,-3.2632,-3.1989,-3.1989,-3.1809,-3.1511,-3.1496,-3.1316,-3.0987,-3.0657,-3.0328,-2.9998,-2.9071,-2.8592,-2.8562,-2.7929,-2.7585,-2.7585,-2.7585,-2.7435,-2.7091,-2.6752,-2.5492,-2.3256,-2.1965,-2.1116,-2.0759,-1.9877,-1.9133,-1.8594,-1.8078,0.0,0.0,0.0,0.0,0.0,0.0,0.0,0.0,0.0,0.0,-1.3869,-1.3927,-1.4176,-1.4621,-1.4913,-1.5371,-1.6057,-1.6609,-1.643,-1.5177,-1.5728,-1.6021,-1.5792,-1.6185,-1.6392,-1.6368,-1.602,-1.5884,-1.604,-1.5577,-1.5374,-1.5737,-1.5652,-1.555,-1.5528,-1.5604,-1.5604,-1.541,-1.542,-1.542,-1.542,-1.542,-1.5264,-1.4807,-1.387,-1.3067,-1.2478,-1.2172,-1.1964,-1.1783,-1.1389,-1.1143,-1.0671,-1.0456,-1.0028,-0.9413,-0.9283,-0.9047,-0.8415,-0.8235,-0.8103,-0.7803,-0.7696,-0.767,-0.7616,-0.7095,-0.6443,-0.6118,-0.5226,-0.4491,-3.6267,-3.5684,-3.5684,-3.5609,-3.5489,-3.5489,-3.5489,-3.5489,-3.5489,0.0,0.0,-3.4683,-3.4324,-3.3679,-3.3679,-3.3305,-3.2691,-3.2527,-3.2198,-3.1675,-3.1555,-3.1496,-3.1481,-3.0928,-3.0687,-3.0627,-2.949,-2.8876,-2.8757,-2.8109,-2.772,-2.76,-2.7585,-2.7585,-2.7555,-2.7061,-2.6263,-2.5199,-2.3286,-2.2195,-2.1947,-2.0784,-1.9826,-1.9181,-1.8629,-1.8091,-1.7561,-1.6635,-1.6132,-1.612,-1.5726,-1.5475,-1.5475,-1.5475,-1.5655,-1.612,-1.6538,-1.7024,-1.7524,-1.7953,-1.8242,-1.8342,-1.8342,-1.8317,-1.8216,-1.8204,-1.8204,-1.8204,-1.7848,-1.7605,-1.7605,-1.7145,-1.6923,-1.7258,-1.6899,-1.6871,-1.7476,-1.7324,-1.6927,-1.6736,-1.6687,-1.6482,-1.594,-1.5853,-1.5719,-1.5642,-1.5671,-1.5526,-1.5313,-1.4629,-1.3844,-1.31,-1.2926,-1.2645,-1.25,-1.2042,-1.1533,-1.1616,-1.1276,-1.0703,-1.0038,-0.9795,-0.9536,-0.8857,-0.8804,-0.8752,-0.8778,-0.8699,-0.8778,-0.8778,-0.8215,-0.7536,-0.6853,-0.566,-0.4677,-3.6911,-3.6342,-3.6357,-3.6028,-3.5489,-3.5489,-3.5489,-3.5489,-3.5489,-3.5444,-3.537,-3.537,-3.4966,-3.4369,-3.4369,-3.3963,-3.3335,-3.2766,-3.2437,-3.2318,-3.1765,-3.1496,-3.1496,-3.1406,-3.1361,-3.1301,-3.0597,-2.9953,-2.9415,-2.8771,-2.8158,-2.766,-2.7585,-2.7585,-2.7585,-2.751,-2.7355,-2.716,-2.528,-2.3724,-2.2589,-2.1892,-2.097,-1.9898,-1.9239,-1.8632,-1.8103,-1.7938,-1.7852,-1.784,-1.7777,-1.7739,-1.7727,-1.7725,-1.7765,-1.784,-1.7915,-1.8016,-1.8091,-1.8166,-1.8417,-1.8832,-1.8895,-1.8694,-1.8254,-1.8204,-1.8204,-1.8229,-1.8522,-1.8747,-1.8759,-1.8485,-1.8333,-1.8413,-1.7844,-1.7499,-1.7677,-1.7648,-1.7548,-1.7457,-1.744,-1.7413,-1.7208,-1.7191,-1.694,-1.651,-1.6265,-1.6093,-1.5517,-1.5284,-1.5129,-1.4975,-1.4926,-1.4783,-1.4288,-1.398,-1.3204,-1.2446,-1.1985,-1.1292,-1.0167,-0.9917,-0.9666,-0.8936,-0.8831,-0.8778,-0.8778,-0.8778,-0.8778,-0.8752,-0.8235,-0.7696,-0.7482,-0.6308,-0.5164,-3.7569,-3.6971,-3.6626,-3.6312,-3.6013,-3.5669,-3.5489,-3.5489,-3.5489,-3.5489,-3.5489,-3.5489,-3.534,-3.5055,-3.504,-3.4666,-3.3993,-3.335,-3.2856,-3.2452,-3.1809,-3.1496,-3.1496,-3.1496,-3.1496,-3.1451,-3.0836,-3.0357,-3.0043,-2.9445,-2.8786,-2.8154,-2.7779,-2.7585,-2.7585,-2.7585,-2.7585,-2.7585,-2.6019,-2.4891,-2.4266,-2.3324,-2.2394,-2.1488,-2.0571,-1.9749,-1.9182,-1.8846,-1.8678,-1.8678,-1.9021,-1.9225,-1.9225,-1.9239,-1.9067,-1.8714,-1.9011,-1.9015,-1.8643,-1.8907,-1.9171,-1.9409,-1.9447,-1.9346,-1.9095,-1.907,-1.9058,-1.907,-1.9321,-1.9409,-1.9421,-1.9365,-1.9281,-1.9293,-1.898,-1.8794,-1.8794,-1.8806,-1.8635,-1.8274,-1.8194,-1.8031,-1.766,-1.7605,-1.7523,-1.7118,-1.6821,-1.6236,-1.5526,-1.542,-1.542,-1.54,-1.5234,-1.5127,-1.5068,-1.4523,-1.3941,-1.34,-1.3006,-1.2246,-1.1108,-1.0636,-1.009,-0.9465,-0.9087,-0.8831,-0.8778,-0.8778,-0.8778,-0.8778,-0.8586,-0.8209,-0.7691,-0.6524,-0.5355,-3.8242,-3.7584,-3.7105,-3.6761,-3.6462,-3.5938,-3.5639,-3.5504,-3.5489,-3.5489,-3.5489,-3.5489,-3.5489,-3.5489,-3.5489,-3.522,-3.4666,-3.4008,-3.3365,-3.2706,-3.2019,-3.1645,-3.1525,-3.1496,-3.1496,-3.1451,-3.0986,-3.0672,-3.0462,-3.0056,-2.9385,-2.8622,-2.7929,-2.7585,-2.7585,-2.7585,-2.7585,-2.753,-2.6585,-2.5981,-2.581,-2.4725,-2.3834,-2.3105,-2.1942,-2.1075,-2.0609,-2.002,-1.9617,-1.9515,-2.012,-2.0343,-2.0053,-2.0178,-1.9962,-1.9406,-1.9693,-1.9725,-1.9271,-1.9572,-1.9798,-1.9798,-1.9798,-1.9798,-1.9798,-1.9798,-1.9798,-1.9798,-1.9773,-1.9786,-1.9773,-1.9798,-1.9798,-1.9798,-1.9798,-1.9721,-1.9798,-1.9798,-1.9618,-1.9044,-1.8953,-1.8715,-1.8248,-1.8085,-1.8058,-1.7813,-1.709,-1.6255,-1.5748,-1.5526,-1.542,-1.5352,-1.5127,-1.5078,-1.5322,-1.4795,-1.428,-1.4153,-1.3717,-1.2906,-1.1959,-1.1191,-1.0568,-0.9865,-0.9211,-0.8857,-0.8778,-0.8778,-0.8778,-0.8778,-0.8725,-0.8533,-0.7803,-0.6907,-0.5737,-3.8916,-3.8332,-3.8197,-3.7539,-3.6537,-3.6417,-3.6058,-3.5564,-3.5504,-3.5489,-3.5489,-3.5489,-3.5489,-3.5489,-3.5489,-3.5444,-3.531,-3.4696,-3.4039,-3.335,-3.2736,-3.2079,-3.1525,-3.1496,-3.1496,-3.1496,-3.1406,-3.1062,-3.0582,-3.0417,-2.9789,-2.8652,-2.7929,-2.7585,-2.7585,-2.7585,-2.7585,-2.7585,-2.7475,-2.7111,-2.6519,-2.5802,-2.5128,-2.4533,-2.3231,-2.2528,-2.2376,-2.1828,-2.1213,-2.076,-2.1233,-2.1056,-2.0102,-2.0427,-2.0451,-1.9813,-1.9813,-1.9787,-1.9723,-1.9773,-1.9798,-1.9798,-1.9798,-1.9798,-1.9798,-1.9798,-1.9798,-1.9798,-1.9798,-1.9798,-1.9798,-1.9798,-1.9798,-1.9798,-1.9798,-1.9798,-1.9798,-1.9798,-1.9773,-1.9721,-1.9605,-1.9669,-1.9449,-1.9423,-1.9228,-1.8555,-1.7523,-1.6624,-1.6283,-1.5835,-1.5468,-1.5439,-1.5361,-1.5352,-1.5361,-1.5049,-1.4561,-1.4172,-1.3779,-1.3062,-1.2152,-1.1341,-1.061,-1.0287,-0.9335,-0.8936,-0.8857,-0.8778,-0.8778,-0.8778,-0.8752,-0.8593,-0.7916,-0.7509,-0.6853,-3.926,-3.8975,-3.8571,-3.7868,-3.7045,-3.6656,-3.6342,-3.6058,-3.5669,-3.5489,-3.5489,-3.5489,-3.5489,-3.5489,-3.5489,-3.5489,-3.5444,-3.4833,-3.4128,-3.3469,-3.2811,-3.2138,-3.1555,-3.1496,-3.1496,-3.1496,-3.1496,-3.1346,-3.0987,-3.0342,-2.9699,-2.9116,-2.8139,-2.76,-2.7585,-2.7585,-2.7585,-2.7585,-2.7585,-2.7465,-2.7215,-2.6931,-2.648,-2.5825,-2.4947,-2.4046,-2.3368,-2.3027,-2.2588,-2.2016,-2.2492,-2.2569,-2.2072,-2.196,-2.1619,-2.0939,-2.0207,-1.9798,-1.9798,-1.9798,-1.9798,-1.9798,-1.9798,-1.9798,-1.9798,-1.9798,-1.9798,-1.9798,-1.9798,-1.9798,-1.9798,-1.9798,-1.9798,-1.9798,-1.9798,-1.9798,-1.9798,-1.9798,-1.9798,-1.9798,-1.9798,-1.9798,-1.9798,-1.9798,-1.9475,-1.8847,-1.8085,-1.7523,-1.6708,-1.6236,-1.5892,-1.5526,-1.542,-1.542,-1.5381,-1.5068,-1.4639,-1.4182,-1.3753,-1.3173,-1.2575,-1.1857,-1.1266,-1.099,-1.0012,-0.9413,-0.9439,-0.9008,-0.8778,-0.8778,-0.8778,-0.8672,-0.8401,-0.799,-0.7257,-3.9388,-3.9298,-3.8871,-3.8302,-3.7644,-3.721,-3.6806,-3.6447,-3.5983,-3.5669,-3.5504,-3.5489,-3.5489,-3.5489,-3.5489,-3.5489,-3.5429,-3.4981,-3.4397,-3.3739,-3.308,-3.2407,-3.1809,-3.157,-3.1496,-3.1496,-3.1496,-3.1496,-3.1376,-3.0417,-2.9786,-2.9472,-2.8438,-2.7779,-2.7615,-2.7585,-2.7585,-2.7585,-2.7585,-2.7585,-2.7585,-2.7585,-2.7285,-2.6589,-2.5977,-2.5074,-2.3949,-2.3578,-2.3279,-2.2946,-2.3214,-2.3452,-2.3582,-2.3002,-2.2296,-2.1461,-2.041,-1.9798,-1.9798,-1.9798,-1.9798,-1.9798,-1.9798,-1.9798,-1.9798,-1.9798,-1.9798,-1.9798,-1.9798,-1.9798,-1.9798,-1.9798,-1.9798,-1.9798,-1.9798,-1.9798,-1.9798,-1.9798,-1.9798,-1.9798,-1.9798,-1.9798,-1.9798,-1.9798,-1.9579,-1.915,-1.8821,-1.8274,-1.7079,-1.6624,-1.6236,-1.5555,-1.542,-1.542,-1.5391,-1.5205,-1.4728,-1.4231,-1.3821,-1.3535,-1.2978,-1.2255,-1.1789,-1.1316,-1.0466,-0.9865,-0.964,-0.9237,-0.8804,-0.8804,-0.8778,-0.8778,-0.8699,-0.8289,-0.7777,-3.9388,-3.9409,-3.9358,-3.896,-3.8347,-3.8272,-3.7584,-3.6552,-3.6432,-3.6088,-3.5549,-3.5489,-3.5489,-3.5489,-3.5489,-3.5489,-3.5489,-3.5429,-3.5026,-3.4384,-3.3754,-3.311,-3.2422,-3.1809,-3.1511,-3.1511,-3.1496,-3.1496,-3.1451,-3.0791,-3.0163,-2.9606,-2.8861,-2.8244,-2.7735,-2.7615,-2.7585,-2.7524,-2.7509,-2.7575,-2.756,-2.756,-2.7214,-2.6538,-2.5888,-2.5194,-2.4328,-2.3257,-2.2937,-2.3529,-2.3079,-2.3069,-2.3571,-2.3023,-2.2109,-2.0936,-2.0203,-1.9836,-1.9836,-1.9886,-1.9874,-1.9836,-1.9874,-1.9823,-1.9886,-1.9823,-1.9798,-1.9798,-1.9798,-1.9798,-1.9798,-1.9798,-1.9798,-1.9798,-1.9798,-1.9798,-1.9836,-1.9886,-1.9811,-1.9836,-1.9823,-1.9798,-1.9798,-1.9798,-1.9836,-1.9604,-1.915,-1.8459,-1.7704,-1.7006,-1.6312,-1.5719,-1.5468,-1.542,-1.5381,-1.5225,-1.4893,-1.4416,-1.4036,-1.3782,-1.3036,-1.2369,-1.2089,-1.1641,-1.0788,-1.0167,-0.9814,-0.9413,-0.9008,-0.8831,-0.8804,-0.8778,-0.8778,-0.8778,-0.8321,-3.9388,-3.9388,-3.9388,-3.9275,-3.902,-3.8586,-3.7883,-3.706,-3.6641,-3.6118,-3.5564,-3.5489,-3.5489,-3.5489,-3.5489,-3.5489,-3.5489,-3.5489,-3.513,-3.4533,-3.4264,-3.3559,-3.2557,-3.2228,-3.1899,-3.154,-3.1496,-3.1496,-3.1421,-3.0836,-3.0402,-3.0028,-2.9101,-2.8472,-2.8188,-2.7824,-2.7382,-2.693,-2.6904,-2.6904,-2.6904,-2.6904,-2.6747,-2.6496,-2.6254,-2.5595,-2.4432,-2.3964,-2.3689,-2.3511,-2.3245,-2.3466,-2.406,-2.3596,-2.264,-2.1373,-2.1004,-2.0754,-2.049,-2.069,-2.0727,-2.0415,-2.0377,-2.0377,-2.0302,-2.0024,-1.9798,-1.9811,-1.9811,-1.9798,-1.9798,-1.9798,-1.9798,-1.9798,-1.9811,-1.9949,-2.0289,-2.039,-2.039,-2.0327,-2.0075,-1.9798,-1.9911,-2.0125,-2.0226,-1.9885,-1.9863,-1.9424,-1.8491,-1.7688,-1.6894,-1.6226,-1.5729,-1.542,-1.542,-1.5146,-1.4834,-1.4521,-1.4189,-1.3773,-1.3169,-1.2835,-1.2537,-1.2395,-1.1511,-1.0864,-1.0618,-0.9891,-0.9413,-0.8929,-0.8877,-0.8778,-0.8778,-0.8778,-0.8454,-3.9388,-3.9388,-3.9388,-3.9388,-3.9328,-3.8916,-3.8347,-3.7689,-3.7045,-3.6417,-3.5863,-3.5609,-3.5489,-3.5489,-3.5489,-3.5489,-3.5489,-3.5489,-3.525,-3.4833,-3.4608,-3.3919,-3.2946,-3.2617,-3.2138,-3.1585,-3.1496,-3.1496,-3.1451,-3.1032,-3.0731,-3.0432,-2.9594,-2.8981,-2.8592,-2.8154,-2.7465,-2.67,-2.6496,-2.6496,-2.6484,-2.627,-2.6149,-2.6095,-2.5919,-2.5383,-2.4395,-2.4133,-2.3931,-2.3676,-2.331,-2.3385,-2.3993,-2.3734,-2.3004,-2.1929,-2.1581,-2.137,-2.1069,-2.132,-2.1358,-2.1006,-2.0955,-2.0955,-2.093,-2.0577,-2.0313,-2.015,-2.0075,-2.0037,-1.9849,-1.9798,-1.9798,-1.9798,-1.9798,-2.0037,-2.0603,-2.0679,-2.0679,-2.0616,-2.0377,-2.0125,-2.0125,-2.0439,-2.0526,-2.0338,-2.0603,-2.0172,-1.918,-1.8177,-1.733,-1.6624,-1.5845,-1.5497,-1.542,-1.5254,-1.499,-1.4678,-1.4492,-1.4033,-1.3633,-1.332,-1.3061,-1.2923,-1.2531,-1.1909,-1.1241,-1.0466,-0.984,-0.923,-0.8903,-0.8778,-0.8778,-0.8778,-0.8507,-3.9388,-3.9388,-3.9388,-3.9388,-3.9373,-3.9313,-3.8975,-3.8272,-3.7689,-3.7075,-3.6462,-3.5848,-3.5624,-3.5549,-3.5549,-3.5489,-3.5489,-3.5489,-3.5474,-3.5355,-3.4831,-3.4203,-3.3484,-3.2886,-3.2198,-3.154,-3.1496,-3.1496,-3.1481,-3.1406,-3.1122,-3.0642,-3.0462,-2.9774,-2.8667,-2.8513,-2.7786,-2.6765,-2.6367,-2.6336,-2.639,-2.5728,-2.5439,-2.5398,-2.4838,-2.4467,-2.4297,-2.3568,-2.3487,-2.3953,-2.3127,-2.2744,-2.3314,-2.3436,-2.3087,-2.2407,-2.1845,-2.1556,-2.1493,-2.1581,-2.1669,-2.1493,-2.1493,-2.1521,-2.1481,-2.1393,-2.1117,-2.0691,-2.0641,-2.0503,-1.9999,-1.9949,-1.9911,-1.9798,-1.9798,-2.0049,-2.0578,-2.0742,-2.0717,-2.0754,-2.0704,-2.0704,-2.0691,-2.0842,-2.1018,-2.1154,-2.1004,-2.054,-1.9694,-1.8592,-1.7446,-1.6669,-1.6093,-1.57,-1.5526,-1.5381,-1.5146,-1.4912,-1.4766,-1.4492,-1.4104,-1.3809,-1.3467,-1.3249,-1.2698,-1.2092,-1.1466,-1.0745,-1.0244,-0.9684,-0.9283,-0.8883,-0.8778,-0.8778,-0.8778,-3.9388,-3.9388,-3.9388,-3.9388,-3.9388,-3.9388,-3.9035,-3.8407,-3.8153,-3.7734,-3.709,-3.6462,-3.6178,-3.6058,-3.5729,-3.5489,-3.5489,-3.5489,-3.5489,-3.5444,-3.5265,-3.4801,-3.4128,-3.3469,-3.2602,-3.166,-3.1496,-3.1496,-3.1496,-3.1496,-3.1376,-3.1152,-3.0731,-3.0328,-2.9806,-2.8569,-2.7344,-2.6455,-2.5465,-2.4992,-2.4979,-2.4766,-2.4879,-2.5287,-2.4824,-2.4454,-2.4263,-2.3543,-2.3245,-2.3501,-2.3123,-2.2979,-2.3207,-2.3699,-2.3641,-2.2951,-2.2706,-2.2422,-2.2159,-2.2355,-2.238,-2.2159,-2.2058,-2.2058,-2.1995,-2.1719,-2.1305,-2.0867,-2.1018,-2.1031,-2.0616,-2.0752,-2.0602,-1.9899,-1.9811,-2.025,-2.1091,-2.1556,-2.1581,-2.1305,-2.123,-2.1257,-2.1333,-2.1468,-2.1656,-2.1543,-2.1383,-2.0966,-2.0326,-1.911,-1.8135,-1.7385,-1.6669,-1.5931,-1.5729,-1.5526,-1.5293,-1.5117,-1.5,-1.4912,-1.459,-1.4221,-1.389,-1.3497,-1.2918,-1.242,-1.1772,-1.1217,-1.0794,-1.0164,-0.9714,-0.933,-0.891,-0.8804,-0.8804,-3.9388,-3.9388,-3.9388,-3.9388,-3.9388,-3.9388,-3.9149,-3.8751,-3.8482,-3.8153,-3.7659,-3.6851,-3.6492,-3.6357,-3.5804,-3.5504,-3.5489,-3.5489,-3.5489,-3.5489,-3.5489,-3.513,-3.4444,-3.3529,-3.2766,-3.1974,-3.1615,-3.1496,-3.1496,-3.1496,-3.1496,-3.1391,-3.1062,-3.0731,-3.0393,-2.898,-2.7698,-2.6657,-2.534,-2.458,-2.4498,-2.4106,-2.4221,-2.4781,-2.4381,-2.4005,-2.3826,-2.3365,-2.3095,-2.3095,-2.3095,-2.3095,-2.3168,-2.356,-2.3619,-2.3245,-2.3083,-2.2932,-2.2669,-2.2882,-2.2982,-2.2656,-2.2594,-2.2594,-2.2531,-2.2246,-2.187,-2.1496,-2.1594,-2.1581,-2.1182,-2.127,-2.1117,-2.0539,-2.0464,-2.084,-2.1681,-2.2284,-2.2322,-2.1958,-2.1807,-2.1794,-2.1895,-2.202,-2.2284,-2.2071,-2.1744,-2.143,-2.0727,-1.9369,-1.8526,-1.7644,-1.6698,-1.614,-1.5892,-1.5671,-1.5449,-1.5312,-1.5205,-1.5146,-1.499,-1.4611,-1.427,-1.3938,-1.3449,-1.3378,-1.2837,-1.222,-1.1704,-1.0985,-1.0317,-0.9681,-0.9263,-0.891,-0.8858,-3.9388,-3.9388,-3.9388,-3.9388,-3.9388,-3.9388,-3.9358,-3.9275,-3.8781,-3.8482,-3.8197,-3.7285,-3.6656,-3.6447,-3.5968,-3.5624,-3.5504,-3.5489,-3.5489,-3.5489,-3.5459,-3.5145,-3.4397,-3.3335,-3.2662,-3.2348,-3.1795,-3.1511,-3.1496,-3.1496,-3.1496,-3.1481,-3.1421,-3.1124,-3.0375,-2.9624,-2.8375,-2.7042,-2.5721,-2.5035,-2.4936,-2.3914,-2.3573,-2.4255,-2.3616,-2.3215,-2.3215,-2.3125,-2.3095,-2.3095,-2.3095,-2.3095,-2.3095,-2.3095,-2.3155,-2.3095,-2.3095,-2.3095,-2.3083,-2.307,-2.3083,-2.3032,-2.3007,-2.3095,-2.2995,-2.2907,-2.2656,-2.2196,-2.2243,-2.2121,-2.1681,-2.1681,-2.1644,-2.1594,-2.1481,-2.1707,-2.2184,-2.2681,-2.2694,-2.2343,-2.2284,-2.2359,-2.2359,-2.238,-2.2581,-2.2669,-2.2184,-2.1681,-2.1036,-1.9854,-1.8538,-1.7628,-1.6894,-1.6368,-1.6093,-1.5642,-1.5439,-1.5391,-1.5312,-1.5293,-1.5234,-1.4912,-1.4648,-1.4289,-1.4046,-1.4038,-1.3826,-1.3116,-1.2638,-1.214,-1.1313,-1.0298,-0.975,-0.9494,-0.9207,-3.9388,-3.9388,-3.9388,-3.9388,-3.9388,-3.9388,-3.9388,-3.9373,-3.9194,-3.9095,-3.8931,-3.8272,-3.7569,-3.712,-3.6507,-3.5983,-3.5624,-3.5504,-3.5489,-3.5489,-3.5489,-3.5115,-3.4488,-3.3649,-3.2976,-3.2497,-3.1899,-3.1496,-3.1496,-3.1496,-3.1467,-3.1496,-3.1423,-3.1072,-3.0323,-2.9102,-2.8019,-2.6934,-2.5599,-2.49,-2.4779,-2.4198,-2.3871,-2.3943,-2.3455,-2.3133,-2.3108,-2.3095,-2.3095,-2.3095,-2.3095,-2.3095,-2.3095,-2.3095,-2.3095,-2.3095,-2.3095,-2.3095,-2.3095,-2.3095,-2.3095,-2.3095,-2.3095,-2.3095,-2.3095,-2.3095,-2.2832,-2.2493,-2.2606,-2.2644,-2.2284,-2.2406,-2.2594,-2.2619,-2.2322,-2.202,-2.2008,-2.2493,-2.2844,-2.228,-2.2569,-2.2794,-2.2832,-2.2844,-2.2907,-2.2932,-2.2535,-2.192,-2.1322,-2.0329,-1.9054,-1.8223,-1.7479,-1.681,-1.6226,-1.5748,-1.5468,-1.541,-1.5391,-1.5381,-1.5264,-1.5039,-1.4834,-1.4619,-1.4387,-1.4321,-1.4165,-1.3772,-1.3451,-1.313,-1.2511,-1.1653,-1.0884,-1.0437,-0.9988,-3.9388,-3.9388,-3.9388,-3.9388,-3.9388,-3.9388,-3.9388,-3.9388,-3.9388,-3.9388,-3.9239,-3.8706,-3.8182,-3.7749,-3.6881,-3.6312,-3.5923,-3.5639,-3.5504,-3.5489,-3.5489,-3.5265,-3.4816,-3.4218,-3.3559,-3.2916,-3.2228,-3.178,-3.154,-3.1496,-3.1322,-3.1029,-3.0999,-3.0539,-2.9709,-2.8636,-2.7754,-2.7097,-2.587,-2.5146,-2.5109,-2.4619,-2.4217,-2.4029,-2.3609,-2.3396,-2.3158,-2.3095,-2.3095,-2.3095,-2.3095,-2.3095,-2.3095,-2.3095,-2.3095,-2.3095,-2.3095,-2.3095,-2.3095,-2.3095,-2.3095,-2.3095,-2.3095,-2.3095,-2.3095,-2.3095,-2.292,-2.2757,-2.2957,-2.2907,-2.2769,-2.2932,-2.307,-2.302,-2.2819,-2.2493,-2.2184,-2.2744,-2.2869,-2.2706,-2.2819,-2.3095,-2.3095,-2.3095,-2.3095,-2.2995,-2.2606,-2.2221,-2.1784,-2.0689,-1.9805,-1.912,-1.8139,-1.7342,-1.6733,-1.6216,-1.5575,-1.5468,-1.542,-1.542,-1.5332,-1.5176,-1.5117,-1.4961,-1.4775,-1.4611,-1.4533,-1.4445,-1.4241,-1.3901,-1.3497,-1.2821,-1.1885,-1.1222,-1.0769,-3.9388,-3.9388,-3.9388,-3.9388,-3.9388,-3.9388,-3.9388,-3.9388,-3.9388,-3.9388,-3.9305,-3.8766,-3.8482,-3.8317,-3.718,-3.6552,-3.6417,-3.5774,-3.5549,-3.5489,-3.5489,-3.5429,-3.5325,-3.4666,-3.4008,-3.338,-3.2811,-3.2123,-3.1645,-3.1496,-3.1058,-3.0614,-3.0404,-2.9766,-2.8957,-2.8063,-2.7703,-2.7274,-2.6314,-2.5732,-2.5598,-2.5172,-2.4745,-2.4393,-2.4004,-2.3684,-2.3346,-2.317,-2.3095,-2.3095,-2.3095,-2.3095,-2.3095,-2.3095,-2.3095,-2.3095,-2.3095,-2.3095,-2.3095,-2.3095,-2.3095,-2.3095,-2.3095,-2.3095,-2.3095,-2.3095,-2.307,-2.3007,-2.3095,-2.307,-2.3045,-2.3095,-2.3095,-2.3095,-2.307,-2.3083,-2.3095,-2.3095,-2.3095,-2.3095,-2.3095,-2.3095,-2.3095,-2.3095,-2.3095,-2.3083,-2.2732,-2.2468,-2.1894,-2.0822,-2.0427,-2.0293,-1.916,-1.7888,-1.7329,-1.6782,-1.6026,-1.5517,-1.5439,-1.542,-1.542,-1.5342,-1.5371,-1.5293,-1.5088,-1.5068,-1.5118,-1.502,-1.4855,-1.4665,-1.427,-1.3374,-1.2431,-1.1957,-1.1483,-3.9388,-3.9388,-3.9388,-3.9388,-3.9388,-3.9388,-3.9388,-3.9388,-3.9388,-3.9388,-3.9343,-3.9209,-3.8886,-3.8377,-3.7554,-3.6971,-3.6477,-3.5863,-3.5504,-3.5489,-3.5489,-3.5489,-3.537,-3.4831,-3.4158,-3.3529,-3.2841,-3.2153,-3.1646,-3.138,-3.1058,-3.0329,-2.9964,-2.9518,-2.8117,-2.7769,-2.7364,-2.6858,-2.6391,-2.626,-2.616,-2.5711,-2.5347,-2.5096,-2.4431,-2.3979,-2.3766,-2.3346,-2.312,-2.3095,-2.3095,-2.3095,-2.3095,-2.3095,-2.3095,-2.3095,-2.3095,-2.3095,-2.3095,-2.3095,-2.3095,-2.3095,-2.3095,-2.3095,-2.3095,-2.3095,-2.3095,-2.3095,-2.3095,-2.3095,-2.3095,-2.3095,-2.3095,-2.3095,-2.3095,-2.3095,-2.3095,-2.3095,-2.3095,-2.3095,-2.3095,-2.3095,-2.3095,-2.3095,-2.3095,-2.3083,-2.2932,-2.2719,-2.1972,-2.1081,-2.0824,-2.0801,-1.9237,-1.7865,-1.7323,-1.6708,-1.594,-1.5526,-1.5439,-1.542,-1.542,-1.542,-1.542,-1.542,-1.5381,-1.541,-1.54,-1.5391,-1.5147,-1.508,-1.4946,-1.4201,-1.3458,-1.2873,-1.2065,-3.9388,-3.9388,-3.9388,-3.9388,-3.9388,-3.9388,-3.9388,-3.9388,-3.9388,-3.9388,-3.9388,-3.9388,-3.92,-3.8781,-3.7883,-3.7195,-3.6761,-3.5923,-3.5489,-3.5489,-3.5489,-3.5489,-3.5459,-3.513,-3.4607,-3.3948,-3.3305,-3.2437,-3.1574,-3.0998,-3.0238,-2.916,-2.9129,-2.833,-2.7364,-2.7162,-2.6918,-2.6624,-2.6487,-2.6487,-2.6411,-2.6223,-2.5812,-2.5536,-2.4808,-2.4293,-2.3979,-2.3715,-2.3384,-2.3183,-2.3108,-2.3095,-2.3095,-2.3095,-2.3095,-2.3095,-2.3095,-2.3095,-2.3095,-2.3095,-2.3095,-2.3095,-2.3095,-2.3095,-2.3095,-2.3095,-2.3095,-2.3095,-2.3095,-2.3095,-2.3095,-2.3095,-2.3095,-2.3095,-2.3095,-2.3095,-2.3095,-2.3095,-2.3095,-2.3095,-2.3095,-2.3095,-2.3095,-2.3095,-2.3065,-2.3022,-2.3083,-2.2895,-2.2698,-2.1831,-2.1182,-2.0593,-1.8955,-1.7777,-1.7243,-1.6537,-1.571,-1.5439,-1.5439,-1.542,-1.542,-1.542,-1.542,-1.542,-1.542,-1.542,-1.541,-1.542,-1.542,-1.5313,-1.511,-1.4875,-1.4316,-1.3301,-1.2466,-3.9388,-3.9388,-3.9388,-3.9388,-3.9388,-3.9388,-3.9388,-3.9388,-3.9388,-3.9388,-3.9388,-3.9388,-3.9305,-3.896,-3.7943,-3.7375,-3.6791,-3.6133,-3.5489,-3.5489,-3.5489,-3.5489,-3.5474,-3.537,-3.516,-3.4577,-3.3963,-3.2862,-3.1486,-3.058,-2.9766,-2.8124,-2.7769,-2.7484,-2.6748,-2.6521,-2.6555,-2.6487,-2.6487,-2.6487,-2.6487,-2.6436,-2.6197,-2.5833,-2.5247,-2.4782,-2.4418,-2.4092,-2.3766,-2.3283,-2.3158,-2.3108,-2.3095,-2.3095,-2.3095,-2.3095,-2.3095,-2.3095,-2.3095,-2.3095,-2.3095,-2.3095,-2.3095,-2.3095,-2.3095,-2.3095,-2.3095,-2.3095,-2.3095,-2.3095,-2.3095,-2.3095,-2.3095,-2.3095,-2.3095,-2.3095,-2.3095,-2.3095,-2.3095,-2.3095,-2.3095,-2.3095,-2.3095,-2.3095,-2.3035,-2.2975,-2.3035,-2.2975,-2.2763,-2.2274,-2.1402,-2.0338,-1.8753,-1.7219,-1.6567,-1.6364,-1.5527,-1.542,-1.542,-1.542,-1.542,-1.542,-1.542,-1.542,-1.542,-1.542,-1.542,-1.542,-1.542,-1.542,-1.5323,-1.5108,-1.4451,-1.3636,-1.2879,-3.9388,-3.9388,-3.9388,-3.9388,-3.9388,-3.9388,-3.9388,-3.9388,-3.9388,-3.9388,-3.9388,-3.9373,-3.911,-3.8512,-3.7808,-3.6881,-3.6088,-3.5594,-3.5489,-3.5472,-3.5424,-3.5359,-3.5311,-3.5133,-3.519,-3.5205,-3.4448,-3.304,-3.1606,-3.0955,-2.9517,-2.8079,-2.7637,-2.7183,-2.6679,-2.6487,-2.6487,-2.6487,-2.6487,-2.6487,-2.6487,-2.6474,-2.6449,-2.621,-2.5724,-2.5398,-2.5109,-2.4469,-2.3954,-2.3828,-2.3358,-2.3183,-2.3158,-2.3158,-2.3145,-2.3095,-2.3095,-2.3095,-2.3095,-2.3095,-2.3095,-2.3095,-2.3095,-2.3095,-2.3095,-2.3095,-2.3095,-2.3095,-2.3095,-2.3095,-2.3095,-2.3095,-2.3095,-2.3095,-2.3095,-2.3095,-2.3095,-2.3095,-2.3095,-2.3095,-2.3095,-2.3095,-2.3095,-2.3005,-2.2811,-2.2793,-2.2884,-2.2671,-2.2292,-2.1732,-2.0993,-1.9823,-1.8558,-1.7061,-1.5753,-1.5722,-1.542,-1.542,-1.542,-1.542,-1.542,-1.542,-1.542,-1.542,-1.542,-1.542,-1.542,-1.542,-1.542,-1.542,-1.5381,-1.5352,-1.4726,-1.3995,-1.3243,-3.9388,-3.9388,-3.9388,-3.9388,-3.9388,-3.9388,-3.9388,-3.9388,-3.9388,-3.9388,-3.9388,-3.9358,-3.905,-3.8377,-3.7704,-3.6701,-3.5774,-3.5489,-3.5489,-3.5439,-3.5019,-3.4725,-3.4624,-3.4308,-3.4022,-3.3901,-3.3537,-3.2758,-3.1132,-3.0113,-2.8944,-2.7535,-2.7061,-2.6837,-2.6589,-2.6487,-2.6487,-2.6487,-2.6487,-2.6487,-2.6487,-2.6487,-2.6487,-2.6399,-2.6235,-2.5912,-2.5523,-2.5222,-2.4695,-2.4443,-2.4136,-2.3847,-2.3634,-2.3521,-2.3439,-2.3195,-2.3108,-2.3095,-2.3095,-2.3095,-2.3095,-2.3095,-2.3108,-2.3095,-2.3095,-2.3095,-2.312,-2.3095,-2.3095,-2.3095,-2.3095,-2.3095,-2.3095,-2.3095,-2.3095,-2.3095,-2.3095,-2.3095,-2.3095,-2.3095,-2.3095,-2.3095,-2.3095,-2.2944,-2.2628,-2.2598,-2.2702,-2.2322,-2.1815,-2.1169,-2.0465,-1.954,-1.8365,-1.7144,-1.5879,-1.5635,-1.5537,-1.5508,-1.542,-1.542,-1.542,-1.542,-1.542,-1.542,-1.542,-1.542,-1.542,-1.542,-1.542,-1.542,-1.5391,-1.5294,-1.4962,-1.4392,-1.3485,-3.9388,-3.9388,-3.9388,-3.9388,-3.9388,-3.9388,-3.9388,-3.9388,-3.9388,-3.9388,-3.9388,-3.9343,-3.896,-3.8138,-3.7315,-3.6417,-3.5504,-3.5489,-3.5392,-3.4986,-3.4476,-3.3993,-3.3533,-3.3101,-3.277,-3.2925,-3.2431,-3.183,-3.0856,-2.984,-2.8243,-2.721,-2.671,-2.6562,-2.6537,-2.6487,-2.6487,-2.6487,-2.6487,-2.6487,-2.6487,-2.6487,-2.6487,-2.6487,-2.6487,-2.6248,-2.5908,-2.5607,-2.531,-2.5021,-2.4763,-2.4562,-2.4255,-2.4167,-2.3891,-2.3384,-2.3183,-2.3108,-2.3095,-2.3108,-2.317,-2.3346,-2.3308,-2.3346,-2.3434,-2.3484,-2.3283,-2.3145,-2.3095,-2.3095,-2.3095,-2.3095,-2.3095,-2.3095,-2.3095,-2.3095,-2.3095,-2.3095,-2.3095,-2.3095,-2.3095,-2.3095,-2.3095,-2.2944,-2.2628,-2.1959,-2.2002,-2.1573,-2.1069,-2.0602,-1.9933,-1.9222,-1.8267,-1.7166,-1.6279,-1.585,-1.5762,-1.5713,-1.5537,-1.542,-1.542,-1.542,-1.542,-1.543,-1.542,-1.542,-1.542,-1.542,-1.542,-1.542,-1.542,-1.5323,-1.5118,-1.4302,-1.3243,-3.9388,-3.9388,-3.9388,-3.9388,-3.9388,-3.9388,-3.9388,-3.9388,-3.9388,-3.9388,-3.9388,-3.9313,-3.8721,-3.7554,-3.6327,-3.5714,-3.5454,-3.5311,-3.4905,-3.4211,-3.3856,-3.331,-3.2855,-3.27,-3.2285,-3.2119,-3.1609,-3.1093,-3.0453,-3.0085,-2.897,-2.7531,-2.709,-2.6977,-2.6524,-2.6487,-2.6487,-2.6487,-2.6487,-2.6487,-2.6487,-2.6487,-2.6487,-2.6487,-2.6474,-2.6436,-2.6248,-2.5959,-2.5611,-2.5511,-2.5051,-2.4813,-2.47,-2.47,-2.4431,-2.3929,-2.3477,-2.3108,-2.312,-2.3258,-2.3409,-2.371,-2.3835,-2.4155,-2.4173,-2.396,-2.3597,-2.312,-2.3108,-2.3095,-2.3095,-2.3095,-2.3095,-2.3095,-2.3095,-2.3095,-2.3095,-2.3095,-2.3095,-2.3095,-2.3095,-2.3095,-2.3095,-2.2884,-2.2628,-2.1865,-2.1195,-2.0846,-2.0398,-1.9987,-1.9366,-1.8687,-1.8224,-1.7214,-1.6719,-1.6279,-1.6074,-1.5996,-1.583,-1.5586,-1.5547,-1.5576,-1.542,-1.542,-1.543,-1.542,-1.542,-1.542,-1.542,-1.542,-1.542,-1.542,-1.5391,-1.4332,-1.307,-3.9388,-3.9388,-3.9388,-3.9388,-3.9388,-3.9388,-3.9388,-3.9388,-3.9388,-3.9388,-3.9388,-3.9388,-3.8641,-3.7295,-3.6073,-3.518,-3.4758,-3.4658,-3.4109,-3.3192,-3.2735,-3.2236,-3.1756,-3.1304,-3.102,-3.102,-3.0658,-3.0392,-3.0021,-2.9622,-2.8691,-2.7624,-2.7316,-2.7014,-2.6612,-2.6499,-2.6487,-2.6487,-2.6487,-2.6487,-2.6487,-2.6487,-2.6487,-2.6487,-2.6487,-2.6487,-2.6411,-2.6311,-2.6122,-2.6084,-2.5812,-2.5573,-2.5448,-2.5473,-2.5398,-2.4519,-2.4236,-2.3797,-2.3296,-2.371,-2.396,-2.4079,-2.428,-2.4569,-2.4682,-2.4368,-2.3979,-2.3665,-2.3271,-2.3145,-2.3133,-2.3095,-2.3095,-2.3095,-2.3095,-2.3095,-2.3095,-2.3095,-2.3095,-2.3095,-2.3065,-2.2975,-2.2884,-2.2689,-2.2249,-2.1428,-2.1005,-2.0782,-2.0204,-1.9595,-1.8893,-1.8121,-1.7787,-1.7341,-1.7041,-1.6738,-1.6502,-1.6404,-1.6385,-1.6132,-1.5879,-1.5811,-1.5703,-1.5508,-1.5449,-1.543,-1.542,-1.542,-1.542,-1.542,-1.542,-1.542,-1.5294,-1.4094,-1.2856,-3.9388,-3.9388,-3.9388,-3.9388,-3.9388,-3.9388,-3.9388,-3.9388,-3.9388,-3.9388,-3.9269,-3.9014,-3.8167,-3.6976,-3.5636,-3.4495,-3.3656,-3.3636,-3.3066,-3.2249,-3.1596,-3.118,-3.0809,-3.0177,-2.9934,-2.9779,-2.9998,-2.9896,-2.9718,-2.9365,-2.8774,-2.772,-2.7871,-2.7404,-2.6889,-2.6738,-2.6713,-2.6487,-2.6487,-2.6487,-2.6487,-2.6487,-2.6487,-2.6487,-2.6487,-2.6487,-2.6487,-2.6474,-2.6461,-2.6449,-2.6411,-2.6147,-2.5937,-2.6097,-2.5908,-2.5259,-2.5071,-2.4732,-2.4199,-2.4211,-2.4544,-2.4682,-2.4833,-2.5259,-2.4996,-2.4594,-2.428,-2.423,-2.3715,-2.3434,-2.3296,-2.3233,-2.3095,-2.3095,-2.3095,-2.3095,-2.3108,-2.3108,-2.2884,-2.2567,-2.2567,-2.2628,-2.2537,-2.2402,-2.1865,-2.1005,-2.0687,-2.059,-1.9944,-1.911,-1.8623,-1.792,-1.7812,-1.7578,-1.7451,-1.7227,-1.6999,-1.6833,-1.6814,-1.6638,-1.6348,-1.6162,-1.6074,-1.5859,-1.5576,-1.5478,-1.5498,-1.5459,-1.542,-1.542,-1.542,-1.542,-1.5021,-1.3825,-1.2765,-3.9388,-3.9388,-3.9388,-3.9388,-3.9388,-3.9388,-3.9388,-3.9388,-3.9388,-3.9388,-3.9224,-3.8222,-3.7272,-3.6114,-3.5018,-3.3811,-3.2735,-3.27,-3.2105,-3.1536,-3.1143,-3.0671,-3.0216,-2.9934,-2.9779,-2.9779,-2.9779,-2.9779,-2.9779,-2.9691,-2.9264,-2.8838,-2.8549,-2.8047,-2.7507,-2.7165,-2.6864,-2.66,-2.6487,-2.6487,-2.6487,-2.6487,-2.6487,-2.6487,-2.6487,-2.6487,-2.6487,-2.6487,-2.6487,-2.6487,-2.6487,-2.6487,-2.6336,-2.6411,-2.6109,-2.5799,-2.5887,-2.5536,-2.5084,-2.4895,-2.5071,-2.5498,-2.5824,-2.595,-2.5598,-2.5523,-2.5247,-2.477,-2.4224,-2.3979,-2.3778,-2.3509,-2.3434,-2.3421,-2.3509,-2.3459,-2.3384,-2.3133,-2.2848,-2.2199,-2.2032,-2.2156,-2.1865,-2.1678,-2.1573,-2.0782,-1.989,-1.9759,-1.911,-1.8395,-1.8303,-1.7988,-1.7988,-1.791,-1.7891,-1.7686,-1.7379,-1.7233,-1.7174,-1.697,-1.6728,-1.6602,-1.6523,-1.6144,-1.585,-1.5723,-1.5547,-1.5469,-1.542,-1.542,-1.5381,-1.5235,-1.4756,-1.3704,-1.2726,-3.9388,-3.9388,-3.9388,-3.9388,-3.9388,-3.9388,-3.9388,-3.9388,-3.9388,-3.9388,-3.9364,-3.8402,-3.759,-3.656,-3.5253,-3.3859,-3.2648,-3.1924,-3.1217,-3.0595,-3.0241,-3.0101,-2.9818,-2.9779,-2.9779,-2.9779,-2.9779,-2.9779,-2.9779,-2.9779,-2.9704,-2.9428,-2.9101,-2.8474,-2.7946,-2.7469,-2.703,-2.6688,-2.6524,-2.6499,-2.6487,-2.6487,-2.6487,-2.6487,-2.6487,-2.6487,-2.6487,-2.6487,-2.6487,-2.6487,-2.6487,-2.6487,-2.6487,-2.6487,-2.6361,-2.6147,-2.6386,-2.6197,-2.5946,-2.5808,-2.5984,-2.605,-2.6348,-2.6373,-2.6072,-2.5837,-2.5586,-2.5151,-2.4788,-2.4506,-2.4443,-2.4286,-2.4211,-2.4098,-2.4029,-2.391,-2.3785,-2.3547,-2.2923,-2.2341,-2.1922,-2.1753,-2.1333,-2.0878,-2.0782,-2.0526,-1.9661,-1.8854,-1.8337,-1.8008,-1.8008,-1.8008,-1.8008,-1.8008,-1.7978,-1.7871,-1.7754,-1.7656,-1.7516,-1.7363,-1.7168,-1.7129,-1.6973,-1.6545,-1.6114,-1.5948,-1.5732,-1.5508,-1.542,-1.542,-1.5206,-1.4923,-1.4264,-1.3614,-1.2726,-3.9388,-3.9388,-3.9388,-3.9388,-3.9388,-3.9388,-3.9388,-3.9388,-3.9388,-3.9388,-3.9313,-3.8299,-3.7264,-3.6239,-3.459,-3.3049,-3.1713,-3.1007,-3.0457,-3.0075,-2.9856,-2.9779,-2.9779,-2.9779,-2.9779,-2.9779,-2.9779,-2.9779,-2.9779,-2.9779,-2.9754,-2.9628,-2.939,-2.8913,-2.836,-2.7808,-2.7318,-2.7042,-2.6977,-2.6839,-2.6813,-2.6763,-2.66,-2.6549,-2.6487,-2.6487,-2.6487,-2.6487,-2.6487,-2.6487,-2.6487,-2.6487,-2.6487,-2.6487,-2.6487,-2.6487,-2.6487,-2.6487,-2.6487,-2.6487,-2.6487,-2.6424,-2.6449,-2.6487,-2.6373,-2.6109,-2.5925,-2.5837,-2.5398,-2.5046,-2.5034,-2.4833,-2.4637,-2.4506,-2.4443,-2.4349,-2.4356,-2.4142,-2.326,-2.2503,-2.2034,-2.142,-2.0705,-2.0238,-2.0063,-1.9857,-1.911,-1.8529,-1.8236,-1.8008,-1.8008,-1.8008,-1.8008,-1.8008,-1.7998,-1.793,-1.7871,-1.7871,-1.7783,-1.7764,-1.7637,-1.7578,-1.7383,-1.6985,-1.6584,-1.6232,-1.5977,-1.5791,-1.5586,-1.54,-1.5206,-1.5011,-1.4569,-1.3914,-1.2909,-3.9388,-3.9388,-3.9388,-3.9388,-3.9388,-3.9388,-3.9388,-3.9388,-3.9388,-3.9388,-3.913,-3.7359,-3.5891,-3.4733,-3.3143,-3.1646,-3.0685,-3.0177,-2.9856,-2.9818,-2.9779,-2.9779,-2.9779,-2.9779,-2.9779,-2.9779,-2.9779,-2.9779,-2.9779,-2.9779,-2.9779,-2.9779,-2.9641,-2.9365,-2.8888,-2.836,-2.8084,-2.8047,-2.7946,-2.7645,-2.7369,-2.7241,-2.6952,-2.6725,-2.6524,-2.6499,-2.6487,-2.6487,-2.6487,-2.6487,-2.6487,-2.6487,-2.6487,-2.6487,-2.6487,-2.6487,-2.6487,-2.6487,-2.6487,-2.6487,-2.6487,-2.6487,-2.6487,-2.6487,-2.6487,-2.6424,-2.6361,-2.6223,-2.5908,-2.5624,-2.5423,-2.5234,-2.5109,-2.5046,-2.5021,-2.5021,-2.5021,-2.4738,-2.3912,-2.2781,-2.1867,-2.1075,-2.0253,-1.9611,-1.9414,-1.9042,-1.8472,-1.8144,-1.8042,-1.8008,-1.8008,-1.8008,-1.8008,-1.8008,-1.8008,-1.8008,-1.7988,-1.8008,-1.7988,-1.792,-1.791,-1.7852,-1.7627,-1.7324,-1.7041,-1.6731,-1.6398,-1.6075,-1.5781,-1.5518,-1.5439,-1.5206,-1.4785,-1.4115,-1.3031,-3.9388,-3.9388,-3.9388,-3.9388,-3.9388,-3.9388,-3.9388,-3.9388,-3.9388,-3.9388,-3.9118,-3.7754,-3.6531,-3.5156,-3.3301,-3.1626,-3.0749,-2.9934,-2.9779,-2.9779,-2.9779,-2.9779,-2.9779,-2.9779,-2.9779,-2.9779,-2.9779,-2.9779,-2.9779,-2.9779,-2.9779,-2.9779,-2.9741,-2.9465,-2.9013,-2.8624,-2.8524,-2.8172,-2.8072,-2.7984,-2.7808,-2.7519,-2.7266,-2.704,-2.6738,-2.6549,-2.6537,-2.6549,-2.6487,-2.6487,-2.6487,-2.6487,-2.6487,-2.6487,-2.6487,-2.6487,-2.6487,-2.6487,-2.6487,-2.6487,-2.6487,-2.6487,-2.6487,-2.6487,-2.6487,-2.6487,-2.6487,-2.6474,-2.6285,-2.6135,-2.6122,-2.6072,-2.6009,-2.6021,-2.6009,-2.6009,-2.5887,-2.541,-2.4628,-2.3245,-2.2136,-2.0711,-1.9665,-1.9361,-1.9144,-1.8866,-1.8379,-1.8159,-1.8018,-1.8008,-1.8008,-1.8008,-1.8008,-1.8008,-1.8008,-1.8008,-1.8008,-1.8008,-1.8008,-1.7988,-1.7998,-1.8008,-1.7803,-1.7471,-1.7353,-1.7239,-1.6699,-1.6221,-1.5859,-1.5615,-1.5488,-1.5206,-1.4726,-1.3936,-1.287,-3.9388,-3.9388,-3.9388,-3.9388,-3.9388,-3.9388,-3.9388,-3.9337,-3.9017,-3.8855,-3.8487,-3.7154,-3.5945,-3.4699,-3.315,-3.1928,-3.0905,-3.0203,-2.9779,-2.9779,-2.9779,-2.9779,-2.9779,-2.9779,-2.9779,-2.9779,-2.9779,-2.9779,-2.9779,-2.9779,-2.9779,-2.9779,-2.9779,-2.9616,-2.9327,-2.9202,-2.9101,-2.8863,-2.8825,-2.8662,-2.8411,-2.8097,-2.7808,-2.7494,-2.7165,-2.6801,-2.6738,-2.6637,-2.6487,-2.6499,-2.6487,-2.6487,-2.6487,-2.6487,-2.6487,-2.6487,-2.6487,-2.6487,-2.6487,-2.6487,-2.6487,-2.6487,-2.6487,-2.6487,-2.6487,-2.6487,-2.6487,-2.6487,-2.6487,-2.6487,-2.6474,-2.6487,-2.6487,-2.6474,-2.6393,-2.6368,-2.6186,-2.5631,-2.475,-2.3408,-2.204,-2.0594,-1.9373,-1.9171,-1.8986,-1.8679,-1.8359,-1.8203,-1.8047,-1.8018,-1.8008,-1.8008,-1.8008,-1.8008,-1.8008,-1.8008,-1.8008,-1.8008,-1.8008,-1.8008,-1.8008,-1.7998,-1.7812,-1.7686,-1.7637,-1.7441,-1.6814,-1.6346,-1.5986,-1.5674,-1.5459,-1.5118,-1.4667,-1.3786,-1.2787,-3.9388,-3.9388,-3.9388,-3.9388,-3.9388,-3.9388,-3.9388,-3.9301,-3.8308,-3.7866,-3.7724,-3.5282,-3.4286,-3.3582,-3.1685,-3.0817,-3.0577,-3.0057,-2.9881,-2.9779,-2.9779,-2.9779,-2.9779,-2.9779,-2.9779,-2.9779,-2.9779,-2.9779,-2.9779,-2.9779,-2.9779,-2.9779,-2.9779,-2.9716,-2.9679,-2.9641,-2.9578,-2.9465,-2.9428,-2.9252,-2.8976,-2.8762,-2.8461,-2.8084,-2.7645,-2.7316,-2.7128,-2.6876,-2.6625,-2.6524,-2.6487,-2.6487,-2.6487,-2.6487,-2.6487,-2.6487,-2.6487,-2.6487,-2.6487,-2.6487,-2.6487,-2.6487,-2.6487,-2.6487,-2.6487,-2.6487,-2.6487,-2.6487,-2.6487,-2.6487,-2.6487,-2.6487,-2.6487,-2.6405,-2.6302,-2.622,-2.6117,-2.5483,-2.4495,-2.3315,-2.2017,-2.0755,-1.9707,-1.9277,-1.9209,-1.8916,-1.8662,-1.8398,-1.8198,-1.8037,-1.8027,-1.8008,-1.8008,-1.8008,-1.8008,-1.8008,-1.8008,-1.8008,-1.8008,-1.8008,-1.8008,-1.8008,-1.791,-1.7871,-1.7949,-1.7686,-1.709,-1.6562,-1.6084,-1.582,-1.5713,-1.5156,-1.4723,-1.3734,-1.2848,-3.9388,-3.9388,-3.9388,-3.9388,-3.9388,-3.9388,-3.9388,-3.9265,-3.8271,-3.7805,-3.7663,-3.5425,-3.4121,-3.362,-3.1977,-3.1065,-3.0532,-3.0118,-2.9867,-2.9779,-2.9779,-2.9779,-2.9779,-2.9779,-2.9779,-2.9779,-2.9779,-2.9779,-2.9779,-2.9779,-2.9779,-2.9779,-2.9779,-2.9779,-2.9779,-2.9779,-2.9779,-2.9779,-2.9779,-2.9654,-2.9428,-2.9139,-2.89,-2.8599,-2.816,-2.7783,-2.7344,-2.7178,-2.6901,-2.6549,-2.6499,-2.6487,-2.6487,-2.6487,-2.6487,-2.6487,-2.6487,-2.6487,-2.6487,-2.6487,-2.6487,-2.6487,-2.6487,-2.6487,-2.6487,-2.6487,-2.6487,-2.6487,-2.6487,-2.6487,-2.6487,-2.6487,-2.6487,-2.6452,-2.6164,-2.5687,-2.5511,-2.4909,-2.3927,-2.2621,-2.1364,-2.0855,-1.9889,-1.9727,-1.9629,-1.9297,-1.8994,-1.8721,-1.8364,-1.8193,-1.8027,-1.8008,-1.8008,-1.8008,-1.8008,-1.8008,-1.8008,-1.8008,-1.8008,-1.8008,-1.8008,-1.8008,-1.8008,-1.8008,-1.8008,-1.7754,-1.7344,-1.6855,-1.6436,-1.6299,-1.6111,-1.5441,-1.471,-1.374,-1.283,-3.9388,-3.9388,-3.9388,-3.9192,-3.8855,-3.9228,-3.9192,-3.8634,-3.7625,-3.7175,-3.6905,-3.4925,-3.3871,-3.3346,-3.2066,-3.1198,-3.0896,-3.0156,-2.9779,-2.9779,-2.9779,-2.9779,-2.9779,-2.9779,-2.9779,-2.9779,-2.9779,-2.9779,-2.9779,-2.9779,-2.9779,-2.9779,-2.9779,-2.9779,-2.9779,-2.9779,-2.9779,-2.9779,-2.9779,-2.9779,-2.9628,-2.944,-2.934,-2.9139,-2.8699,-2.8172,-2.7657,-2.7507,-2.7065,-2.66,-2.6499,-2.6487,-2.6487,-2.6487,-2.6487,-2.6487,-2.6487,-2.6487,-2.6487,-2.6487,-2.6487,-2.6487,-2.6487,-2.6487,-2.6487,-2.6487,-2.6487,-2.6487,-2.6487,-2.6487,-2.6487,-2.6487,-2.6487,-2.6487,-2.5804,-2.5075,-2.4624,-2.4181,-2.3073,-2.1745,-2.1046,-2.0621,-2.0283,-2.0205,-2.0107,-1.9893,-1.958,-1.9228,-1.8734,-1.832,-1.8125,-1.8008,-1.8008,-1.8008,-1.8008,-1.8008,-1.8008,-1.8008,-1.8008,-1.8008,-1.8008,-1.8008,-1.8008,-1.8008,-1.8008,-1.7734,-1.7461,-1.7246,-1.6924,-1.6716,-1.6184,-1.5238,-1.4491,-1.3802,-1.2938,-3.9388,-3.9388,-3.9388,-3.8708,-3.7904,-3.873,-3.856,-3.751,-3.6462,-3.6158,-3.5854,-3.4066,-3.3215,-3.2984,-3.1942,-3.1411,-3.0959,-3.0281,-2.9779,-2.9779,-2.9779,-2.9779,-2.9779,-2.9779,-2.9779,-2.9779,-2.9779,-2.9779,-2.9779,-2.9779,-2.9779,-2.9779,-2.9779,-2.9779,-2.9779,-2.9779,-2.9779,-2.9779,-2.9779,-2.9779,-2.9779,-2.9754,-2.9767,-2.9666,-2.9239,-2.87,-2.821,-2.7695,-2.7165,-2.6788,-2.6575,-2.6612,-2.6499,-2.6487,-2.6487,-2.6487,-2.6487,-2.6487,-2.6487,-2.6487,-2.6487,-2.6487,-2.6487,-2.6487,-2.6487,-2.6487,-2.6487,-2.6487,-2.6487,-2.6487,-2.6487,-2.6487,-2.6487,-2.6082,-2.5394,-2.4779,-2.4301,-2.3478,-2.2188,-2.1193,-2.0952,-2.0585,-2.0507,-2.0371,-2.0352,-2.0332,-2.0059,-1.9639,-1.916,-1.8574,-1.8262,-1.8066,-1.8008,-1.8008,-1.8008,-1.8008,-1.8008,-1.8008,-1.8008,-1.8008,-1.8008,-1.8008,-1.8008,-1.8008,-1.7998,-1.7832,-1.7598,-1.7314,-1.7038,-1.687,-1.6157,-1.4962,-1.4213,-1.381,-1.2798,-3.9388,-3.9388,-3.9388,-3.8331,-3.6852,-3.7738,-3.7127,-3.5453,-3.521,-3.5494,-3.5694,-3.4137,-3.3124,-3.2948,-3.1901,-3.1386,-3.1135,-3.0344,-2.988,-2.9779,-2.9779,-2.9779,-2.9779,-2.9779,-2.9779,-2.9779,-2.9779,-2.9779,-2.9779,-2.9779,-2.9779,-2.9779,-2.9779,-2.9779,-2.9779,-2.9779,-2.9779,-2.9779,-2.9779,-2.9779,-2.9779,-2.9779,-2.9767,-2.9754,-2.949,-2.9202,-2.88,-2.8561,-2.7896,-2.7318,-2.713,-2.6914,-2.6537,-2.6512,-2.6499,-2.6487,-2.6487,-2.6487,-2.6487,-2.6487,-2.6487,-2.6487,-2.6487,-2.6487,-2.6487,-2.6487,-2.6487,-2.6487,-2.6487,-2.6487,-2.6487,-2.6487,-2.6418,-2.5756,-2.4981,-2.4445,-2.3902,-2.2601,-2.1298,-2.1039,-2.0857,-2.075,-2.0644,-2.0615,-2.0615,-2.0429,-2.0107,-1.9736,-1.9355,-1.8848,-1.8403,-1.8223,-1.8037,-1.8008,-1.8008,-1.8008,-1.8008,-1.8008,-1.8008,-1.8008,-1.8008,-1.8008,-1.8008,-1.8008,-1.7969,-1.7852,-1.7627,-1.7174,-1.698,-1.6957,-1.6423,-1.5355,-1.4607,-1.409,-1.2806,-3.9388,-3.9352,-3.887,-3.7724,-3.6473,-3.6852,-3.6146,-3.491,-3.4718,-3.486,-3.4955,-3.3769,-3.3111,-3.2935,-3.1942,-3.1361,-3.116,-3.0269,-2.9905,-2.9779,-2.9779,-2.9779,-2.9779,-2.9779,-2.9779,-2.9779,-2.9779,-2.9779,-2.9779,-2.9779,-2.9779,-2.9779,-2.9779,-2.9779,-2.9779,-2.9779,-2.9779,-2.9779,-2.9779,-2.9779,-2.9779,-2.9779,-2.9779,-2.9779,-2.9704,-2.944,-2.9126,-2.885,-2.8423,-2.7896,-2.767,-2.7331,-2.7052,-2.6914,-2.6738,-2.6575,-2.6487,-2.6487,-2.6487,-2.6487,-2.6487,-2.6487,-2.6487,-2.6487,-2.6487,-2.6487,-2.6487,-2.6487,-2.6487,-2.6487,-2.6487,-2.6487,-2.6487,-2.6082,-2.4648,-2.3551,-2.2638,-2.1489,-2.0895,-2.0867,-2.0712,-2.0683,-2.0615,-2.0615,-2.0615,-2.0605,-2.0244,-2.001,-1.96,-1.9121,-1.8676,-1.8315,-1.8154,-1.8027,-1.8008,-1.8008,-1.8008,-1.8008,-1.8008,-1.8008,-1.8008,-1.8008,-1.8008,-1.8008,-1.8008,-1.7988,-1.7705,-1.7321,-1.7184,-1.7233,-1.6651,-1.5853,-1.5109,-1.4215,-1.2931,-3.9211,-3.9053,-3.8017,-3.6982,-3.6093,-3.6,-3.54,-3.454,-3.447,-3.4129,-3.3641,-3.317,-3.2991,-3.2491,-3.1851,-3.1512,-3.0984,-3.0193,-2.9867,-2.9779,-2.9779,-2.9779,-2.9779,-2.9779,-2.9779,-2.9779,-2.9779,-2.9779,-2.9779,-2.9779,-2.9779,-2.9779,-2.9779,-2.9779,-2.9779,-2.9779,-2.9779,-2.9779,-2.9779,-2.9779,-2.9779,-2.9779,-2.9779,-2.9779,-2.9741,-2.9515,-2.9189,-2.8963,-2.8725,-2.8373,-2.8072,-2.7758,-2.7544,-2.7369,-2.7077,-2.6889,-2.6738,-2.665,-2.6524,-2.6487,-2.6487,-2.6487,-2.6487,-2.6487,-2.6487,-2.6487,-2.6487,-2.6487,-2.6487,-2.6452,-2.6452,-2.6452,-2.6452,-2.5861,-2.4205,-2.2702,-2.1593,-2.0673,-2.0683,-2.0683,-2.0644,-2.0615,-2.0615,-2.0615,-2.0615,-2.0615,-2.0507,-2.0254,-1.9941,-1.9414,-1.8936,-1.849,-1.8213,-1.8115,-1.8027,-1.8008,-1.8008,-1.8008,-1.8008,-1.8008,-1.8008,-1.8008,-1.8008,-1.8008,-1.8008,-1.8008,-1.7939,-1.7686,-1.7598,-1.7432,-1.6618,-1.5809,-1.4833,-1.3916,-1.2908,-3.8404,-3.8032,-3.6968,-3.5908,-3.5088,-3.5007,-3.4387,-3.3513,-3.3403,-3.3068,-3.2574,-3.2398,-3.2164,-3.1687,-3.1085,-3.0809,-3.0771,-3.008,-2.9867,-2.9779,-2.9779,-2.9779,-2.9779,-2.9779,-2.9779,-2.9779,-2.9779,-2.9779,-2.9779,-2.9779,-2.9779,-2.9779,-2.9779,-2.9779,-2.9779,-2.9779,-2.9779,-2.9779,-2.9779,-2.9779,-2.9779,-2.9779,-2.9779,-2.9779,-2.9779,-2.9716,-2.9641,-2.9628,-2.9277,-2.8837,-2.8423,-2.8185,-2.8021,-2.7908,-2.7632,-2.7293,-2.713,-2.7002,-2.6889,-2.6688,-2.6663,-2.66,-2.6587,-2.6487,-2.6487,-2.6487,-2.6487,-2.6487,-2.6452,-2.6383,-2.6383,-2.6314,-2.6198,-2.4909,-2.3441,-2.2151,-2.1011,-2.0712,-2.0605,-2.0605,-2.0605,-2.0615,-2.0615,-2.0615,-2.0615,-2.0615,-2.0615,-2.0352,-2.0078,-1.9619,-1.9141,-1.875,-1.834,-1.8125,-1.8008,-1.8008,-1.8008,-1.8008,-1.8008,-1.8008,-1.8008,-1.8008,-1.8008,-1.8008,-1.8008,-1.8008,-1.793,-1.7861,-1.7617,-1.7323,-1.6509,-1.565,-1.4688,-1.3835,-1.3009]},{"header":{"parameterUnit":"m.s-1","parameterCategory":1,"la1":31.0,"la2":29.5877,"lo1":-88.7671,"lo2":-86.6584,"dy":0.0162,"dx":0.0185,"nx":115,"ny":88,"refTime":"2026-05-16T00:00:00:Z","depth":0,"parameterNumber":3,"parameterNumberName":"V-component_of_WINDS"},"data":[0.0,0.0,0.0,0.0,0.0,0.0,0.0,0.0,0.0,0.0,0.0,0.0,0.0,0.0,0.0,0.0,0.0,0.0,0.0,0.0,0.0,0.0,0.0,0.0,0.0,0.0,0.0,0.0,0.0,0.0,0.0,0.0,0.0,0.0,0.0,0.0,0.0,0.0,0.0,0.0,0.0,0.0,0.0,0.0,0.0,0.0,0.0,0.0,0.0,0.0,0.0,0.0,0.0,0.0,0.0,0.0,0.0,0.0,0.0,0.0,0.0,0.0,0.0,0.0,0.0,0.0,0.0,0.0,0.0,0.0,0.0,0.0,0.0,0.0,0.0,0.0,0.0,0.0,0.0,0.0,0.0,0.0,0.0,0.0,0.0,0.0,0.0,0.0,0.0,0.0,0.0,0.0,0.0,0.0,0.0,0.0,0.0,0.0,0.0,0.0,0.0,0.0,0.0,0.0,0.0,0.0,0.0,0.0,0.0,0.0,0.0,0.0,0.0,0.0,0.0,0.0,0.0,0.0,0.0,0.0,0.0,0.0,0.0,0.0,0.0,0.0,0.0,0.0,0.0,0.0,0.0,0.0,0.0,0.0,0.0,0.0,0.0,0.0,0.0,0.0,0.0,0.0,0.0,0.0,0.0,0.0,0.0,0.0,0.0,0.0,0.0,0.0,0.0,0.0,0.0,0.0,0.0,0.0,0.0,0.0,0.0,0.0,0.0,0.0,0.0,0.0,0.0,0.0,0.0,0.0,0.0,0.0,0.0,0.0,0.0,0.0,0.0,0.0,0.0,0.0,0.0,0.0,0.0,0.0,0.0,0.0,0.0,0.0,0.0,0.0,0.0,0.0,0.0,0.0,0.0,0.0,0.0,0.0,0.0,0.0,0.0,0.0,0.0,0.0,0.0,0.0,0.0,0.0,0.0,0.0,0.0,0.0,0.0,0.0,0.0,0.0,0.0,0.0,0.0,0.0,0.0,0.0,0.0,0.0,0.0,0.0,0.0,0.0,0.0,0.0,0.0,0.0,0.0,0.0,0.0,0.0,0.0,0.0,0.0,0.0,0.0,0.0,0.0,0.0,0.0,0.0,0.0,0.0,0.0,0.0,0.0,0.0,0.0,0.0,0.0,0.0,0.0,0.0,0.0,0.0,0.0,0.0,0.0,0.0,0.0,0.0,0.0,0.0,0.0,0.0,0.0,0.0,0.0,0.0,0.0,0.0,0.0,0.0,0.0,0.0,0.0,0.0,0.0,0.0,0.0,0.0,0.0,0.0,0.0,0.0,0.0,0.0,0.0,0.0,0.0,0.0,0.0,0.0,0.0,0.0,0.0,0.0,0.0,0.0,0.0,0.0,0.0,0.0,0.0,0.0,0.0,0.0,0.0,0.0,0.0,0.0,0.0,0.0,0.0,0.0,0.0,0.0,0.0,0.0,0.0,0.0,0.0,0.0,0.0,0.0,0.0,0.0,0.0,0.0,0.0,0.0,0.0,0.0,0.0,0.0,0.0,0.0,0.0,0.0,0.0,0.0,0.0,0.0,0.0,0.0,0.0,0.0,0.0,0.0,0.0,0.0,0.0,0.0,0.0,0.0,0.0,0.0,0.0,0.0,0.0,0.0,0.0,0.0,0.0,0.0,0.0,0.0,0.0,0.0,0.0,0.0,0.0,0.0,0.0,0.0,0.0,0.0,0.0,0.0,0.0,0.0,0.0,0.0,0.0,0.0,0.0,0.0,0.0,0.0,0.0,0.0,0.0,0.0,0.0,0.0,0.0,0.0,0.0,0.0,0.0,0.0,0.0,0.0,0.0,0.0,0.0,0.0,0.0,0.0,0.0,0.0,0.0,0.0,0.0,0.0,0.0,0.0,0.0,0.0,0.0,0.0,0.0,0.0,0.0,0.0,0.0,0.0,0.0,0.0,0.0,0.0,0.0,0.0,0.0,0.0,0.0,0.0,0.0,0.0,0.0,0.0,0.0,0.0,0.0,0.0,0.0,0.0,0.0,0.0,0.0,0.0,0.0,0.0,0.0,0.0,0.0,0.0,0.0,0.0,0.0,0.0,0.0,0.0,0.0,0.0,0.0,0.0,0.0,0.0,0.0,0.0,0.0,0.0,0.0,0.0,0.0,0.0,0.0,0.0,0.0,0.0,0.0,0.0,0.0,0.0,0.0,0.0,0.0,0.0,0.0,0.0,0.0,0.0,0.0,0.0,0.0,0.0,0.0,0.0,0.0,0.0,0.0,0.0,0.0,0.0,0.0,0.0,0.0,0.0,0.0,0.0,0.0,0.0,0.0,0.0,0.0,0.0,0.0,0.0,0.0,0.0,0.0,0.0,0.0,0.0,0.0,0.0,0.0,0.0,0.0,0.0,0.0,0.0,0.0,0.0,0.0,0.0,0.0,0.0,0.0,0.0,0.0,0.0,0.0,0.0,0.0,0.0,0.0,0.0,0.0,0.0,0.0,0.0,0.0,0.0,0.0,0.0,0.0,0.0,0.0,0.0,0.0,0.0,0.0,0.0,0.0,0.0,0.0,0.0,0.0,0.0,0.0,0.0,0.0,0.0,0.0,0.0,0.0,0.0,0.0,0.0,0.0,0.0,0.0,0.0,0.0,0.0,0.0,0.0,0.0,0.0,0.0,0.0,0.0,0.0,0.0,0.0,0.0,0.0,0.0,0.0,0.0,0.0,0.0,0.0,0.0,0.0,0.0,0.0,0.0,0.0,0.0,0.0,0.0,0.0,0.0,0.0,0.0,0.0,0.0,0.0,0.0,0.0,0.0,0.0,0.0,0.0,0.0,0.0,0.0,0.0,0.0,0.0,0.0,0.0,0.0,0.0,0.0,0.0,0.0,0.0,0.0,0.0,0.0,0.0,0.0,0.0,0.0,0.0,0.0,0.0,0.0,0.0,0.0,0.0,0.0,0.0,0.0,0.0,0.0,0.0,0.0,0.0,0.0,0.0,0.0,0.0,0.0,0.0,0.0,0.0,0.0,0.0,0.0,0.0,0.0,0.0,0.0,0.0,0.0,0.0,0.0,0.0,0.0,0.0,0.0,0.0,0.0,0.0,0.0,0.0,0.0,0.0,0.0,0.0,0.0,0.0,0.0,0.0,0.0,0.0,0.0,0.0,0.0,0.0,0.0,0.0,0.0,0.0,0.0,0.0,0.0,0.0,0.0,0.0,0.0,0.0,0.0,0.0,0.0,0.0,0.0,0.0,0.0,0.0,0.0,0.0,0.0,0.0,0.0,0.0,0.0,0.0,0.0,0.0,0.0,0.0,0.0,0.0,0.0,0.0,0.0,0.0,0.0,0.0,0.0,0.0,0.0,0.0,0.0,0.0,0.0,0.0,0.0,0.0,0.0,0.0,0.0,0.0,0.0,0.0,0.0,0.0,0.0,0.0,0.0,0.0,0.0,0.0,0.0,0.0,0.0,0.0,0.0,0.0,0.0,0.0,0.0,0.0,0.0,0.0,0.0,0.0,0.0,0.0,0.0,0.0,0.0,0.0,0.0,0.0,0.0,0.0,0.0,0.0,0.0,0.0,0.0,0.0,0.0,0.0,0.0,0.0,0.0,0.0,0.0,0.0,0.0,0.0,0.0,0.0,0.0,0.0,0.0,0.0,0.0,0.0,0.0,0.0,0.0,0.0,0.0,0.0,0.0,0.0,0.0,0.0,0.0,0.0,0.0,0.0,0.0,0.0,0.0,0.0,0.0,0.0,0.0,0.0,0.0,0.0,0.0,0.0,0.0,0.0,0.0,0.0,0.0,0.0,0.0,0.0,0.0,0.0,0.0,0.0,0.0,0.0,0.0,0.0,0.0,0.0,0.0,0.0,0.0,0.0,0.0,0.0,0.0,0.0,0.0,0.0,0.0,0.0,0.0,0.0,0.0,0.0,0.0,0.0,0.0,0.0,0.0,0.0,0.0,0.0,0.0,0.0,0.0,0.0,0.0,0.0,0.0,0.0,0.0,0.0,0.0,0.0,0.0,0.0,0.0,0.0,0.0,0.0,0.0,0.0,0.0,0.0,0.0,0.0,0.0,0.0,0.0,0.0,0.0,0.0,0.0,0.0,0.0,0.0,0.0,0.0,0.0,0.0,0.0,0.0,0.0,0.0,0.0,0.0,0.0,0.0,0.0,0.0,0.0,0.0,0.0,0.0,0.0,0.0,0.0,0.0,0.0,0.0,0.0,0.0,0.0,0.0,0.0,0.0,0.0,0.0,0.0,0.0,0.0,0.0,0.0,0.0,0.0,0.0,0.0,0.0,1.2221,0.0,0.0,0.0,0.0,0.0,0.0,0.0,0.0,0.0,0.0,0.0,0.0,0.0,0.0,0.0,0.0,0.0,0.0,0.0,0.0,0.0,0.0,0.0,0.0,0.0,0.0,0.0,0.0,0.0,0.0,0.0,0.0,0.0,0.0,0.0,0.0,0.0,0.0,0.0,0.0,0.0,0.0,0.0,0.0,0.0,0.0,0.0,0.0,0.0,0.0,0.0,0.0,0.0,0.0,0.0,0.0,0.0,0.0,0.0,0.0,0.0,0.0,0.0,0.0,0.0,0.0,0.0,0.0,0.0,0.0,0.0,0.0,0.0,0.0,0.0,0.0,0.0,0.0,0.0,0.0,0.0,0.0,0.0,0.0,0.0,0.0,0.0,0.0,0.0,0.0,0.0,0.0,0.0,0.0,0.0,0.0,0.0,0.0,0.0,0.0,0.0,0.0,0.0,0.0,0.0,0.0,0.0,0.0,0.0,0.0,1.1875,1.1443,1.3004,1.3611,1.3092,0.0,0.0,0.0,0.0,0.0,0.0,0.0,0.0,0.0,0.0,0.0,0.0,0.0,0.0,0.0,0.0,0.0,0.0,0.0,0.0,0.0,0.0,0.0,0.0,0.0,0.0,0.0,0.0,0.0,0.0,0.0,0.0,0.0,0.0,0.0,0.0,0.0,0.0,0.0,0.0,0.0,0.0,0.0,0.0,0.0,0.0,0.0,0.0,0.0,0.0,0.0,0.0,0.0,0.0,0.0,0.0,0.0,0.0,0.0,0.0,0.0,0.0,0.0,0.0,0.0,0.0,0.0,0.0,0.0,0.0,0.0,0.0,0.0,0.0,0.0,0.0,0.0,0.0,0.0,0.0,0.0,0.0,0.0,0.0,0.0,0.0,0.0,0.0,0.0,0.0,0.0,0.0,0.0,0.0,0.0,0.0,0.0,0.0,0.0,0.0,0.0,0.0,0.0,0.0,0.0,0.0,0.0,0.0,0.0,0.0,0.0,0.0,1.427,1.4953,1.4175,0.0,0.0,0.0,0.0,0.0,0.0,0.0,0.0,0.0,0.0,0.0,0.0,0.0,0.0,0.0,0.0,0.0,0.0,0.0,0.0,0.0,0.0,0.0,0.0,0.0,0.0,0.0,0.0,0.0,0.0,0.0,0.0,0.0,0.0,0.0,0.0,0.0,0.0,0.0,0.0,0.0,0.0,0.0,0.0,0.0,0.0,0.0,0.0,0.0,0.0,0.0,0.0,0.0,0.0,0.0,0.0,0.0,0.0,0.0,0.0,0.0,0.0,0.0,0.0,0.0,0.0,0.0,0.0,0.0,0.0,0.0,0.0,0.0,0.0,0.0,0.0,0.0,0.0,0.0,0.0,0.0,0.0,0.0,0.0,0.0,0.0,0.0,0.0,0.0,0.0,0.0,0.0,0.0,0.0,0.0,0.0,0.0,0.0,0.0,0.0,0.0,0.0,0.0,0.0,0.0,0.0,0.0,0.0,0.0,0.0,1.3417,1.4896,1.5614,0.0,1.5706,0.0,0.0,0.0,0.0,0.0,0.0,0.0,0.0,0.0,0.0,0.0,0.0,0.0,0.0,0.0,0.0,0.0,0.0,0.0,0.0,0.0,0.0,0.0,0.0,0.0,0.0,0.0,0.0,0.0,0.0,0.0,0.0,0.0,0.0,0.0,0.0,0.0,0.0,0.0,0.0,0.0,0.0,0.0,0.0,0.0,0.0,0.0,0.0,0.0,0.0,0.0,0.0,0.0,0.0,0.0,0.0,0.0,0.0,0.0,0.0,0.0,0.0,0.0,0.0,0.0,0.0,0.0,0.0,0.0,0.0,0.0,0.0,0.0,0.0,0.0,0.0,0.0,0.0,0.0,0.0,0.0,0.0,0.0,0.0,0.0,0.0,0.0,0.0,0.0,0.0,0.0,0.0,0.0,0.0,0.0,0.0,0.0,0.0,0.0,0.0,0.0,0.0,0.0,0.0,0.0,0.0,0.0,0.0,0.0,0.0,1.3848,1.4513,1.5625,1.6159,0.0,0.0,0.0,0.0,0.0,0.0,0.0,0.0,0.0,0.0,0.0,0.0,0.0,0.0,0.0,0.0,0.0,0.0,0.0,0.0,0.0,0.0,0.0,0.0,0.0,0.0,0.0,0.0,0.0,0.0,0.0,0.0,0.0,0.0,0.0,0.0,0.0,0.0,0.0,0.0,0.0,0.0,0.0,0.0,0.0,0.0,0.0,0.0,0.0,0.0,0.0,0.0,0.0,0.0,0.0,0.0,0.0,0.0,0.0,0.0,0.0,0.0,0.0,0.0,0.0,0.0,0.0,0.0,0.0,0.0,0.0,0.0,0.0,0.0,0.0,0.0,0.0,0.0,0.0,0.0,0.0,0.0,0.0,0.0,0.0,0.0,0.0,0.0,0.0,0.0,0.0,0.0,0.0,0.0,0.0,0.0,0.0,0.0,0.0,0.0,0.0,0.0,0.0,0.0,0.0,0.0,0.0,0.0,0.0,0.0,1.3256,1.4375,1.4973,1.6047,1.647,1.6097,0.0,0.0,0.0,0.0,0.0,0.0,0.0,0.0,0.0,0.0,0.0,0.0,0.0,0.0,0.0,0.0,0.0,0.0,0.0,0.0,0.0,0.0,0.0,0.0,0.0,0.0,0.0,0.0,0.0,0.0,0.0,0.0,0.0,0.0,0.0,0.0,0.0,0.0,0.0,0.0,0.0,0.0,0.0,0.0,0.0,0.0,0.0,0.0,0.0,0.0,0.0,0.0,0.0,0.0,0.0,0.0,0.0,0.0,0.0,0.0,0.0,0.0,0.0,0.0,0.0,0.0,0.0,0.0,0.0,0.0,0.0,0.0,0.0,0.0,0.0,0.0,0.0,0.0,0.0,0.0,0.0,0.0,0.0,0.0,0.0,0.0,0.0,0.0,0.0,0.0,0.0,0.0,0.0,0.0,0.0,0.0,0.0,0.0,0.0,0.0,0.0,0.0,0.0,0.0,0.0,0.0,0.0,0.0,0.0,1.4422,1.5141,1.7234,1.7393,1.7031,0.0,0.0,0.0,0.0,0.0,0.0,0.0,0.0,0.0,0.0,0.0,0.0,0.0,0.0,0.0,0.0,0.0,0.0,0.0,0.0,0.0,0.0,0.0,0.0,0.0,0.0,0.0,0.0,0.0,0.0,0.0,0.0,0.0,0.0,0.0,0.0,0.0,0.0,0.0,0.0,0.0,0.0,0.0,0.0,0.0,0.0,0.0,0.0,0.0,0.0,0.0,0.0,0.0,0.0,0.0,0.0,0.0,0.0,0.0,0.0,0.0,0.0,0.0,0.0,0.0,0.0,0.0,0.0,0.0,0.0,0.0,0.0,0.0,0.0,0.0,0.0,0.0,0.0,0.0,0.0,0.0,0.0,0.0,0.0,0.0,0.0,0.0,0.0,0.0,0.0,0.0,0.0,0.0,0.0,0.0,0.0,0.0,0.0,0.0,0.0,0.0,0.0,0.0,0.0,0.0,0.0,0.0,0.0,0.0,1.2037,1.3337,1.5435,1.8204,1.7321,1.6557,0.0,0.0,0.0,0.0,0.0,0.0,0.0,0.0,0.0,0.0,0.0,0.0,0.0,0.0,0.0,0.0,0.0,0.0,0.0,0.0,0.0,0.0,0.0,0.0,0.0,0.0,0.0,0.0,0.0,0.0,0.0,0.0,0.0,0.0,0.0,0.0,0.0,0.0,0.0,0.0,0.0,0.0,0.0,0.0,0.0,0.0,0.0,0.0,0.0,0.0,0.0,0.0,0.0,0.0,0.0,0.0,0.0,0.0,0.0,0.0,0.0,0.0,0.0,0.0,0.0,0.0,0.0,0.0,0.0,0.0,0.0,0.0,0.0,0.0,0.0,0.0,0.0,0.0,0.0,0.0,0.0,0.0,0.0,0.0,0.0,0.0,0.0,0.0,0.0,0.0,0.0,0.0,0.0,0.0,0.0,0.0,0.0,0.0,0.0,0.0,0.0,0.0,0.0,0.0,0.0,0.0,0.0,0.0,0.0,1.189,0.0,1.6576,0.0,1.7263,1.6227,0.0,0.0,0.0,0.0,0.0,0.0,0.0,0.0,0.0,0.0,0.0,0.0,0.0,0.0,0.0,0.0,0.0,0.0,0.0,0.0,0.0,0.0,0.0,0.0,0.0,0.0,0.0,0.0,0.0,0.0,0.0,0.0,0.0,0.0,0.0,0.0,0.0,0.0,0.0,0.0,0.0,0.0,0.0,0.0,0.0,0.0,0.0,0.0,0.0,0.0,0.0,0.0,0.0,0.0,0.0,0.0,0.0,0.0,0.0,0.0,0.0,0.0,0.0,0.0,0.0,0.0,0.0,0.0,0.0,0.0,0.0,0.0,0.0,0.0,0.0,0.0,0.0,0.0,0.0,0.0,0.0,0.0,0.0,0.0,0.0,0.0,0.0,0.0,0.0,0.0,0.0,0.0,0.0,0.0,0.0,0.0,0.0,0.0,0.0,0.0,0.0,0.0,0.0,0.0,0.0,0.0,0.0,0.0,1.1863,1.5248,1.7644,1.8437,1.7668,1.7394,1.613,0.0,0.0,0.0,0.0,0.0,0.0,0.0,0.0,0.0,0.0,0.0,0.0,0.0,0.0,0.0,0.0,0.0,0.0,0.0,0.0,0.0,0.0,0.0,0.0,0.0,0.0,0.0,0.0,0.0,0.0,0.0,0.0,0.0,0.0,0.0,0.0,0.0,0.0,0.0,0.0,0.0,0.0,0.0,0.0,0.0,0.0,0.0,0.0,0.0,0.0,0.0,0.0,0.0,0.0,0.0,0.0,0.0,0.0,0.0,0.0,0.0,0.0,0.0,0.0,0.0,0.0,0.0,0.0,0.0,0.0,0.0,0.0,0.0,0.0,0.0,0.0,0.0,0.0,0.0,0.0,0.0,0.0,0.0,0.0,0.0,0.0,0.0,0.0,0.0,0.0,0.0,0.0,0.0,0.0,0.0,0.0,0.0,0.0,0.0,0.0,0.0,0.0,0.0,0.0,0.0,0.0,0.0,0.0,0.0,1.5169,1.6355,1.7651,1.8978,1.7298,1.6279,0.0,0.0,0.0,0.0,0.0,0.0,0.0,0.0,0.0,0.0,0.0,0.0,0.0,0.0,0.0,0.0,0.0,0.0,0.0,0.0,0.0,0.0,0.0,0.0,0.0,0.0,0.0,0.0,0.0,0.0,0.0,0.0,0.0,0.0,0.0,0.0,0.0,0.0,0.0,0.0,0.0,0.0,0.0,0.0,0.0,0.0,0.0,0.0,0.0,0.0,0.0,0.0,0.0,0.0,0.0,0.0,0.0,0.0,0.0,0.0,0.0,0.0,0.0,0.0,0.0,0.0,0.0,0.0,0.0,0.0,0.0,0.0,0.0,0.0,0.0,0.0,0.0,0.0,0.0,0.0,0.0,0.0,0.0,0.0,0.0,0.0,0.0,0.0,0.0,0.0,0.0,0.0,0.0,0.0,0.0,0.0,0.0,0.0,0.0,0.0,0.0,0.0,0.0,0.0,0.0,0.0,0.0,0.0,0.0,1.6431,1.7265,1.8311,1.9581,1.7799,1.6685,1.6383,0.0,0.0,0.0,0.0,0.0,0.0,0.0,0.0,0.0,0.0,0.0,0.0,0.0,0.0,0.0,0.0,0.0,0.0,0.0,0.0,0.0,0.0,0.0,0.0,0.0,0.0,0.0,0.0,0.0,0.0,0.0,0.0,0.0,0.0,0.0,0.0,0.0,0.0,0.0,0.0,0.0,0.0,0.0,0.0,0.0,0.0,0.0,0.0,0.0,0.0,0.0,0.0,0.0,0.0,0.0,0.0,0.0,0.0,0.0,0.0,0.0,0.0,0.0,0.0,0.0,0.0,0.0,0.0,0.0,0.0,0.0,0.0,0.0,0.0,0.0,0.0,0.0,0.0,0.0,0.0,0.0,0.0,0.0,0.0,0.0,0.0,0.0,0.0,0.0,0.0,0.0,0.0,0.0,0.0,0.0,0.0,0.0,0.0,0.0,0.0,0.0,0.0,0.0,0.0,0.0,0.0,0.0,0.0,1.8699,2.0008,2.0252,1.9449,1.8731,1.7356,0.0,0.0,0.0,0.0,0.0,0.0,0.0,0.0,0.0,0.0,0.0,0.0,0.0,0.0,0.0,0.0,0.0,0.0,0.0,0.0,0.0,0.0,0.0,0.0,0.0,0.0,0.0,0.0,0.0,0.0,0.0,0.0,0.0,0.0,0.0,0.0,0.0,0.0,0.0,0.0,0.0,0.0,0.0,0.0,0.0,0.0,0.0,0.0,0.0,0.0,0.0,0.0,0.0,0.0,0.0,0.0,0.0,0.0,0.0,0.0,0.0,0.0,0.0,0.0,0.0,0.0,0.0,0.0,0.0,0.0,0.0,0.0,0.0,0.0,0.0,0.0,0.0,0.0,0.0,0.0,0.0,0.0,0.0,0.0,0.0,0.0,0.0,0.0,0.0,0.0,0.0,0.0,0.0,0.0,0.0,0.0,0.0,0.0,0.0,0.0,0.0,0.0,0.0,0.0,0.0,0.0,0.0,0.0,0.0,1.9035,2.0797,2.1408,2.078,1.9101,1.7928,0.0,0.0,0.0,0.0,0.0,0.0,0.0,0.0,0.0,0.0,0.0,0.0,0.0,0.0,0.0,0.0,0.0,0.0,0.0,0.0,0.0,0.0,0.0,0.0,0.0,0.0,0.0,0.0,0.0,0.0,0.0,0.0,0.0,0.0,0.0,0.0,0.0,0.0,0.0,0.0,0.0,0.0,0.0,0.0,0.0,0.0,0.0,0.0,0.0,0.0,0.0,0.0,0.0,0.0,0.0,0.0,0.0,0.0,0.0,0.0,0.0,0.0,0.0,0.0,0.0,0.0,0.0,0.0,0.0,0.0,0.0,0.0,0.0,0.0,0.0,0.0,0.0,0.0,0.0,0.0,0.0,0.0,0.0,0.0,0.0,0.0,0.0,0.0,0.0,0.0,0.0,0.0,0.0,0.0,0.0,0.0,0.0,0.0,0.0,0.0,0.0,0.0,0.0,0.0,0.0,0.0,0.0,0.0,1.7969,1.952,2.1522,2.2251,2.1593,2.0343,1.9254,0.0,0.0,0.0,0.0,0.0,0.0,0.0,0.0,0.0,0.0,0.0,0.0,0.0,0.0,0.0,0.0,0.0,0.0,0.0,0.0,0.0,0.0,0.0,0.0,0.0,0.0,0.0,0.0,0.0,0.0,0.0,0.0,0.0,0.0,0.0,0.0,0.0,0.0,0.0,0.0,0.0,0.0,0.0,0.0,0.0,0.0,0.0,0.0,0.0,0.0,0.0,0.0,0.0,0.0,0.0,0.0,0.0,0.0,0.0,0.0,0.0,0.0,0.0,0.0,0.0,0.0,0.0,0.0,0.0,0.0,0.0,0.0,0.0,0.0,0.0,0.0,0.0,0.0,0.0,0.0,0.0,0.0,0.0,0.0,0.0,0.0,0.0,0.0,0.0,0.0,0.0,0.0,0.0,0.0,0.0,0.0,0.0,0.0,0.0,0.0,0.0,0.0,0.0,0.0,0.0,0.0,0.0,0.0,1.9136,2.0128,2.2139,2.2841,2.2157,2.1822,2.0706,0.0,0.0,0.0,0.0,0.0,0.0,0.0,0.0,0.0,0.0,0.0,0.0,0.0,0.0,0.0,0.0,0.0,0.0,0.0,0.0,0.0,0.0,0.0,0.0,0.0,0.0,0.0,0.0,0.0,0.0,0.0,0.0,0.0,0.0,0.0,0.0,0.0,0.0,0.0,0.0,0.0,0.0,0.0,0.0,0.0,0.0,0.0,0.0,0.0,0.0,0.0,0.0,0.0,0.0,0.0,0.0,0.0,0.0,0.0,0.0,0.0,0.0,0.0,0.0,0.0,0.0,0.0,0.0,0.0,0.0,0.0,0.0,0.0,0.0,0.0,0.0,0.0,0.0,0.0,0.0,0.0,0.0,0.0,0.0,0.0,0.0,0.0,0.0,0.0,0.0,0.0,0.0,0.0,0.0,0.0,0.0,0.0,0.0,0.0,0.0,0.0,0.0,0.0,0.0,0.0,0.0,0.0,0.0,1.9671,2.0929,2.2419,2.3118,2.2941,2.1532,2.0363,0.0,0.0,0.0,0.0,0.0,0.0,0.0,0.0,0.0,0.0,0.0,0.0,0.0,0.0,0.0,0.0,0.0,0.0,0.0,0.0,0.0,0.0,0.0,0.0,0.0,0.0,0.0,0.0,0.0,0.0,0.0,0.0,0.0,0.0,0.0,0.0,0.0,0.0,0.0,0.0,0.0,0.0,0.0,0.0,0.0,0.0,0.0,0.0,1.1545,0.0,0.0,0.0,0.0,0.0,0.0,0.0,0.0,0.0,0.0,0.0,0.0,0.0,0.0,0.0,0.0,0.0,0.0,0.0,0.0,0.0,0.0,0.0,0.0,0.0,0.0,0.0,0.0,0.0,0.0,0.0,0.0,0.0,0.0,0.0,0.0,0.0,0.0,0.0,0.0,0.0,0.0,0.0,0.0,0.0,0.0,0.0,0.0,0.0,0.0,0.0,0.0,0.0,0.0,0.0,0.0,0.0,0.0,0.0,1.9834,2.1166,2.2506,2.3189,2.3159,2.2211,2.1243,0.0,0.0,0.0,0.0,0.0,0.0,0.0,0.0,0.0,0.0,0.0,0.0,0.0,0.0,0.0,0.0,0.0,0.0,0.0,0.0,0.0,0.0,0.0,0.0,0.0,0.0,0.0,0.0,0.0,0.0,0.0,0.0,0.0,0.0,0.0,0.0,0.0,0.0,0.0,0.0,0.0,0.0,0.0,0.0,0.0,0.0,0.0,0.0,0.0,0.0,0.0,0.0,0.0,0.0,0.0,0.0,0.0,0.0,0.0,0.0,0.0,0.0,0.0,0.0,0.0,0.0,0.0,0.0,0.0,0.0,0.0,0.0,0.0,0.0,0.0,0.0,0.0,0.0,0.0,0.0,0.0,0.0,0.0,0.0,0.0,0.0,0.0,0.0,0.0,0.0,0.0,0.0,0.0,0.0,0.0,0.0,0.0,0.0,0.0,0.0,0.0,0.0,0.0,0.0,0.0,0.0,0.0,1.8322,1.9867,2.1319,2.2576,2.3189,2.3183,2.3192,2.2565,2.1227,0.0,0.0,0.0,0.0,0.0,0.0,0.0,0.0,0.0,0.0,0.0,0.0,0.0,0.0,0.0,0.0,0.0,0.0,0.0,0.0,0.0,0.0,0.0,0.0,0.0,0.0,0.0,0.0,0.0,0.0,0.0,0.0,0.0,0.0,0.0,0.0,0.0,0.0,1.2589,1.426,0.0,0.0,0.0,0.0,0.0,0.0,0.0,0.0,1.3225,0.0,0.0,0.0,0.0,0.0,0.0,0.0,0.0,0.0,0.0,0.0,0.0,0.0,0.0,0.0,0.0,0.0,0.0,0.0,0.0,0.0,0.0,0.0,0.0,0.0,0.0,0.0,0.0,0.0,0.0,0.0,0.0,0.0,0.0,0.0,0.0,0.0,0.0,0.0,0.0,0.0,0.0,0.0,0.0,0.0,0.0,0.0,0.0,0.0,0.0,0.0,0.0,0.0,0.0,0.0,0.0,1.8884,1.896,1.998,2.2057,2.2825,2.3189,2.3212,2.3728,2.3386,2.2018,0.0,0.0,0.0,0.0,0.0,0.0,0.0,0.0,0.0,0.0,0.0,0.0,0.0,0.0,0.0,0.0,0.0,0.0,0.0,0.0,0.0,0.0,0.0,0.0,0.0,0.0,0.0,0.0,0.0,0.0,0.0,0.0,0.0,0.0,0.0,0.0,0.0,0.0,0.0,1.5658,1.6639,0.0,0.0,0.0,0.0,0.0,0.0,0.0,0.0,1.3382,0.0,0.0,0.0,0.0,0.0,0.0,0.0,0.0,0.0,0.0,0.0,0.0,0.0,0.0,0.0,0.0,0.0,0.0,0.0,0.0,0.0,0.0,0.0,0.0,0.0,0.0,0.0,0.0,0.0,0.0,0.0,0.0,0.0,0.0,0.0,0.0,0.0,0.0,0.0,0.0,0.0,0.0,0.0,0.0,0.0,0.0,0.0,0.0,0.0,0.0,0.0,0.0,0.0,0.0,0.0,1.8561,1.9218,2.0471,2.2476,2.2982,2.3288,2.3448,2.3145,2.2527,0.0,0.0,0.0,0.0,0.0,0.0,0.0,0.0,0.0,0.0,0.0,0.0,0.0,0.0,0.0,0.0,0.0,0.0,0.0,0.0,0.0,0.0,0.0,0.0,0.0,0.0,0.0,0.0,0.0,0.0,0.0,0.0,0.0,0.0,0.0,0.0,0.0,0.0,0.0,0.0,1.6,1.6864,1.6408,0.0,0.0,0.0,0.0,0.0,0.0,1.4052,1.4085,0.0,0.0,0.0,0.0,0.0,0.0,0.0,0.0,0.0,0.0,0.0,0.0,0.0,0.0,0.0,0.0,0.0,0.0,0.0,0.0,0.0,0.0,0.0,0.0,0.0,0.0,0.0,0.0,0.0,0.0,0.0,0.0,0.0,0.0,0.0,0.0,0.0,0.0,0.0,0.0,0.0,0.0,0.0,0.0,0.0,0.0,0.0,0.0,0.0,0.0,0.0,0.0,0.0,0.0,0.0,1.7879,1.9084,2.0701,2.2673,2.3051,2.3357,2.3646,2.2629,2.1713,0.0,0.0,0.0,0.0,0.0,0.0,0.0,0.0,0.0,0.0,0.0,0.0,0.0,0.0,0.0,0.0,0.0,0.0,0.0,0.0,0.0,0.0,0.0,0.0,0.0,0.0,0.0,0.0,0.0,0.0,0.0,0.0,0.0,0.0,0.0,0.0,0.0,0.0,0.0,0.0,0.0,1.7305,1.7359,1.6329,0.0,0.0,0.0,0.0,1.4838,1.5369,0.0,0.0,0.0,0.0,0.0,0.0,0.0,0.0,0.0,0.0,0.0,0.0,0.0,0.0,0.0,0.0,0.0,0.0,0.0,0.0,0.0,0.0,0.0,0.0,0.0,0.0,0.0,0.0,0.0,0.0,0.0,0.0,0.0,0.0,0.0,0.0,0.0,0.0,0.0,0.0,0.0,0.0,0.0,0.0,0.0,0.0,0.0,0.0,0.0,0.0,0.0,0.0,0.0,0.0,0.0,0.0,1.7347,1.8216,1.9908,2.2574,2.3033,2.3357,2.3692,2.3149,2.2278,0.0,0.0,0.0,0.0,0.0,0.0,0.0,0.0,0.0,0.0,0.0,0.0,0.0,0.0,0.0,0.0,0.0,0.0,0.0,0.0,0.0,0.0,0.0,0.0,0.0,0.0,0.0,0.0,0.0,0.0,0.0,0.0,0.0,0.0,0.0,0.0,0.0,0.0,0.0,0.0,0.0,1.9085,1.6929,1.7065,1.7372,0.0,0.0,1.6749,1.8164,1.7948,0.0,0.0,0.0,0.0,0.0,0.0,0.0,0.0,0.0,0.0,0.0,0.0,0.0,0.0,0.0,0.0,0.0,0.0,0.0,0.0,0.0,0.0,0.0,0.0,0.0,0.0,0.0,0.0,0.0,0.0,0.0,0.0,0.0,0.0,0.0,0.0,0.0,0.0,0.0,0.0,0.0,0.0,0.0,0.0,0.0,0.0,0.0,0.0,0.0,0.0,0.0,0.0,0.0,0.0,0.0,1.4345,1.7332,1.8851,2.0702,2.2872,2.3129,2.3437,2.3976,2.2518,2.1295,0.0,0.0,0.0,0.0,0.0,0.0,0.0,0.0,0.0,0.0,0.0,0.0,0.0,0.0,0.0,0.0,0.0,0.0,0.0,0.0,0.0,0.0,0.0,0.0,0.0,0.0,0.0,0.0,0.0,0.0,0.0,0.0,0.0,0.0,0.0,0.0,0.0,0.0,0.0,0.0,0.0,0.0,1.8656,1.8597,0.0,0.0,0.0,1.8119,1.8333,0.0,0.0,0.0,0.0,0.0,0.0,0.0,0.0,0.0,0.0,0.0,0.0,0.0,0.0,0.0,0.0,0.0,0.0,0.0,0.0,0.0,0.0,0.0,0.0,0.0,0.0,0.0,0.0,0.0,0.0,0.0,0.0,0.0,0.0,0.0,0.0,0.0,0.0,0.0,0.0,0.0,0.0,0.0,0.0,0.0,0.0,0.0,0.0,0.0,0.0,0.0,0.0,0.0,0.0,0.0,0.0,0.0,1.7126,1.9285,2.1203,2.287,2.3105,2.3471,2.4009,2.2148,0.0,0.0,0.0,0.0,0.0,0.0,0.0,0.0,0.0,0.0,0.0,0.0,0.0,0.0,0.0,0.0,0.0,0.0,0.0,0.0,0.0,0.0,0.0,0.0,0.0,0.0,0.0,0.6263,0.0,0.0,0.0,0.0,0.0,0.0,0.0,0.0,0.0,0.0,0.0,0.0,0.0,0.0,1.8586,1.9864,1.9553,1.9286,0.0,0.0,1.9121,1.8646,1.9159,1.9043,0.0,0.0,0.0,0.0,0.0,0.0,0.0,0.0,0.0,0.0,0.0,0.0,0.0,0.0,0.0,0.0,0.0,0.0,0.0,0.0,0.0,0.0,0.0,0.0,0.0,0.0,0.0,0.0,0.0,0.0,0.0,0.0,0.0,0.0,0.0,0.0,0.0,0.0,0.0,0.0,0.0,0.0,0.0,0.0,0.0,0.0,0.0,0.0,0.0,0.0,0.0,0.0,0.0,0.0,1.4244,1.6454,1.8821,2.0737,2.2146,2.2838,2.3369,2.3706,2.2545,2.1212,0.0,0.0,0.0,0.0,0.0,0.0,0.0,0.0,0.0,0.0,0.0,0.0,0.0,0.0,0.0,0.0,0.0,0.0,0.0,0.0,0.0,0.0,0.0,0.0,0.0,0.0,0.0,0.0,0.0,0.0,0.0,0.0,0.0,0.0,0.0,0.0,0.0,0.0,0.0,0.0,0.0,1.9079,1.9262,1.9238,1.9503,0.0,1.9824,1.9551,2.0312,2.0449,1.9902,1.8184,0.0,0.0,0.0,0.0,0.0,0.0,0.0,0.0,0.0,0.0,0.0,0.0,0.0,0.0,0.0,0.0,0.0,0.0,0.0,0.0,0.0,0.0,0.0,0.0,0.0,0.0,0.0,0.0,0.0,0.0,0.0,0.0,0.0,0.0,0.0,0.0,0.0,0.0,0.0,0.0,0.0,0.0,0.0,0.0,0.0,0.0,0.0,0.0,0.0,0.0,0.0,0.0,0.0,1.4372,1.61,1.8811,2.0796,2.2051,2.2367,2.29,2.3682,2.2401,2.107,0.0,0.0,0.0,0.0,0.0,0.0,0.0,0.0,0.0,0.0,0.0,0.0,0.0,0.0,0.0,0.0,0.0,0.0,0.0,0.0,0.0,0.0,0.0,0.0,0.0,0.0,0.0,0.0,0.9504,0.9711,0.9726,0.0,0.0,0.0,0.0,0.0,0.0,0.0,0.0,0.0,0.0,2.0027,2.0601,2.0747,0.0,0.0,2.0642,2.0215,2.0547,2.0137,1.9394,1.8203,1.7515,0.0,0.0,0.0,0.0,0.0,0.0,0.0,0.0,0.0,0.0,0.0,0.0,0.0,0.0,0.0,0.0,0.0,0.0,0.0,0.0,0.0,0.0,0.0,0.0,0.0,0.0,0.0,0.0,0.0,0.0,0.0,0.0,0.0,0.0,0.0,0.0,0.0,0.0,0.0,0.0,0.0,0.0,0.0,0.0,0.0,0.0,0.0,0.0,0.0,0.0,0.0,0.0,1.4694,1.5964,1.882,2.0717,2.1543,2.191,2.2513,2.3309,2.2394,2.1308,0.0,0.0,0.0,0.0,0.0,0.0,0.0,0.0,0.0,0.0,0.0,0.0,0.0,0.0,0.0,0.0,0.0,0.0,0.0,0.0,0.0,0.0,0.0,0.0,0.0,0.0,0.0,0.0,1.0742,1.0468,1.0223,0.0,0.0,0.0,0.0,0.0,0.0,0.0,0.0,0.0,0.0,2.0666,2.1763,2.1829,2.176,2.1771,2.1075,2.0541,2.0564,2.0272,1.9667,1.8574,0.0,0.0,0.0,0.0,0.0,0.0,0.0,0.0,0.0,0.0,0.0,0.0,0.0,0.0,0.0,0.0,0.0,0.0,0.0,0.0,0.0,0.0,0.0,0.0,0.0,0.0,0.0,1.3846,0.0,0.0,1.3484,0.0,0.0,0.0,0.0,0.0,0.0,0.0,0.0,0.0,0.0,0.0,0.0,0.0,0.0,0.0,0.0,0.0,0.0,0.0,0.0,0.0,0.0,1.5182,1.6105,1.885,2.0314,2.0383,2.1483,2.2269,2.2607,2.2635,2.2109,2.0921,0.0,0.0,0.0,0.0,0.0,0.0,0.0,0.0,0.0,0.0,0.0,0.0,0.0,0.0,0.0,0.0,0.0,0.0,0.0,0.0,0.0,0.0,0.0,0.0,0.0,0.0,1.256,1.1956,1.1116,0.0,0.0,0.0,0.0,0.0,0.0,0.0,0.0,0.0,1.9442,1.9962,2.0739,2.243,2.2078,2.1693,2.1755,2.1011,2.045,2.0524,2.1172,2.118,0.0,0.0,0.0,0.0,0.0,0.0,0.0,0.0,0.0,0.0,0.0,0.0,0.0,0.0,0.0,0.0,0.0,0.0,0.0,0.0,0.0,0.0,0.0,0.0,0.0,0.0,0.0,1.6514,1.5638,0.0,0.0,0.0,0.0,0.0,0.0,0.0,0.0,0.0,0.0,0.0,1.7751,1.8947,0.0,0.0,0.0,0.0,0.0,0.0,0.0,0.0,0.0,0.0,0.0,0.0,1.4906,1.5858,1.8488,2.0035,2.0297,2.1007,2.1665,2.2252,2.2033,2.095,1.8937,0.0,0.0,0.0,0.0,0.0,0.0,0.0,0.0,0.0,0.0,0.0,0.0,0.0,0.0,0.0,0.0,0.0,0.0,0.0,0.0,0.0,0.0,0.0,0.0,0.0,1.1602,0.0,0.0,0.0,0.0,0.0,0.0,0.0,0.0,0.0,0.0,0.0,1.9125,2.0438,2.161,2.2563,2.3154,2.3174,2.3144,0.0,0.0,0.0,0.0,0.0,0.0,0.0,0.0,0.0,0.0,0.0,0.0,0.0,0.0,2.2622,1.9484,1.885,1.8596,1.8024,0.0,0.0,0.0,0.0,0.0,0.0,0.0,0.0,0.0,0.0,0.0,0.0,0.0,0.0,1.7821,1.7121,1.6722,0.0,0.0,0.0,0.0,0.0,0.0,0.0,0.0,1.7886,1.8907,1.9412,2.0365,2.0309,0.0,1.9367,1.7977,0.0,0.0,0.0,0.0,0.0,0.0,0.0,0.0,1.5341,1.626,1.8496,1.9836,2.0104,2.0532,2.1117,2.1864,2.1793,2.0764,1.8713,1.7807,1.6734,0.0,0.0,0.0,0.0,0.0,0.0,0.0,0.0,0.0,0.0,0.0,0.0,0.0,0.0,0.0,0.0,0.0,0.0,0.0,0.0,0.0,0.0,0.0,1.2113,0.0,0.0,0.0,0.0,0.0,0.0,0.0,0.0,0.0,1.8114,1.9132,2.0189,2.1529,2.2682,2.3543,2.3806,0.0,0.0,0.0,0.0,0.0,0.0,0.0,2.1512,2.1241,2.1052,2.1099,2.1588,2.2831,2.3617,2.3025,0.0,0.0,2.1716,2.1187,2.1023,2.0773,2.1277,2.1677,2.1464,2.207,2.2506,0.0,0.0,0.0,0.0,0.0,0.0,0.0,0.0,1.8731,1.8635,0.0,1.7815,0.0,0.0,0.0,0.0,1.4694,1.5962,0.0,0.0,1.9836,2.0871,2.1307,2.0897,2.0661,2.0647,2.0749,2.0145,1.8774,1.6668,0.0,0.0,0.0,0.0,0.0,0.0,1.6579,1.7409,1.8991,1.9783,1.9789,2.0152,2.0716,2.1467,2.1911,2.152,2.0253,1.9651,1.8423,1.6372,1.5556,0.0,0.0,0.0,0.0,0.0,0.0,0.0,0.0,0.0,0.0,0.0,0.0,0.0,0.0,0.0,0.0,0.0,0.0,0.0,0.0,1.3254,0.0,0.0,0.0,0.0,0.0,0.0,0.0,0.0,0.0,0.0,1.8913,1.9413,2.0448,2.2739,0.0,0.0,0.0,0.0,2.3547,2.3535,2.2818,2.2318,2.2328,2.3197,2.3576,2.2817,0.0,0.0,2.2025,2.2453,2.3041,2.2923,2.3669,2.4432,2.5253,2.4027,2.3342,2.4014,2.3603,2.3398,2.4133,2.4676,2.5262,2.2445,0.0,0.0,0.0,0.0,2.1489,2.2145,2.3085,2.2231,2.1602,2.1092,2.0014,0.0,0.0,0.0,0.0,0.0,0.0,1.869,1.9368,2.0258,2.0961,2.1492,2.176,2.1875,2.1888,2.1518,2.1181,2.0751,1.9723,1.7887,1.54,0.0,0.0,0.0,0.0,1.8165,1.9301,2.0503,2.0887,2.0423,2.0806,2.1053,2.1134,2.1224,2.1093,2.0711,2.0792,2.0058,1.8285,1.7747,0.0,0.0,0.0,0.0,0.0,0.0,0.0,0.0,0.0,0.0,0.0,0.0,0.0,0.0,0.0,0.0,0.0,0.0,0.0,1.1955,1.2688,1.2986,0.0,0.0,0.0,0.0,0.0,0.0,0.0,0.0,0.0,1.9984,2.0994,2.219,0.0,0.0,2.4026,2.4248,2.4239,2.4204,2.4222,2.4122,0.0,2.3232,2.3404,2.3537,2.3315,2.4149,2.471,2.4428,2.459,2.4752,2.4725,2.4925,2.5192,2.5371,2.5096,2.4823,2.5076,2.4931,2.4853,2.5124,2.5357,2.5513,2.5148,2.3631,2.2916,2.2601,2.2628,2.2892,2.3589,2.4556,2.3841,2.3416,2.3218,2.2258,2.0949,1.9391,1.8187,0.0,0.0,0.0,2.0374,2.1102,2.1481,2.182,2.2121,2.2291,2.2358,2.2347,2.1826,2.1685,2.1911,2.1335,1.9929,1.7756,0.0,0.0,1.7646,1.851,1.9448,2.0398,2.1252,2.15,2.1096,2.1234,2.1241,2.1109,2.0997,2.0943,2.0901,2.1127,2.0664,1.9413,1.8938,1.7651,0.0,0.0,0.0,0.0,0.0,0.0,0.0,0.0,0.0,0.0,0.0,1.1295,0.9812,0.0,0.0,0.0,1.2054,1.2525,1.3455,1.392,0.0,0.0,0.0,0.0,0.0,0.0,0.0,1.8104,1.9401,2.0518,2.1281,2.2347,2.3312,2.3909,2.4132,2.4199,2.4199,0.0,2.4727,2.4439,2.4766,2.4748,2.3929,2.3843,2.3926,2.4014,2.4531,2.5034,2.5251,2.5306,2.5317,2.5404,2.5415,2.5428,2.5443,2.5423,2.5407,2.5486,2.5504,2.5504,2.5503,2.5504,2.5503,2.7871,2.718,2.4607,2.3484,2.3484,2.4042,2.4268,2.4255,2.4217,2.4456,2.48,2.4305,2.3464,2.2359,2.0828,0.0,2.1681,2.1719,2.2297,2.3233,2.3246,2.3221,2.3145,2.2656,2.2422,2.2359,2.1807,2.1837,2.2348,2.1891,2.1367,2.076,2.0493,2.022,1.9978,2.018,2.0569,2.1112,2.1608,2.1849,2.1769,2.1442,2.1263,2.1265,2.1061,2.0919,2.0896,2.0905,2.0622,1.997,1.9378,1.8067,1.5968,0.0,0.0,0.0,0.0,0.0,0.0,0.0,0.0,0.0,0.0,0.0,0.0,0.0,0.0,0.0,1.3859,0.0,1.6203,1.6282,0.0,0.0,0.0,1.6997,1.7048,1.8195,1.9041,1.9147,0.0,0.0,2.2669,2.3482,2.3946,2.3809,2.4099,2.4334,2.4344,2.4951,2.5136,2.4448,2.4842,2.5035,2.4284,2.4292,2.447,2.464,2.4775,2.4823,2.4968,2.4985,2.5052,2.5244,2.5274,2.5298,2.5379,2.5371,2.5427,2.5471,2.5493,2.5517,2.5509,2.5511,2.5513,2.8624,2.8436,2.7381,2.6691,2.6314,2.644,2.6502,2.6477,2.6084,2.5745,2.5372,2.4845,2.4243,2.3577,2.3175,2.315,2.3414,2.3841,2.4167,2.4387,2.4387,2.4205,2.3803,2.3665,2.3364,2.2895,2.2372,2.2166,2.2299,2.2264,2.2128,2.2008,2.2399,2.1894,2.0608,2.1539,2.2378,2.2946,2.3103,2.2906,2.2448,2.1407,2.0847,2.0847,2.0597,2.062,2.0969,2.0966,2.0747,2.0296,1.9843,1.8843,1.7142,1.5653,0.0,0.0,0.0,0.0,0.0,0.0,0.0,0.0,0.0,1.3486,1.0754,0.0,1.4081,0.0,1.6457,1.7213,1.7407,1.7399,0.0,0.0,1.7929,1.828,1.9938,1.9891,2.02,2.138,2.231,2.3047,2.3488,2.4245,2.4733,2.4702,2.5194,2.5584,2.5584,2.545,2.5348,2.5136,2.4787,2.442,2.4254,2.4237,2.4339,2.4526,2.4586,2.4639,2.4821,2.4849,2.4891,2.5041,2.5082,2.5138,2.5289,2.5336,2.5321,2.5346,2.5425,2.551,2.551,2.551,2.551,2.9315,2.9289,2.8976,2.8674,2.836,2.7871,2.7645,2.762,2.7318,2.7005,2.6678,2.6151,2.546,2.4732,2.4707,2.4707,2.4732,2.5034,2.5172,2.5172,2.5172,2.4883,2.4356,2.4117,2.3841,2.3484,2.292,2.2644,2.2648,2.2439,2.2354,2.2382,2.275,2.2456,2.1539,2.2255,2.2839,2.3187,2.345,2.3445,2.3107,2.2099,2.144,2.1141,2.0709,2.0566,2.0682,2.0423,2.0115,1.9742,1.9353,1.8435,1.6902,1.5774,1.4759,0.0,0.0,0.0,0.0,0.0,0.0,0.0,0.0,0.0,0.0,0.0,1.5078,1.5795,1.7271,1.8286,1.8489,1.9,1.9739,2.0784,2.0264,2.0551,2.246,2.1989,2.1972,2.3139,2.363,2.4085,2.4526,2.4999,2.5394,2.5718,2.6222,2.6423,2.6051,2.5792,2.5721,2.5876,2.5264,2.4585,2.4273,2.4199,2.4219,2.433,2.4366,2.4426,2.4623,2.4662,2.4712,2.4871,2.4917,2.4936,2.5043,2.5086,2.5086,2.5096,2.5187,2.5306,2.5394,2.542,2.542,2.9779,2.9779,2.9779,2.9779,2.9716,2.8737,2.8285,2.821,2.821,2.8172,2.8072,2.7607,2.6791,2.5824,2.5812,2.5762,2.5711,2.5699,2.5711,2.5711,2.5711,2.5435,2.4876,2.4431,2.4167,2.4079,2.3496,2.3221,2.3195,2.2686,2.238,2.2397,2.2472,2.245,2.2413,2.252,2.2651,2.2815,2.3253,2.3508,2.3595,2.3017,2.2373,2.171,2.1051,2.0585,2.0296,1.9694,1.928,1.9024,1.8602,1.7756,1.6422,1.5775,1.5325,0.0,1.425,0.0,0.0,0.0,0.0,0.0,0.0,0.0,0.0,1.6071,1.6129,1.5854,1.7636,1.9026,1.9677,2.0811,2.2037,2.3236,2.2926,2.3105,2.4305,2.3915,2.3799,2.4491,2.4609,2.4898,2.5609,2.5744,2.6015,2.6521,2.6899,2.6894,2.6333,2.6134,2.6225,2.6571,2.5928,2.5087,2.4405,2.4217,2.42,2.4158,2.4123,2.4219,2.4418,2.4479,2.4528,2.4708,2.476,2.4775,2.4797,2.4811,2.4811,2.4832,2.493,2.5075,2.521,2.5303,2.5308,2.9779,2.9779,2.9779,2.9779,2.9779,2.9566,2.9202,2.8737,2.8725,2.8487,2.8097,2.7984,2.7595,2.6979,2.7002,2.6716,2.6336,2.6336,2.6336,2.6323,2.6336,2.6021,2.546,2.5335,2.5071,2.4644,2.4104,2.3841,2.3828,2.3221,2.2945,2.2945,2.2963,2.2761,2.2331,0.0,0.0,0.0,2.3022,2.3113,2.3558,2.2996,2.2373,2.171,2.1066,0.0,2.0278,1.9613,1.9388,1.9668,1.9056,0.0,0.0,0.0,0.0,0.0,0.0,0.0,0.0,0.0,0.0,0.0,1.7333,1.7392,1.6504,1.8031,1.884,1.8289,2.0064,2.1343,2.1504,2.254,2.334,2.3604,2.3905,2.4203,2.4474,2.4357,2.4508,2.5001,2.5237,2.5659,2.6319,2.6488,2.6522,2.6657,2.6741,2.6884,2.7039,2.6729,2.6584,2.6596,2.5966,2.5216,2.439,2.4284,2.4109,2.3898,2.3795,2.3909,2.4172,2.4247,2.4312,2.4501,2.4551,2.4626,2.4753,2.4804,2.4775,2.4797,2.4904,2.4997,2.5065,2.5179,2.5308,3.0043,2.9792,2.9779,2.9779,0.0,2.9779,2.9628,2.934,2.9352,2.9038,2.8524,2.8511,2.821,2.7695,2.7695,2.7381,2.6901,2.6901,2.6751,2.6499,2.6487,2.6336,2.6059,2.5724,2.5448,2.5172,2.4393,2.3991,2.3966,2.3384,2.3095,2.3095,2.3095,2.297,2.2681,2.2447,2.2504,2.2953,2.3045,2.3247,2.3515,2.3273,2.2853,2.2209,2.1545,0.0,0.0,0.0,0.0,0.0,0.0,0.0,0.0,0.0,0.0,1.7593,1.7547,1.7623,1.7815,1.8131,1.8564,1.9136,1.9794,1.9843,1.9123,2.0131,2.0645,2.0304,2.143,2.2153,2.2171,2.2879,2.3494,2.3836,2.3815,2.4016,2.4642,2.451,2.4645,2.5463,2.5714,2.6033,2.6624,2.6708,2.6708,2.6708,2.6708,2.6775,2.6919,2.6645,2.6352,2.6161,2.5809,2.5367,2.4913,2.4148,2.3897,2.3898,2.3694,2.3624,2.3896,2.3947,2.4037,2.4266,2.4348,2.4393,2.4469,2.4503,2.4512,2.4528,2.4643,2.4802,2.4884,2.5126,2.5308,3.0432,2.9942,2.9942,2.988,2.9779,2.9779,2.9779,2.9779,2.9779,0.0,0.0,2.9038,2.8737,2.826,2.826,2.7946,2.7431,2.7354,2.7077,2.6637,2.6537,2.6487,2.6474,2.6009,2.5749,2.5699,2.4745,2.423,2.413,2.3534,2.3208,2.3108,2.3095,2.3095,2.307,2.2656,2.248,2.254,2.3034,2.3338,2.3331,2.3493,2.3264,2.2557,2.2103,2.156,2.0882,1.9824,1.9226,1.9211,1.87,1.8401,1.8401,1.8401,1.8657,1.9211,1.9753,2.0288,2.0838,2.1395,2.1739,2.1859,2.1859,2.1829,2.171,2.1695,2.1695,2.1695,2.2089,2.2382,2.2382,2.2908,2.3507,2.4084,2.3692,2.3927,2.4958,2.4684,2.4745,2.5648,2.5819,2.5997,2.6333,2.6385,2.6487,2.6556,2.6539,2.6624,2.6657,2.6459,2.6174,2.592,2.5855,2.5711,2.5347,2.4419,2.3711,2.4083,2.3575,2.3283,2.3577,2.3721,2.3827,2.417,2.419,2.4209,2.4199,2.4228,2.4199,2.4199,2.4375,2.4553,2.4712,2.5012,2.5234,3.0972,3.0495,3.0507,3.0231,2.9779,2.9779,2.9779,2.9779,2.9779,2.9741,2.9679,2.9679,2.934,2.8775,2.8775,2.8499,2.7971,2.7494,2.7278,2.7178,2.6713,2.6487,2.6487,2.6411,2.6373,2.6323,2.5674,2.5134,2.4682,2.4142,2.3627,2.3158,2.3095,2.3095,2.3095,2.3032,2.3004,2.2993,2.2712,2.2612,2.2737,2.3221,2.2985,2.1954,2.2327,2.2254,2.1575,2.1331,2.1276,2.1261,2.1186,2.1141,2.1126,2.1077,2.1171,2.1261,2.135,2.147,2.156,2.165,2.1949,2.2493,2.2568,2.2328,2.1754,2.1695,2.1695,2.1724,2.232,2.2641,2.2706,2.3554,2.4164,2.4324,2.4673,2.499,2.5128,2.5029,2.5003,2.5281,2.5316,2.5335,2.5451,2.5486,2.5654,2.5979,2.6156,2.6262,2.6607,2.6674,2.6605,2.6535,2.6517,2.6262,2.571,2.4899,2.4256,2.3973,2.3332,2.3025,2.3522,2.3649,2.3774,2.4141,2.418,2.4199,2.4199,2.4199,2.4199,2.4209,2.4348,2.4503,2.4569,2.4836,2.5099,3.1524,3.1022,3.0733,3.047,3.0218,2.993,2.9779,2.9779,2.9779,2.9779,2.9779,2.9779,2.9654,2.9415,2.9402,2.9089,2.8524,2.7984,2.757,2.7291,2.6751,2.6487,2.6487,2.6487,2.6487,2.6449,2.5875,2.5473,2.5209,2.4707,2.4155,2.3572,2.3258,2.3095,2.3095,2.3095,2.3095,2.3095,2.2969,2.2908,2.2977,2.3273,2.3038,2.2203,2.2449,2.2322,2.1729,2.1348,2.1158,2.1158,2.0849,2.0662,2.0662,2.0676,2.0808,2.1152,2.1489,2.1875,2.2218,2.2532,2.2847,2.3182,2.3176,2.3056,2.2757,2.2727,2.2712,2.2727,2.3026,2.3182,2.3197,2.3649,2.397,2.3985,2.4184,2.4328,2.4328,2.4343,2.445,2.4697,2.4756,2.4875,2.5163,2.5202,2.5259,2.5559,2.5779,2.6174,2.6624,2.6708,2.6708,2.6674,2.6387,2.6201,2.6099,2.5218,2.4516,2.4237,2.3585,2.3152,2.3222,2.3271,2.3555,2.3876,2.4064,2.418,2.4199,2.4199,2.4199,2.4199,2.4247,2.4357,2.4485,2.478,2.5059,3.2089,3.1537,3.1135,3.0846,3.0595,3.0156,2.9905,2.9792,2.9779,2.9779,2.9779,2.9779,2.9779,2.9779,2.9779,2.9553,2.9089,2.8536,2.7996,2.7444,2.6927,2.6612,2.6512,2.6487,2.6487,2.6449,2.6,2.5737,2.5561,2.5164,2.4657,2.4017,2.3384,2.3095,2.3095,2.3095,2.3095,2.31,2.3212,2.3189,2.3087,2.3259,2.3117,2.2606,2.2524,2.2354,2.1908,2.1282,2.0991,2.1112,2.0564,2.0343,2.063,2.0534,2.0717,2.1318,2.1823,2.2344,2.2864,2.3325,2.3595,2.3595,2.3595,2.3595,2.3595,2.3595,2.3595,2.3595,2.3565,2.358,2.3565,2.3595,2.3595,2.3595,2.3595,2.3659,2.3595,2.3595,2.3745,2.4158,2.4204,2.4389,2.4716,2.4835,2.4855,2.5031,2.5577,2.6139,2.647,2.6624,2.6708,2.659,2.6201,2.6116,2.6539,2.5625,2.4795,2.4575,2.3879,2.3283,2.2972,2.3009,2.3323,2.3671,2.3996,2.417,2.4199,2.4199,2.4199,2.4199,2.4218,2.4266,2.4469,2.4697,2.4974,3.2654,3.2164,3.2051,3.1499,3.0658,3.0557,3.0256,2.9842,2.9792,2.9779,2.9779,2.9779,2.9779,2.9779,2.9779,2.9741,2.9628,2.9114,2.8499,2.7984,2.7469,2.6977,2.6512,2.6487,2.6487,2.6487,2.6411,2.6122,2.5661,2.5523,2.4996,2.4042,2.3384,2.3095,2.3095,2.3095,2.3095,2.3095,2.3105,2.29,2.245,2.2979,2.3025,2.2431,2.2532,2.2577,2.2425,2.1924,2.1871,2.2409,2.1797,2.1995,2.2922,2.2686,2.2664,2.3198,2.3352,2.3477,2.3505,2.3565,2.3595,2.3595,2.3595,2.3595,2.3595,2.3595,2.3595,2.3595,2.3595,2.3595,2.3595,2.3595,2.3595,2.3595,2.3595,2.3595,2.3595,2.3595,2.3616,2.3659,2.373,2.3702,2.3858,2.3879,2.4012,2.4511,2.5259,2.5906,2.6122,2.6419,2.6657,2.6674,2.6607,2.659,2.6607,2.6065,2.522,2.4609,2.3866,2.3264,2.2915,2.2935,2.3282,2.3448,2.3927,2.4141,2.417,2.4199,2.4199,2.4199,2.4209,2.4266,2.4454,2.4561,2.4712,3.2943,3.2704,3.2365,3.1775,3.1085,3.0758,3.0495,3.0256,2.993,2.9779,2.9779,2.9779,2.9779,2.9779,2.9779,2.9779,2.9741,2.9164,2.8637,2.8084,2.7532,2.7027,2.6537,2.6487,2.6487,2.6487,2.6487,2.6361,2.6059,2.546,2.4921,2.4431,2.3559,2.3108,2.3095,2.3095,2.3095,2.3095,2.3095,2.2995,2.2836,2.3052,2.2917,2.2449,2.276,2.2669,2.2079,2.1757,2.1623,2.1541,2.0928,2.0817,2.1315,2.1486,2.1856,2.2455,2.3194,2.3595,2.3595,2.3595,2.3595,2.3595,2.3595,2.3595,2.3595,2.3595,2.3595,2.3595,2.3595,2.3595,2.3595,2.3595,2.3595,2.3595,2.3595,2.3595,2.3595,2.3595,2.3595,2.3595,2.3595,2.3595,2.3595,2.3595,2.3837,2.4287,2.4835,2.5259,2.5852,2.6174,2.6384,2.6624,2.6708,2.6708,2.664,2.6099,2.5355,2.4626,2.3881,2.3223,2.2685,2.2717,2.2972,2.3105,2.3588,2.3896,2.3886,2.4094,2.4199,2.4199,2.4199,2.4237,2.4312,2.4409,2.4596,3.3124,3.3048,3.2616,3.2139,3.1587,3.1223,3.0884,3.0583,3.0193,2.993,2.9792,2.9779,2.9779,2.9779,2.9779,2.9779,2.9729,2.9352,2.8863,2.831,2.7758,2.7253,2.6751,2.6549,2.6487,2.6487,2.6487,2.6487,2.6386,2.5523,2.4938,2.4675,2.381,2.3258,2.312,2.3095,2.3095,2.3095,2.3095,2.3095,2.3095,2.3095,2.2997,2.291,2.3134,2.3026,2.243,2.2083,2.1803,2.1586,2.0628,2.0297,2.0772,2.1124,2.1673,2.2419,2.3171,2.3595,2.3595,2.3595,2.3595,2.3595,2.3595,2.3595,2.3595,2.3595,2.3595,2.3595,2.3595,2.3595,2.3595,2.3595,2.3595,2.3595,2.3595,2.3595,2.3595,2.3595,2.3595,2.3595,2.3595,2.3595,2.3595,2.3595,2.3752,2.4074,2.4307,2.4697,2.5561,2.5906,2.6174,2.6607,2.6708,2.6708,2.6657,2.6336,2.5574,2.4711,2.4,2.3444,2.2592,2.2571,2.2708,2.2947,2.3369,2.3671,2.3785,2.3986,2.419,2.419,2.4199,2.4199,2.4228,2.433,2.4478,3.3124,3.3068,3.3099,3.2692,3.2177,3.2114,3.1537,3.067,3.057,3.0281,2.9829,2.9779,2.9779,2.9779,2.9779,2.9779,2.9779,2.9729,2.939,2.8787,2.8323,2.7783,2.7266,2.6751,2.6499,2.6499,2.6487,2.6487,2.6449,2.5837,2.531,2.4788,2.4217,2.3647,2.3221,2.312,2.3095,2.3198,2.3185,2.3138,2.3125,2.3125,2.3501,2.4,2.367,2.37,2.4064,2.3257,2.2887,2.3427,2.1758,2.1512,2.2911,2.2773,2.3096,2.419,2.3918,2.364,2.364,2.3699,2.3684,2.364,2.3684,2.3625,2.3699,2.3625,2.3595,2.3595,2.3595,2.3595,2.3595,2.3595,2.3595,2.3595,2.3595,2.3595,2.364,2.3699,2.361,2.364,2.3625,2.3595,2.3595,2.3595,2.364,2.3782,2.4074,2.4608,2.5109,2.5633,2.6104,2.6487,2.6657,2.6708,2.6708,2.637,2.5795,2.5032,2.4372,2.3932,2.3099,2.2487,2.2616,2.2784,2.32,2.3522,2.3692,2.3896,2.4094,2.418,2.419,2.4199,2.4199,2.4199,2.4339,3.3124,3.3124,3.3124,3.2955,3.2742,3.2378,3.1788,3.1097,3.0746,3.0306,2.9842,2.9779,2.9779,2.9779,2.9779,2.9779,2.9779,2.9779,2.9478,2.8913,2.8687,2.816,2.7318,2.7102,2.6826,2.6524,2.6487,2.6487,2.6424,2.5875,2.5511,2.5197,2.4418,2.3891,2.3653,2.3296,2.3335,2.3826,2.3855,2.3855,2.3855,2.3855,2.4031,2.4279,2.411,2.413,2.4485,2.4069,2.3792,2.3666,2.2993,2.271,2.2882,2.3137,2.3858,2.5025,2.5031,2.4679,2.4365,2.4657,2.4702,2.4276,2.4231,2.4231,2.4141,2.3864,2.3595,2.361,2.361,2.3595,2.3595,2.3595,2.3595,2.3595,2.361,2.3774,2.4126,2.4246,2.4246,2.4171,2.3924,2.3595,2.3729,2.3984,2.4051,2.3751,2.415,2.4529,2.4706,2.5144,2.5707,2.6157,2.6504,2.6708,2.6708,2.6234,2.5693,2.5152,2.4577,2.3915,2.3158,2.2629,2.2617,2.2651,2.3025,2.3165,2.33,2.366,2.3896,2.4123,2.4142,2.4199,2.4199,2.4199,2.4294,3.3124,3.3124,3.3124,3.3124,3.3074,3.2654,3.2177,3.1625,3.1085,3.0557,3.0093,2.988,2.9779,2.9779,2.9779,2.9779,2.9779,2.9779,2.9578,2.9164,2.8976,2.8399,2.7645,2.7369,2.7027,2.6562,2.6487,2.6487,2.6449,2.6097,2.5787,2.5536,2.4833,2.4318,2.3991,2.3572,2.3718,2.42,2.4279,2.4279,2.4321,2.4551,2.4652,2.4709,2.4866,2.5053,2.5152,2.5376,2.5218,2.4678,2.4244,2.39,2.3681,2.3995,2.4723,2.5732,2.5719,2.5412,2.5053,2.5352,2.5397,2.4978,2.4918,2.4918,2.4889,2.4522,2.4208,2.4014,2.3924,2.3879,2.3655,2.3595,2.3595,2.3595,2.3595,2.3879,2.45,2.459,2.459,2.4515,2.4231,2.3984,2.3984,2.4358,2.4462,2.4238,2.45,2.4579,2.4771,2.4962,2.5392,2.5906,2.6435,2.6641,2.6708,2.642,2.5964,2.5423,2.5101,2.4306,2.3613,2.3071,2.268,2.2669,2.2665,2.2756,2.2984,2.3369,2.3682,2.3968,2.4133,2.4199,2.4199,2.4199,2.4275,3.3124,3.3124,3.3124,3.3124,3.3111,3.3061,3.2704,3.2114,3.1625,3.111,3.0595,3.008,2.9892,2.9829,2.9829,2.9779,2.9779,2.9779,2.9767,2.9666,2.9227,2.8699,2.8097,2.7595,2.7077,2.6524,2.6487,2.6487,2.6474,2.6411,2.6172,2.5711,2.5561,2.4983,2.4054,2.4085,2.4154,2.4419,2.4534,2.4452,2.4394,2.5063,2.5384,2.5398,2.5946,2.6295,2.64,2.7052,2.7019,2.637,2.5405,2.5094,2.5499,2.552,2.581,2.6351,2.6033,2.5689,2.5615,2.5719,2.5824,2.5615,2.5615,2.5591,2.56,2.5495,2.5166,2.4605,2.4545,2.438,2.3834,2.3774,2.3729,2.3595,2.3595,2.3894,2.447,2.4664,2.4634,2.4679,2.4619,2.4619,2.4605,2.4784,2.4993,2.5211,2.5031,2.4807,2.5038,2.5069,2.5384,2.5854,2.6262,2.6521,2.6624,2.664,2.6234,2.5828,2.5575,2.5101,2.4491,2.3917,2.3325,2.318,2.2616,2.2681,2.2873,2.3242,2.3488,2.3746,2.3947,2.4161,2.4199,2.4199,2.4199,3.3124,3.3124,3.3124,3.3124,3.3124,3.3124,3.2754,3.2227,3.2014,3.1662,3.1122,3.0595,3.0357,3.0256,2.998,2.9779,2.9779,2.9779,2.9779,2.9741,2.9591,2.9202,2.8637,2.8084,2.7356,2.6625,2.6487,2.6487,2.6487,2.6487,2.6386,2.6197,2.5787,2.5448,2.5066,2.489,2.5001,2.5548,2.5744,2.5824,2.581,2.6041,2.5933,2.5508,2.5932,2.6281,2.6537,2.7203,2.7458,2.7214,2.6895,2.6787,2.6874,2.6494,2.6546,2.717,2.7121,2.6722,2.6408,2.6701,2.6731,2.6408,2.6288,2.6288,2.6213,2.5884,2.539,2.4814,2.4993,2.5008,2.4515,2.4732,2.4552,2.3714,2.361,2.4133,2.5136,2.5689,2.5719,2.539,2.53,2.5277,2.5367,2.5585,2.5809,2.5674,2.5427,2.5265,2.4933,2.4849,2.4847,2.5354,2.5854,2.6383,2.6504,2.6624,2.6488,2.6184,2.5981,2.5828,2.527,2.4694,2.4118,2.3555,2.3008,2.2815,2.298,2.3126,2.3413,2.3587,2.3818,2.3992,2.4151,2.419,2.419,3.3124,3.3124,3.3124,3.3124,3.3124,3.3124,3.2923,3.2516,3.229,3.2014,3.1599,3.0922,3.062,3.0507,3.0043,2.9792,2.9779,2.9779,2.9779,2.9779,2.9779,2.9478,2.8838,2.8134,2.7494,2.6889,2.6587,2.6487,2.6487,2.6487,2.6487,2.6399,2.6122,2.5787,2.5673,2.5753,2.6056,2.6541,2.6762,2.6883,2.6852,2.689,2.6549,2.6,2.6375,2.6718,2.693,2.7357,2.7585,2.7585,2.7585,2.7585,2.7549,2.7163,2.7111,2.7458,2.757,2.739,2.7076,2.733,2.745,2.7061,2.6986,2.6986,2.6911,2.6512,2.6063,2.5561,2.5734,2.5719,2.5187,2.5292,2.5166,2.4477,2.4388,2.4837,2.5839,2.6557,2.6602,2.6168,2.5989,2.5974,2.6093,2.6243,2.6557,2.6303,2.5914,2.554,2.5033,2.4847,2.4923,2.5198,2.5835,2.621,2.6384,2.6539,2.6691,2.6522,2.6336,2.6234,2.5964,2.5371,2.4778,2.4203,2.365,2.3646,2.3766,2.3475,2.354,2.3626,2.3797,2.381,2.3976,2.4151,2.4253,3.3124,3.3124,3.3124,3.3124,3.3124,3.3124,3.3099,3.2955,3.2541,3.229,3.2051,3.1286,3.0758,3.0583,3.0181,2.9892,2.9792,2.9779,2.9779,2.9779,2.9754,2.949,2.8863,2.7971,2.7467,2.7203,2.6738,2.6499,2.6487,2.6487,2.6487,2.6474,2.6424,2.6291,2.6115,2.6557,2.7045,2.7398,2.7583,2.7683,2.7694,2.7632,2.7358,2.6703,2.7167,2.7484,2.7484,2.756,2.7585,2.7585,2.7585,2.7585,2.7585,2.7585,2.7534,2.7585,2.7585,2.7585,2.757,2.7555,2.757,2.751,2.748,2.7585,2.7465,2.736,2.7061,2.6452,2.6566,2.6363,2.5839,2.5839,2.5794,2.5734,2.56,2.5869,2.6437,2.7091,2.7106,2.6686,2.6557,2.6647,2.6647,2.6731,2.6971,2.7076,2.6437,2.5839,2.5462,2.5185,2.4939,2.5234,2.5707,2.6068,2.6262,2.6556,2.6674,2.6657,2.6522,2.6488,2.6387,2.5828,2.5372,2.4812,2.4389,2.4438,2.4313,2.397,2.3895,2.4086,2.4055,2.3827,2.4056,2.4494,2.4791,3.3124,3.3124,3.3124,3.3124,3.3124,3.3124,3.3124,3.3111,3.296,3.2805,3.2667,3.2114,3.1524,3.1148,3.0633,3.0193,2.9892,2.9792,2.9779,2.9779,2.9779,2.9465,2.8875,2.8235,2.767,2.7329,2.6826,2.6487,2.6487,2.6487,2.6521,2.6487,2.6543,2.6773,2.7123,2.7556,2.808,2.8695,2.8934,2.9025,2.8949,2.852,2.826,2.8096,2.7767,2.763,2.76,2.7585,2.7585,2.7585,2.7585,2.7585,2.7585,2.7585,2.7585,2.7585,2.7585,2.7585,2.7585,2.7585,2.7585,2.7585,2.7585,2.7585,2.7585,2.7585,2.727,2.6866,2.7001,2.7046,2.6557,2.6761,2.6986,2.7016,2.6602,2.6243,2.6228,2.6866,2.7285,2.6611,2.6956,2.7225,2.727,2.7285,2.736,2.739,2.6856,2.6123,2.5808,2.5557,2.5285,2.5025,2.5313,2.5762,2.6157,2.647,2.6657,2.6691,2.6657,2.664,2.6437,2.6048,2.5693,2.5321,2.4982,2.4929,2.4659,2.4343,2.4455,2.4629,2.4555,2.4499,2.5106,2.559,2.5768,3.3124,3.3124,3.3124,3.3124,3.3124,3.3124,3.3124,3.3124,3.3124,3.3124,3.2998,3.2478,3.2039,3.1675,3.0947,3.047,3.0143,2.9905,2.9792,2.9779,2.9779,2.9591,2.9214,2.8712,2.816,2.762,2.7102,2.6725,2.6524,2.6487,2.6692,2.6973,2.7007,2.7438,2.8193,2.8761,2.9183,2.9636,2.9891,2.9968,2.9924,2.934,2.8861,2.8637,2.8199,2.7944,2.766,2.7585,2.7585,2.7585,2.7585,2.7585,2.7585,2.7585,2.7585,2.7585,2.7585,2.7585,2.7585,2.7585,2.7585,2.7585,2.7585,2.7585,2.7585,2.7585,2.7375,2.718,2.742,2.736,2.7195,2.739,2.7555,2.7495,2.7255,2.6866,2.6437,2.7165,2.7315,2.7121,2.7255,2.7585,2.7585,2.7585,2.7585,2.7465,2.7001,2.6482,2.6135,2.5894,2.5521,2.5087,2.5255,2.5832,2.5952,2.6141,2.6573,2.6657,2.6708,2.6708,2.6556,2.6285,2.6184,2.5913,2.5592,2.5371,2.5235,2.5083,2.5043,2.5143,2.5119,2.523,2.5706,2.6278,2.6488,3.3124,3.3124,3.3124,3.3124,3.3124,3.3124,3.3124,3.3124,3.3124,3.3124,3.298,3.2528,3.229,3.2152,3.1198,3.067,3.0557,3.0018,2.9829,2.9779,2.9779,2.9729,2.9641,2.9089,2.8536,2.8009,2.7532,2.7014,2.6612,2.6487,2.6939,2.7384,2.7617,2.8247,2.902,2.9832,3.0299,3.0424,3.0539,3.0599,3.0507,2.9998,2.949,2.9071,2.8607,2.8289,2.7884,2.7675,2.7585,2.7585,2.7585,2.7585,2.7585,2.7585,2.7585,2.7585,2.7585,2.7585,2.7585,2.7585,2.7585,2.7585,2.7585,2.7585,2.7585,2.7585,2.7555,2.748,2.7585,2.7555,2.7525,2.7585,2.7585,2.7585,2.7555,2.757,2.7585,2.7585,2.7585,2.7585,2.7585,2.7585,2.7585,2.7585,2.7585,2.757,2.7151,2.6836,2.6678,2.671,2.5853,2.4783,2.5253,2.6028,2.5935,2.5781,2.628,2.6607,2.6674,2.6708,2.6708,2.6573,2.6623,2.6488,2.6133,2.6099,2.6251,2.6082,2.5794,2.5723,2.5743,2.5692,2.5772,2.6467,2.6889,3.3124,3.3124,3.3124,3.3124,3.3124,3.3124,3.3124,3.3124,3.3124,3.3124,3.3086,3.2973,3.2629,3.2202,3.1512,3.1022,3.0608,3.0093,2.9792,2.9779,2.9779,2.9779,2.9679,2.9227,2.8662,2.8134,2.7557,2.704,2.6672,2.6683,2.6939,2.767,2.8065,2.8505,2.9889,3.0238,3.0658,3.1102,3.1244,3.1227,3.1107,3.0642,3.0208,2.9909,2.9116,2.8577,2.8323,2.7884,2.7615,2.7585,2.7585,2.7585,2.7585,2.7585,2.7585,2.7585,2.7585,2.7585,2.7585,2.7585,2.7585,2.7585,2.7585,2.7585,2.7585,2.7585,2.7585,2.7585,2.7585,2.7585,2.7585,2.7585,2.7585,2.7585,2.7585,2.7585,2.7585,2.7585,2.7585,2.7585,2.7585,2.7585,2.7585,2.7585,2.7585,2.757,2.739,2.7136,2.7194,2.7349,2.6535,2.5402,2.5879,2.661,2.6173,2.6038,2.6333,2.6624,2.6674,2.6708,2.6708,2.6708,2.6708,2.6708,2.664,2.6691,2.6674,2.6657,2.6302,2.6318,2.6349,2.636,2.6484,2.6989,2.7339,3.3124,3.3124,3.3124,3.3124,3.3124,3.3124,3.3124,3.3124,3.3124,3.3124,3.3124,3.3124,3.2893,3.2541,3.1788,3.121,3.0846,3.0143,2.9779,2.9779,2.9779,2.9779,2.9754,2.9478,2.9038,2.8486,2.7946,2.7582,2.7447,2.7304,2.7769,2.8844,2.8876,2.9659,3.0658,3.0837,3.1102,3.138,3.1496,3.1496,3.1406,3.1182,3.0761,3.0432,2.9564,2.8951,2.8577,2.8263,2.7929,2.769,2.76,2.7585,2.7585,2.7585,2.7585,2.7585,2.7585,2.7585,2.7585,2.7585,2.7585,2.7585,2.7585,2.7585,2.7585,2.7585,2.7585,2.7585,2.7585,2.7585,2.7585,2.7585,2.7585,2.7585,2.7585,2.7585,2.7585,2.7585,2.7585,2.7585,2.7585,2.7585,2.7585,2.7585,2.761,2.762,2.757,2.7345,2.7534,2.7631,2.7419,2.6838,2.707,2.7114,2.6552,2.6401,2.6538,2.6674,2.6674,2.6708,2.6708,2.6708,2.6708,2.6708,2.6708,2.6708,2.6691,2.6708,2.6708,2.6589,2.6638,2.6904,2.7139,2.7347,2.7673,3.3124,3.3124,3.3124,3.3124,3.3124,3.3124,3.3124,3.3124,3.3124,3.3124,3.3124,3.3124,3.298,3.2692,3.1838,3.1361,3.0871,3.0319,2.9779,2.9779,2.9779,2.9779,2.9767,2.9679,2.9503,2.9013,2.8499,2.8316,2.8226,2.8206,2.8557,2.9962,3.0238,3.0524,3.1248,3.1467,3.1438,3.1496,3.1496,3.1496,3.1496,3.1436,3.1152,3.0718,3.0088,2.9535,2.9101,2.8712,2.8323,2.7809,2.766,2.76,2.7585,2.7585,2.7585,2.7585,2.7585,2.7585,2.7585,2.7585,2.7585,2.7585,2.7585,2.7585,2.7585,2.7585,2.7585,2.7585,2.7585,2.7585,2.7585,2.7585,2.7585,2.7585,2.7585,2.7585,2.7585,2.7585,2.7585,2.7585,2.7585,2.7585,2.7585,2.7585,2.7635,2.7685,2.7635,2.7685,2.786,2.8003,2.7891,2.7737,2.7802,2.7356,2.6773,2.6508,2.6691,2.6708,2.6708,2.6708,2.6708,2.6708,2.6708,2.6708,2.6708,2.6708,2.6708,2.6708,2.6708,2.6708,2.6741,2.6841,2.7178,2.7574,2.7936,3.3124,3.3124,3.3124,3.3124,3.3124,3.3124,3.3124,3.3124,3.3124,3.3124,3.3124,3.3111,3.2817,3.2315,3.1725,3.0947,3.0281,2.9867,2.9779,2.983,2.9856,2.9934,2.996,3.0139,2.9922,2.9541,2.9227,2.8975,2.8646,2.849,2.9261,3.0111,3.0359,3.0792,3.1307,3.1496,3.1496,3.1496,3.1496,3.1496,3.1496,3.1481,3.1451,3.1167,3.0657,3.0268,2.9924,2.916,2.8547,2.8397,2.7899,2.769,2.766,2.766,2.7645,2.7585,2.7585,2.7585,2.7585,2.7585,2.7585,2.7585,2.7585,2.7585,2.7585,2.7585,2.7585,2.7585,2.7585,2.7585,2.7585,2.7585,2.7585,2.7585,2.7585,2.7585,2.7585,2.7585,2.7585,2.7585,2.7585,2.7585,2.7585,2.766,2.7795,2.7835,2.776,2.7934,2.8213,2.845,2.8565,2.8442,2.8306,2.7638,2.6944,2.6758,2.6708,2.6708,2.6708,2.6708,2.6708,2.6708,2.6708,2.6708,2.6708,2.6708,2.6708,2.6708,2.6708,2.6708,2.6708,2.6725,2.7052,2.7394,2.7765,3.3124,3.3124,3.3124,3.3124,3.3124,3.3124,3.3124,3.3124,3.3124,3.3124,3.3124,3.3099,3.2767,3.2202,3.1637,3.0796,3.0018,2.9779,2.9779,2.9869,3.0241,3.052,3.0633,3.0959,3.1244,3.1201,3.0934,3.0281,2.9673,2.9852,3.0235,3.0715,3.0925,3.1146,3.1409,3.1496,3.1496,3.1496,3.1496,3.1496,3.1496,3.1496,3.1496,3.1391,3.1197,3.0881,3.0417,3.0058,2.943,2.9131,2.8828,2.8483,2.8229,2.8094,2.7934,2.7705,2.76,2.7585,2.7585,2.7585,2.7585,2.7585,2.76,2.7585,2.7585,2.7585,2.7615,2.7585,2.7585,2.7585,2.7585,2.7585,2.7585,2.7585,2.7585,2.7585,2.7585,2.7585,2.7585,2.7585,2.7585,2.7585,2.7585,2.771,2.7944,2.7968,2.791,2.8189,2.8559,2.8871,2.916,2.9038,2.8827,2.8252,2.7503,2.708,2.6911,2.686,2.6708,2.6708,2.6708,2.6708,2.6708,2.6708,2.6708,2.6708,2.6708,2.6708,2.6708,2.6708,2.6725,2.6758,2.6923,2.721,2.7648,3.3124,3.3124,3.3124,3.3124,3.3124,3.3124,3.3124,3.3124,3.3124,3.3124,3.3124,3.3086,3.2692,3.2001,3.1311,3.0557,2.9792,2.9779,2.9895,3.0279,3.0771,3.1217,3.1683,3.2105,3.2415,3.2285,3.2644,3.225,3.14,3.1377,3.1575,3.1649,3.1691,3.1585,3.1555,3.1496,3.1496,3.1496,3.1496,3.1496,3.1496,3.1496,3.1496,3.1496,3.1496,3.1212,3.0808,3.0449,3.0163,2.9819,2.9577,2.9337,2.8906,2.8801,2.8472,2.7929,2.769,2.76,2.7585,2.76,2.7675,2.7884,2.7839,2.7884,2.7989,2.8049,2.7809,2.7645,2.7585,2.7585,2.7585,2.7585,2.7585,2.7585,2.7585,2.7585,2.7585,2.7585,2.7585,2.7585,2.7585,2.7585,2.7585,2.771,2.7944,2.8424,2.8415,2.8693,2.9065,2.9422,2.9621,2.9529,2.9304,2.8854,2.8197,2.7452,2.73,2.7215,2.6911,2.6708,2.6708,2.6708,2.6708,2.6725,2.6708,2.6708,2.6708,2.6708,2.6708,2.6708,2.6708,2.6741,2.6858,2.7257,2.7765,3.3124,3.3124,3.3124,3.3124,3.3124,3.3124,3.3124,3.3124,3.3124,3.3124,3.3124,3.3061,3.2491,3.1512,3.0482,2.9967,2.9882,2.996,3.0343,3.1007,3.1365,3.1888,3.2357,3.2486,3.2925,3.3115,3.3602,3.3416,3.2944,3.2832,3.2601,3.2377,3.2213,3.2079,3.154,3.1496,3.1496,3.1496,3.1496,3.1496,3.1496,3.1496,3.1496,3.1496,3.1481,3.1436,3.1212,3.0868,3.0522,3.0402,2.9921,2.9636,2.9502,2.9502,2.9116,2.8517,2.7979,2.76,2.7615,2.7779,2.7959,2.8319,2.8468,2.8786,2.8873,2.8618,2.8184,2.7615,2.76,2.7585,2.7585,2.7585,2.7585,2.7585,2.7585,2.7585,2.7585,2.7585,2.7585,2.7585,2.7585,2.7585,2.7585,2.776,2.7944,2.8496,2.8973,2.9225,2.954,2.9843,3.018,3.0124,2.9812,2.937,2.8958,2.8197,2.7841,2.7706,2.7418,2.6996,2.6928,2.6979,2.6776,2.6776,2.6725,2.6708,2.6708,2.6708,2.6708,2.6708,2.6708,2.6708,2.6725,2.7241,2.7869,3.3124,3.3124,3.3124,3.3124,3.3124,3.3124,3.3124,3.3124,3.3124,3.3124,3.3124,3.3124,3.2495,3.1364,3.0269,3.0113,3.0482,3.0595,3.1119,3.1983,3.2451,3.2947,3.3463,3.3939,3.4225,3.4225,3.4576,3.4732,3.4383,3.3927,3.3519,3.2631,3.2482,3.2123,3.1645,3.1511,3.1496,3.1496,3.1496,3.1496,3.1496,3.1496,3.1496,3.1496,3.1496,3.1496,3.1406,3.1286,3.1062,3.1017,3.0761,3.0477,3.0328,3.0357,3.0268,2.922,2.8948,2.8423,2.7824,2.8319,2.8618,2.8697,2.8936,2.928,2.9415,2.9041,2.8577,2.8203,2.7794,2.7645,2.763,2.7585,2.7585,2.7585,2.7585,2.7585,2.7585,2.7585,2.7585,2.7585,2.761,2.7685,2.776,2.7894,2.8222,2.8826,2.9111,2.9271,2.9673,3.0102,3.0456,3.0763,3.0347,2.9884,2.9516,2.8991,2.8654,2.8485,2.8451,2.8011,2.7503,2.7317,2.7199,2.6928,2.6759,2.6725,2.6708,2.6708,2.6708,2.6708,2.6708,2.6708,2.6758,2.7365,2.7968,3.3124,3.3124,3.3124,3.3124,3.3124,3.3124,3.3124,3.3124,3.3124,3.3124,3.3023,3.281,3.2239,3.165,3.0842,3.072,3.1523,3.1573,3.2141,3.2961,3.3587,3.4027,3.4442,3.51,3.5359,3.5489,3.5279,3.5314,3.526,3.4919,3.414,3.3036,3.3215,3.2587,3.1974,3.1795,3.1765,3.1496,3.1496,3.1496,3.1496,3.1496,3.1496,3.1496,3.1496,3.1496,3.1496,3.1481,3.1466,3.1451,3.1406,3.1092,3.0911,3.1032,3.0808,3.0103,2.9879,2.9475,2.8903,2.8918,2.925,2.9415,2.9594,3.0103,2.9789,2.931,2.8936,2.8876,2.8263,2.7989,2.7824,2.775,2.7585,2.7585,2.7585,2.7585,2.76,2.76,2.776,2.7993,2.7993,2.7944,2.8018,2.81,2.8496,2.9111,2.9339,2.9406,2.9848,3.0435,3.069,3.1038,3.0852,3.0446,3.0226,2.9837,2.9517,2.923,2.9196,2.8891,2.8315,2.7994,2.7841,2.7469,2.6979,2.681,2.6843,2.6776,2.6708,2.6708,2.6708,2.6708,2.689,2.7502,2.801,3.3124,3.3124,3.3124,3.3124,3.3124,3.3124,3.3124,3.3124,3.3124,3.3124,3.2986,3.2143,3.2115,3.2162,3.16,3.1529,3.2451,3.2486,3.3101,3.3671,3.4061,3.4591,3.5067,3.5359,3.5489,3.5489,3.5489,3.5489,3.5489,3.5385,3.4876,3.4444,3.4099,3.3425,3.2781,3.2303,3.1944,3.163,3.1496,3.1496,3.1496,3.1496,3.1496,3.1496,3.1496,3.1496,3.1496,3.1496,3.1496,3.1496,3.1496,3.1496,3.1316,3.1406,3.1047,3.0746,3.0851,3.0432,2.9894,2.9669,2.9879,3.0387,3.0776,3.0926,3.0507,3.0417,3.0088,2.952,2.8933,2.8577,2.8338,2.8079,2.7989,2.7974,2.8079,2.8019,2.7929,2.763,2.784,2.8286,2.8391,2.8295,2.8496,2.8638,2.8693,2.9271,2.9908,2.9995,3.0435,3.0918,3.0995,3.1157,3.1157,3.1021,3.0987,3.0632,3.0178,2.9924,2.9822,2.9467,2.8975,2.8755,2.8619,2.7891,2.7384,2.7164,2.6928,2.6793,2.6708,2.6708,2.6708,2.6791,2.7036,2.7562,2.8006,3.3124,3.3124,3.3124,3.3124,3.3124,3.3124,3.3124,3.3124,3.3124,3.3124,3.3031,3.2294,3.1893,3.1922,3.1951,3.1991,3.2648,3.3276,3.3993,3.4658,3.5019,3.5166,3.5457,3.5489,3.5489,3.5489,3.5489,3.5489,3.5489,3.5489,3.54,3.507,3.4758,3.4009,3.3305,3.2736,3.2213,3.1735,3.154,3.1511,3.1496,3.1496,3.1496,3.1496,3.1496,3.1496,3.1496,3.1496,3.1496,3.1496,3.1496,3.1496,3.1496,3.1496,3.1346,3.1092,3.1376,3.1152,3.0853,3.0688,3.0898,3.1046,3.1331,3.1361,3.1002,3.0791,3.0492,3.0041,2.9606,2.9205,2.9131,2.9007,2.8918,2.8783,2.8637,2.8558,2.8408,2.8124,2.8434,2.9115,2.8894,2.8606,2.8896,2.9203,2.9271,2.9451,3.0059,3.0617,3.0975,3.119,3.119,3.119,3.119,3.119,3.114,3.0954,3.0751,3.0581,3.0415,3.0074,2.9736,2.9668,2.9397,2.8584,2.7841,2.7553,2.7249,2.686,2.6708,2.6708,2.6808,2.6922,2.7255,2.7607,2.8006,3.3124,3.3124,3.3124,3.3124,3.3124,3.3124,3.3124,3.3124,3.3124,3.3124,3.3061,3.2566,3.2393,3.2345,3.2468,3.3049,3.3638,3.4211,3.4806,3.5213,3.5424,3.5489,3.5489,3.5489,3.5489,3.5489,3.5489,3.5489,3.5489,3.5489,3.5459,3.531,3.5026,3.4457,3.3799,3.314,3.2557,3.2228,3.2079,3.1914,3.1884,3.1824,3.163,3.157,3.1496,3.1496,3.1496,3.1496,3.1496,3.1496,3.1496,3.1496,3.1496,3.1496,3.1496,3.1496,3.1496,3.1496,3.1496,3.1496,3.1496,3.1421,3.1451,3.1496,3.1361,3.1047,3.0896,3.0791,3.0268,2.9849,2.9834,2.9594,2.9427,2.9205,2.9131,2.9082,2.9026,2.8899,2.9439,2.9998,2.9641,2.9414,2.9707,3.0004,2.9815,2.993,3.0435,3.0838,3.1035,3.119,3.119,3.119,3.119,3.119,3.1173,3.1055,3.0954,3.0954,3.0801,3.0768,3.0548,3.0446,3.0108,2.9345,2.8652,2.8043,2.7604,2.7283,2.6996,2.6742,2.6808,2.6873,2.7115,2.7457,2.7922,3.3124,3.3124,3.3124,3.3124,3.3124,3.3124,3.3124,3.3124,3.3124,3.3124,3.3126,3.2907,3.325,3.3761,3.3726,3.4235,3.4683,3.51,3.5424,3.5457,3.5489,3.5489,3.5489,3.5489,3.5489,3.5489,3.5489,3.5489,3.5489,3.5489,3.5489,3.5489,3.5325,3.4996,3.4427,3.3799,3.3469,3.3425,3.3305,3.2946,3.2617,3.2392,3.2049,3.178,3.154,3.1511,3.1496,3.1496,3.1496,3.1496,3.1496,3.1496,3.1496,3.1496,3.1496,3.1496,3.1496,3.1496,3.1496,3.1496,3.1496,3.1496,3.1496,3.1496,3.1496,3.1421,3.1346,3.1182,3.0808,3.0537,3.0298,3.0073,2.9924,2.9849,2.9819,2.9819,2.9819,2.9547,2.9994,3.0716,3.0656,3.0521,3.0745,3.0858,3.0474,3.0547,3.0895,3.1112,3.1171,3.119,3.119,3.119,3.119,3.119,3.119,3.119,3.1157,3.119,3.1157,3.1038,3.1021,3.092,3.0531,3.0006,2.9516,2.8906,2.8331,2.7773,2.7334,2.6877,2.6742,2.6808,2.702,2.7332,2.7865,3.3124,3.3124,3.3124,3.3124,3.3124,3.3124,3.3124,3.3124,3.3124,3.3124,3.3262,3.3697,3.3622,3.3801,3.4635,3.5047,3.4679,3.5359,3.5489,3.5489,3.5489,3.5489,3.5489,3.5489,3.5489,3.5489,3.5489,3.5489,3.5489,3.5489,3.5489,3.5489,3.5444,3.5115,3.4653,3.4189,3.3993,3.3574,3.3455,3.335,3.314,3.2796,3.2422,3.2153,3.1795,3.157,3.1555,3.157,3.1496,3.1496,3.1496,3.1496,3.1496,3.1496,3.1496,3.1496,3.1496,3.1496,3.1496,3.1496,3.1496,3.1496,3.1496,3.1496,3.1496,3.1496,3.1496,3.1481,3.1256,3.1077,3.1062,3.1002,3.0928,3.0943,3.0928,3.0928,3.0851,3.0283,3.0346,3.1271,3.1614,3.1589,3.1701,3.175,3.1471,3.1091,3.1358,3.1216,3.1207,3.119,3.119,3.119,3.119,3.119,3.119,3.119,3.119,3.119,3.119,3.1157,3.1173,3.119,3.0835,3.026,3.0057,2.9785,2.8924,2.8095,2.7469,2.7046,2.6826,2.6808,2.7052,2.7424,2.7918,3.3124,3.3124,3.3124,3.3124,3.3124,3.3124,3.3124,3.3154,3.3471,3.3628,3.3901,3.4874,3.5092,3.4851,3.5317,3.5851,3.4932,3.5207,3.5489,3.5489,3.5489,3.5489,3.5489,3.5489,3.5489,3.5489,3.5489,3.5489,3.5489,3.5489,3.5489,3.5489,3.5489,3.5295,3.4951,3.4801,3.4681,3.4397,3.4352,3.4158,3.3858,3.3484,3.314,3.2766,3.2303,3.1869,3.1795,3.1675,3.1496,3.1511,3.1496,3.1496,3.1496,3.1496,3.1496,3.1496,3.1496,3.1496,3.1496,3.1496,3.1496,3.1496,3.1496,3.1496,3.1496,3.1496,3.1496,3.1496,3.1496,3.1496,3.1481,3.1496,3.1496,3.1481,3.1523,3.1493,3.1416,3.0887,3.1324,3.2218,3.2676,3.264,3.2563,3.2547,3.2474,3.211,3.1799,3.1529,3.1258,3.1207,3.119,3.119,3.119,3.119,3.119,3.119,3.119,3.119,3.119,3.119,3.119,3.1173,3.0852,3.0632,3.0548,3.0209,2.9196,2.8383,2.7689,2.7148,2.6776,2.6858,2.7084,2.75,2.7978,3.3124,3.3124,3.3124,3.3124,3.3124,3.3124,3.3124,3.3197,3.4191,3.4622,3.4719,3.606,3.6447,3.6568,3.6611,3.6403,3.6119,3.5741,3.5532,3.5489,3.5489,3.5489,3.5489,3.5489,3.5489,3.5489,3.5489,3.5489,3.5489,3.5489,3.5489,3.5489,3.5489,3.5415,3.537,3.5325,3.525,3.5115,3.507,3.4861,3.4532,3.4354,3.3918,3.3469,3.2946,3.2482,3.2258,3.1959,3.166,3.154,3.1496,3.1496,3.1496,3.1496,3.1496,3.1496,3.1496,3.1496,3.1496,3.1496,3.1496,3.1496,3.1496,3.1496,3.1496,3.1496,3.1496,3.1496,3.1496,3.1496,3.1496,3.1496,3.1496,3.1538,3.1625,3.1667,3.1752,3.1964,3.2654,3.3221,3.3582,3.3621,3.3455,3.3389,3.3271,3.2763,3.2324,3.1867,3.1599,3.1241,3.1224,3.119,3.119,3.119,3.119,3.119,3.119,3.119,3.119,3.119,3.119,3.119,3.1021,3.0954,3.1089,3.0632,2.96,2.8687,2.7858,2.7402,2.7215,2.6926,2.7187,2.7547,2.795,3.3124,3.3124,3.3124,3.3124,3.3124,3.3124,3.3124,3.324,3.4233,3.4718,3.4815,3.6683,3.7319,3.6851,3.703,3.6858,3.6387,3.5893,3.5594,3.5489,3.5489,3.5489,3.5489,3.5489,3.5489,3.5489,3.5489,3.5489,3.5489,3.5489,3.5489,3.5489,3.5489,3.5489,3.5489,3.5489,3.5489,3.5489,3.5489,3.534,3.507,3.4803,3.4442,3.4083,3.3559,3.311,3.2587,3.2318,3.1989,3.157,3.1511,3.1496,3.1496,3.1496,3.1496,3.1496,3.1496,3.1496,3.1496,3.1496,3.1496,3.1496,3.1496,3.1496,3.1496,3.1496,3.1496,3.1496,3.1496,3.1496,3.1496,3.1496,3.1496,3.1524,3.1739,3.2076,3.2216,3.261,3.3313,3.4096,3.4439,3.4453,3.4276,3.4167,3.3998,3.3423,3.2899,3.2425,3.1887,3.1512,3.1224,3.119,3.119,3.119,3.119,3.119,3.119,3.119,3.119,3.119,3.119,3.119,3.119,3.119,3.119,3.0751,3.004,2.9194,2.8467,2.823,2.8046,2.7572,2.7305,2.7785,2.8152,3.3124,3.3124,3.3124,3.3326,3.3628,3.3283,3.3326,3.3882,3.4856,3.5278,3.5561,3.7534,3.8201,3.7857,3.7545,3.718,3.6821,3.5938,3.5489,3.5489,3.5489,3.5489,3.5489,3.5489,3.5489,3.5489,3.5489,3.5489,3.5489,3.5489,3.5489,3.5489,3.5489,3.5489,3.5489,3.5489,3.5489,3.5489,3.5489,3.5489,3.531,3.5085,3.4966,3.4726,3.4203,3.3574,3.2961,3.2781,3.2183,3.163,3.1511,3.1496,3.1496,3.1496,3.1496,3.1496,3.1496,3.1496,3.1496,3.1496,3.1496,3.1496,3.1496,3.1496,3.1496,3.1496,3.1496,3.1496,3.1496,3.1496,3.1496,3.1496,3.1496,3.1496,3.2007,3.2532,3.2826,3.313,3.3887,3.48,3.5113,3.5183,3.5131,3.4996,3.4827,3.4455,3.3914,3.3305,3.253,3.1732,3.1393,3.119,3.119,3.119,3.119,3.119,3.119,3.119,3.119,3.119,3.119,3.119,3.119,3.119,3.119,3.0717,3.0243,2.9871,2.9313,2.9027,2.8678,2.8285,2.8061,2.8298,2.8639,3.3124,3.3124,3.3124,3.3797,3.4581,3.3742,3.3966,3.4979,3.5987,3.6237,3.6565,3.842,3.9235,3.879,3.7983,3.7434,3.6896,3.6088,3.5489,3.5489,3.5489,3.5489,3.5489,3.5489,3.5489,3.5489,3.5489,3.5489,3.5489,3.5489,3.5489,3.5489,3.5489,3.5489,3.5489,3.5489,3.5489,3.5489,3.5489,3.5489,3.5489,3.5459,3.5474,3.5355,3.4846,3.4279,3.3619,3.3006,3.2303,3.1854,3.16,3.1645,3.1511,3.1496,3.1496,3.1496,3.1496,3.1496,3.1496,3.1496,3.1496,3.1496,3.1496,3.1496,3.1496,3.1496,3.1496,3.1496,3.1496,3.1496,3.1496,3.1496,3.1496,3.1781,3.2284,3.2734,3.3066,3.3608,3.4496,3.5184,3.5305,3.5386,3.543,3.5284,3.525,3.5216,3.4742,3.4015,3.3186,3.2171,3.163,3.1292,3.119,3.119,3.119,3.119,3.119,3.119,3.119,3.119,3.119,3.119,3.119,3.119,3.1173,3.0886,3.048,2.9989,2.9585,2.9367,2.9074,2.8895,2.8901,2.9117,2.9001,3.3124,3.3124,3.3124,3.4137,3.5588,3.4733,3.5386,3.7035,3.7266,3.6916,3.6721,3.8331,3.9388,3.9179,3.8018,3.7404,3.7105,3.6163,3.5609,3.5489,3.5489,3.5489,3.5489,3.5489,3.5489,3.5489,3.5489,3.5489,3.5489,3.5489,3.5489,3.5489,3.5489,3.5489,3.5489,3.5489,3.5489,3.5489,3.5489,3.5489,3.5489,3.5489,3.5474,3.5459,3.5145,3.4801,3.4322,3.4038,3.3245,3.2557,3.2332,3.2004,3.1555,3.1525,3.1511,3.1496,3.1496,3.1496,3.1496,3.1496,3.1496,3.1496,3.1496,3.1496,3.1496,3.1496,3.1496,3.1496,3.1496,3.1496,3.1496,3.1496,3.1553,3.202,3.2555,3.296,3.3355,3.4227,3.5098,3.5276,3.5407,3.5492,3.5577,3.5616,3.5616,3.5295,3.4827,3.4184,3.3525,3.2645,3.1955,3.1562,3.1241,3.119,3.119,3.119,3.119,3.119,3.119,3.119,3.119,3.119,3.119,3.119,3.1123,3.092,3.0531,2.9822,2.9484,2.9519,2.9552,2.9417,2.9948,3.0302,2.9807,3.3124,3.3167,3.3641,3.4719,3.592,3.5588,3.6304,3.7601,3.7805,3.7301,3.6835,3.8421,3.9373,3.9164,3.7983,3.7375,3.7135,3.6073,3.5639,3.5489,3.5489,3.5489,3.5489,3.5489,3.5489,3.5489,3.5489,3.5489,3.5489,3.5489,3.5489,3.5489,3.5489,3.5489,3.5489,3.5489,3.5489,3.5489,3.5489,3.5489,3.5489,3.5489,3.5489,3.5489,3.54,3.5085,3.4711,3.4459,3.3873,3.3245,3.2976,3.2572,3.2168,3.2004,3.1795,3.16,3.1496,3.1496,3.1496,3.1496,3.1496,3.1496,3.1496,3.1496,3.1496,3.1496,3.1496,3.1496,3.1496,3.1496,3.1496,3.1496,3.1496,3.1781,3.2783,3.3556,3.4202,3.4981,3.5385,3.5424,3.5515,3.5554,3.5616,3.5616,3.5616,3.56,3.5064,3.4658,3.3947,3.3119,3.2429,3.1802,3.1444,3.1224,3.119,3.119,3.119,3.119,3.119,3.119,3.119,3.119,3.119,3.119,3.119,3.1157,3.0666,3.0076,2.9839,2.9924,2.9961,2.9972,3.0637,3.1191,3.0836,3.3122,3.3428,3.4457,3.548,3.633,3.6395,3.706,3.7942,3.8032,3.7655,3.728,3.858,3.9143,3.8721,3.7958,3.7554,3.6926,3.5983,3.5594,3.5489,3.5489,3.5489,3.5489,3.5489,3.5489,3.5489,3.5489,3.5489,3.5489,3.5489,3.5489,3.5489,3.5489,3.5489,3.5489,3.5489,3.5489,3.5489,3.5489,3.5489,3.5489,3.5489,3.5489,3.5489,3.5444,3.5175,3.4786,3.4517,3.4233,3.3814,3.3455,3.308,3.2826,3.2617,3.2198,3.1974,3.1795,3.169,3.154,3.1496,3.1496,3.1496,3.1496,3.1496,3.1496,3.1496,3.1496,3.1496,3.1496,3.1524,3.1524,3.1524,3.1524,3.1936,3.3087,3.4137,3.4894,3.5538,3.5554,3.5554,3.5577,3.5616,3.5616,3.5616,3.5616,3.5616,3.543,3.5081,3.4539,3.3626,3.2797,3.2107,3.1546,3.1376,3.1224,3.119,3.119,3.119,3.119,3.119,3.119,3.119,3.119,3.119,3.119,3.119,3.1072,3.0632,3.048,3.0192,3.0292,3.037,3.0837,3.1347,3.1649,3.3164,3.447,3.5467,3.654,3.7381,3.7458,3.8107,3.898,3.9023,3.8718,3.8139,3.8186,3.8332,3.7764,3.7045,3.6716,3.6671,3.5848,3.5594,3.5489,3.5489,3.5489,3.5489,3.5489,3.5489,3.5489,3.5489,3.5489,3.5489,3.5489,3.5489,3.5489,3.5489,3.5489,3.5489,3.5489,3.5489,3.5489,3.5489,3.5489,3.5489,3.5489,3.5489,3.5489,3.5489,3.5415,3.5325,3.531,3.4891,3.4367,3.3873,3.3589,3.3395,3.326,3.2931,3.2527,3.2332,3.2108,3.1974,3.1735,3.1705,3.163,3.1615,3.1496,3.1496,3.1496,3.1496,3.1496,3.1524,3.1582,3.1582,3.164,3.171,3.261,3.3633,3.452,3.5316,3.5515,3.56,3.56,3.56,3.5616,3.5616,3.5616,3.5616,3.5616,3.5616,3.525,3.4776,3.3981,3.3152,3.2476,3.1765,3.1393,3.119,3.119,3.119,3.119,3.119,3.119,3.119,3.119,3.119,3.119,3.119,3.119,3.1055,3.0937,3.0514,3.0232,3.0485,3.0715,3.1144,3.1724,3.2198]}]]